<?xml version="1.0" encoding="UTF-8" standalone="no" ?>
<gpx xmlns="http://www.topografix.com/GPX/1/1" xmlns:xsi="http://www.w3.org/2001/XMLSchema-instance" xsi:schemaLocation="http://www.topografix.com/GPX/1/1 http://www.topografix.com/GPX/1/1/gpx.xsd" version="1.1" creator="VisuGPX - https://www.visugpx.com">
  <metadata>
    <name>rive gauche</name>
    <desc><![CDATA[rive gauche de l\'isere]]></desc>
  </metadata>
  <trk>
    <name><![CDATA[Rive Gauche de l'isere]]></name>
    <trkseg>
      <trkpt lat="45.11565" lon="4.96425">
        <ele>202.00100708008</ele>
        <time>2010-11-03T12:16:02Z</time>
      </trkpt>
      <trkpt lat="45.11565" lon="4.96425">
        <ele>202.00100708008</ele>
        <time>2010-11-03T12:16:03Z</time>
      </trkpt>
      <trkpt lat="45.11564" lon="4.96426">
        <ele>202.20199584961</ele>
        <time>2010-11-03T12:16:13Z</time>
      </trkpt>
      <trkpt lat="45.11559" lon="4.96435">
        <ele>201.57699584961</ele>
        <time>2010-11-03T12:16:20Z</time>
      </trkpt>
      <trkpt lat="45.11563" lon="4.96446">
        <ele>200.95199584961</ele>
        <time>2010-11-03T12:16:23Z</time>
      </trkpt>
      <trkpt lat="45.11572" lon="4.96452">
        <ele>201.13200378418</ele>
        <time>2010-11-03T12:16:27Z</time>
      </trkpt>
      <trkpt lat="45.11575" lon="4.96448">
        <ele>201.47099304199</ele>
        <time>2010-11-03T12:16:30Z</time>
      </trkpt>
      <trkpt lat="45.11577" lon="4.9645">
        <ele>201.54100036621</ele>
        <time>2010-11-03T12:16:36Z</time>
      </trkpt>
      <trkpt lat="45.1158" lon="4.96473">
        <ele>201.14900207519</ele>
        <time>2010-11-03T12:16:46Z</time>
      </trkpt>
      <trkpt lat="45.11578" lon="4.96499">
        <ele>200.65600585938</ele>
        <time>2010-11-03T12:16:51Z</time>
      </trkpt>
      <trkpt lat="45.11587" lon="4.96532">
        <ele>200.03300476074</ele>
        <time>2010-11-03T12:16:56Z</time>
      </trkpt>
      <trkpt lat="45.11603" lon="4.96572">
        <ele>200.13400268555</ele>
        <time>2010-11-03T12:17:02Z</time>
      </trkpt>
      <trkpt lat="45.11626" lon="4.96633">
        <ele>200.00900268555</ele>
        <time>2010-11-03T12:17:10Z</time>
      </trkpt>
      <trkpt lat="45.11646" lon="4.96688">
        <ele>200.48899841309</ele>
        <time>2010-11-03T12:17:17Z</time>
      </trkpt>
      <trkpt lat="45.11668" lon="4.96738">
        <ele>201.14599609375</ele>
        <time>2010-11-03T12:17:24Z</time>
      </trkpt>
      <trkpt lat="45.11702" lon="4.96797">
        <ele>201.98500061035</ele>
        <time>2010-11-03T12:17:33Z</time>
      </trkpt>
      <trkpt lat="45.11721" lon="4.96829">
        <ele>202.10600280762</ele>
        <time>2010-11-03T12:17:38Z</time>
      </trkpt>
      <trkpt lat="45.11729" lon="4.96853">
        <ele>202.1369934082</ele>
        <time>2010-11-03T12:17:41Z</time>
      </trkpt>
      <trkpt lat="45.11745" lon="4.96878">
        <ele>202.2140045166</ele>
        <time>2010-11-03T12:17:45Z</time>
      </trkpt>
      <trkpt lat="45.11765" lon="4.969">
        <ele>202.375</ele>
        <time>2010-11-03T12:17:49Z</time>
      </trkpt>
      <trkpt lat="45.11804" lon="4.96961">
        <ele>202.93499755859</ele>
        <time>2010-11-03T12:17:58Z</time>
      </trkpt>
      <trkpt lat="45.11845" lon="4.97019">
        <ele>203.02499389648</ele>
        <time>2010-11-03T12:18:07Z</time>
      </trkpt>
      <trkpt lat="45.11869" lon="4.9705">
        <ele>203.25900268555</ele>
        <time>2010-11-03T12:18:12Z</time>
      </trkpt>
      <trkpt lat="45.11876" lon="4.97085">
        <ele>203.11700439453</ele>
        <time>2010-11-03T12:18:16Z</time>
      </trkpt>
      <trkpt lat="45.11875" lon="4.97095">
        <ele>202.99899291992</ele>
        <time>2010-11-03T12:18:17Z</time>
      </trkpt>
      <trkpt lat="45.11871" lon="4.97124">
        <ele>202.66400146484</ele>
        <time>2010-11-03T12:18:20Z</time>
      </trkpt>
      <trkpt lat="45.11871" lon="4.97166">
        <ele>202.03399658203</ele>
        <time>2010-11-03T12:18:24Z</time>
      </trkpt>
      <trkpt lat="45.1189" lon="4.9728">
        <ele>201.14399719238</ele>
        <time>2010-11-03T12:18:35Z</time>
      </trkpt>
      <trkpt lat="45.11902" lon="4.97349">
        <ele>201.08799743652</ele>
        <time>2010-11-03T12:18:42Z</time>
      </trkpt>
      <trkpt lat="45.11915" lon="4.97425">
        <ele>201.43600463867</ele>
        <time>2010-11-03T12:18:50Z</time>
      </trkpt>
      <trkpt lat="45.11929" lon="4.97508">
        <ele>202.24099731445</ele>
        <time>2010-11-03T12:18:59Z</time>
      </trkpt>
      <trkpt lat="45.11942" lon="4.97579">
        <ele>203.12699890137</ele>
        <time>2010-11-03T12:19:07Z</time>
      </trkpt>
      <trkpt lat="45.11943" lon="4.97597">
        <ele>203.33299255371</ele>
        <time>2010-11-03T12:19:09Z</time>
      </trkpt>
      <trkpt lat="45.11954" lon="4.9765">
        <ele>203.72399902344</ele>
        <time>2010-11-03T12:19:15Z</time>
      </trkpt>
      <trkpt lat="45.11969" lon="4.97734">
        <ele>203.76400756836</ele>
        <time>2010-11-03T12:19:24Z</time>
      </trkpt>
      <trkpt lat="45.11986" lon="4.97833">
        <ele>204.3809967041</ele>
        <time>2010-11-03T12:19:35Z</time>
      </trkpt>
      <trkpt lat="45.11998" lon="4.97904">
        <ele>204.92700195312</ele>
        <time>2010-11-03T12:19:43Z</time>
      </trkpt>
      <trkpt lat="45.12003" lon="4.97927">
        <ele>205.12699890137</ele>
        <time>2010-11-03T12:19:46Z</time>
      </trkpt>
      <trkpt lat="45.11995" lon="4.9794">
        <ele>205.22300720215</ele>
        <time>2010-11-03T12:19:49Z</time>
      </trkpt>
      <trkpt lat="45.1199" lon="4.97939">
        <ele>205.05999755859</ele>
        <time>2010-11-03T12:19:50Z</time>
      </trkpt>
      <trkpt lat="45.11947" lon="4.97928">
        <ele>204.87899780273</ele>
        <time>2010-11-03T12:19:57Z</time>
      </trkpt>
      <trkpt lat="45.11912" lon="4.97924">
        <ele>204.73599243164</ele>
        <time>2010-11-03T12:20:03Z</time>
      </trkpt>
      <trkpt lat="45.11901" lon="4.97923">
        <ele>204.57400512695</ele>
        <time>2010-11-03T12:20:05Z</time>
      </trkpt>
      <trkpt lat="45.11892" lon="4.9791">
        <ele>204.60200500488</ele>
        <time>2010-11-03T12:20:09Z</time>
      </trkpt>
      <trkpt lat="45.1189" lon="4.979">
        <ele>204.22999572754</ele>
        <time>2010-11-03T12:20:12Z</time>
      </trkpt>
      <trkpt lat="45.11889" lon="4.97897">
        <ele>203.93800354004</ele>
        <time>2010-11-03T12:20:15Z</time>
      </trkpt>
      <trkpt lat="45.11889" lon="4.97898">
        <ele>203.89199829102</ele>
        <time>2010-11-03T12:20:24Z</time>
      </trkpt>
      <trkpt lat="45.11892" lon="4.97908">
        <ele>204.02200317383</ele>
        <time>2010-11-03T12:20:29Z</time>
      </trkpt>
      <trkpt lat="45.11883" lon="4.97919">
        <ele>204.26300048828</ele>
        <time>2010-11-03T12:20:34Z</time>
      </trkpt>
      <trkpt lat="45.11853" lon="4.97917">
        <ele>204.42300415039</ele>
        <time>2010-11-03T12:20:40Z</time>
      </trkpt>
      <trkpt lat="45.11829" lon="4.97915">
        <ele>204.34700012207</ele>
        <time>2010-11-03T12:20:45Z</time>
      </trkpt>
      <trkpt lat="45.11823" lon="4.97922">
        <ele>204.2799987793</ele>
        <time>2010-11-03T12:20:47Z</time>
      </trkpt>
      <trkpt lat="45.11825" lon="4.97933">
        <ele>204.19500732422</ele>
        <time>2010-11-03T12:20:49Z</time>
      </trkpt>
      <trkpt lat="45.11834" lon="4.97949">
        <ele>204.32400512695</ele>
        <time>2010-11-03T12:20:52Z</time>
      </trkpt>
      <trkpt lat="45.11859" lon="4.97998">
        <ele>204.52699279785</ele>
        <time>2010-11-03T12:21:00Z</time>
      </trkpt>
      <trkpt lat="45.11877" lon="4.98046">
        <ele>204.78199768066</ele>
        <time>2010-11-03T12:21:07Z</time>
      </trkpt>
      <trkpt lat="45.11893" lon="4.98087">
        <ele>205.14900207519</ele>
        <time>2010-11-03T12:21:13Z</time>
      </trkpt>
      <trkpt lat="45.119" lon="4.98115">
        <ele>205.67300415039</ele>
        <time>2010-11-03T12:21:17Z</time>
      </trkpt>
      <trkpt lat="45.11905" lon="4.98166">
        <ele>206.55000305176</ele>
        <time>2010-11-03T12:21:24Z</time>
      </trkpt>
      <trkpt lat="45.11911" lon="4.9823">
        <ele>207.28500366211</ele>
        <time>2010-11-03T12:21:33Z</time>
      </trkpt>
      <trkpt lat="45.11912" lon="4.98244">
        <ele>207.42999267578</ele>
        <time>2010-11-03T12:21:35Z</time>
      </trkpt>
      <trkpt lat="45.11913" lon="4.98275">
        <ele>207.20300292969</ele>
        <time>2010-11-03T12:21:40Z</time>
      </trkpt>
      <trkpt lat="45.11914" lon="4.98285">
        <ele>206.84899902344</ele>
        <time>2010-11-03T12:21:42Z</time>
      </trkpt>
      <trkpt lat="45.1192" lon="4.98294">
        <ele>206.89500427246</ele>
        <time>2010-11-03T12:21:44Z</time>
      </trkpt>
      <trkpt lat="45.1193" lon="4.98334">
        <ele>207.28799438477</ele>
        <time>2010-11-03T12:21:50Z</time>
      </trkpt>
      <trkpt lat="45.11934" lon="4.98348">
        <ele>207.36799621582</ele>
        <time>2010-11-03T12:21:52Z</time>
      </trkpt>
      <trkpt lat="45.11943" lon="4.98367">
        <ele>207.35499572754</ele>
        <time>2010-11-03T12:21:55Z</time>
      </trkpt>
      <trkpt lat="45.11951" lon="4.98376">
        <ele>207.42900085449</ele>
        <time>2010-11-03T12:21:57Z</time>
      </trkpt>
      <trkpt lat="45.11965" lon="4.98387">
        <ele>207.56500244141</ele>
        <time>2010-11-03T12:22:00Z</time>
      </trkpt>
      <trkpt lat="45.1197" lon="4.98411">
        <ele>207.625</ele>
        <time>2010-11-03T12:22:04Z</time>
      </trkpt>
      <trkpt lat="45.11967" lon="4.98417">
        <ele>207.77200317383</ele>
        <time>2010-11-03T12:22:05Z</time>
      </trkpt>
      <trkpt lat="45.11965" lon="4.98439">
        <ele>207.87899780273</ele>
        <time>2010-11-03T12:22:10Z</time>
      </trkpt>
      <trkpt lat="45.1197" lon="4.9844">
        <ele>208.29400634766</ele>
        <time>2010-11-03T12:22:13Z</time>
      </trkpt>
      <trkpt lat="45.11971" lon="4.98442">
        <ele>208.12699890137</ele>
        <time>2010-11-03T12:22:16Z</time>
      </trkpt>
      <trkpt lat="45.11973" lon="4.98441">
        <ele>207.80400085449</ele>
        <time>2010-11-03T12:22:28Z</time>
      </trkpt>
      <trkpt lat="45.1197" lon="4.98438">
        <ele>207.8450012207</ele>
        <time>2010-11-03T12:22:32Z</time>
      </trkpt>
      <trkpt lat="45.11969" lon="4.98439">
        <ele>207.84700012207</ele>
        <time>2010-11-03T12:22:35Z</time>
      </trkpt>
      <trkpt lat="45.11972" lon="4.98441">
        <ele>207.1130065918</ele>
        <time>2010-11-03T12:28:46Z</time>
      </trkpt>
      <trkpt lat="45.11972" lon="4.98441">
        <ele>206.70599365234</ele>
        <time>2010-11-03T12:28:47Z</time>
      </trkpt>
      <trkpt lat="45.11971" lon="4.98441">
        <ele>208.25999450684</ele>
        <time>2010-11-03T12:28:48Z</time>
      </trkpt>
      <trkpt lat="45.11971" lon="4.98432">
        <ele>207.65199279785</ele>
        <time>2010-11-03T12:37:06Z</time>
      </trkpt>
      <trkpt lat="45.11971" lon="4.98432">
        <ele>207.63900756836</ele>
        <time>2010-11-03T12:37:07Z</time>
      </trkpt>
      <trkpt lat="45.1197" lon="4.9843">
        <ele>207.51499938965</ele>
        <time>2010-11-03T12:37:34Z</time>
      </trkpt>
      <trkpt lat="45.11968" lon="4.98425">
        <ele>207.46499633789</ele>
        <time>2010-11-03T12:37:37Z</time>
      </trkpt>
      <trkpt lat="45.11973" lon="4.98406">
        <ele>207.39500427246</ele>
        <time>2010-11-03T12:37:44Z</time>
      </trkpt>
      <trkpt lat="45.11977" lon="4.98394">
        <ele>207.42999267578</ele>
        <time>2010-11-03T12:37:48Z</time>
      </trkpt>
      <trkpt lat="45.11987" lon="4.9839">
        <ele>207.38200378418</ele>
        <time>2010-11-03T12:37:53Z</time>
      </trkpt>
      <trkpt lat="45.11994" lon="4.98394">
        <ele>207.45199584961</ele>
        <time>2010-11-03T12:37:56Z</time>
      </trkpt>
      <trkpt lat="45.1202" lon="4.98407">
        <ele>208.51800537109</ele>
        <time>2010-11-03T12:38:05Z</time>
      </trkpt>
      <trkpt lat="45.12026" lon="4.98422">
        <ele>209.09199523926</ele>
        <time>2010-11-03T12:38:09Z</time>
      </trkpt>
      <trkpt lat="45.12022" lon="4.98446">
        <ele>209.37800598144</ele>
        <time>2010-11-03T12:38:14Z</time>
      </trkpt>
      <trkpt lat="45.12017" lon="4.98484">
        <ele>209.20899963379</ele>
        <time>2010-11-03T12:38:21Z</time>
      </trkpt>
      <trkpt lat="45.12013" lon="4.9853">
        <ele>208.84199523926</ele>
        <time>2010-11-03T12:38:29Z</time>
      </trkpt>
      <trkpt lat="45.12013" lon="4.98597">
        <ele>208.94599914551</ele>
        <time>2010-11-03T12:38:40Z</time>
      </trkpt>
      <trkpt lat="45.12014" lon="4.98617">
        <ele>208.82400512695</ele>
        <time>2010-11-03T12:38:43Z</time>
      </trkpt>
      <trkpt lat="45.12023" lon="4.98687">
        <ele>208.8450012207</ele>
        <time>2010-11-03T12:38:54Z</time>
      </trkpt>
      <trkpt lat="45.12035" lon="4.98745">
        <ele>208.54600524902</ele>
        <time>2010-11-03T12:39:03Z</time>
      </trkpt>
      <trkpt lat="45.12051" lon="4.98804">
        <ele>209.31700134277</ele>
        <time>2010-11-03T12:39:12Z</time>
      </trkpt>
      <trkpt lat="45.12068" lon="4.9885">
        <ele>209.63299560547</ele>
        <time>2010-11-03T12:39:20Z</time>
      </trkpt>
      <trkpt lat="45.12086" lon="4.9889">
        <ele>210.13200378418</ele>
        <time>2010-11-03T12:39:27Z</time>
      </trkpt>
      <trkpt lat="45.12107" lon="4.98929">
        <ele>210.13000488281</ele>
        <time>2010-11-03T12:39:34Z</time>
      </trkpt>
      <trkpt lat="45.12139" lon="4.98979">
        <ele>211.3450012207</ele>
        <time>2010-11-03T12:39:44Z</time>
      </trkpt>
      <trkpt lat="45.12159" lon="4.99005">
        <ele>212.63999938965</ele>
        <time>2010-11-03T12:39:50Z</time>
      </trkpt>
      <trkpt lat="45.12183" lon="4.99031">
        <ele>214.01600646973</ele>
        <time>2010-11-03T12:39:57Z</time>
      </trkpt>
      <trkpt lat="45.12202" lon="4.99053">
        <ele>215.31399536133</ele>
        <time>2010-11-03T12:40:03Z</time>
      </trkpt>
      <trkpt lat="45.12212" lon="4.99086">
        <ele>215.74800109863</ele>
        <time>2010-11-03T12:40:09Z</time>
      </trkpt>
      <trkpt lat="45.1221" lon="4.991">
        <ele>215.65699768066</ele>
        <time>2010-11-03T12:40:11Z</time>
      </trkpt>
      <trkpt lat="45.1219" lon="4.99176">
        <ele>214.69599914551</ele>
        <time>2010-11-03T12:40:21Z</time>
      </trkpt>
      <trkpt lat="45.12172" lon="4.99244">
        <ele>213.8869934082</ele>
        <time>2010-11-03T12:40:30Z</time>
      </trkpt>
      <trkpt lat="45.12149" lon="4.99329">
        <ele>213.43600463867</ele>
        <time>2010-11-03T12:40:41Z</time>
      </trkpt>
      <trkpt lat="45.1213" lon="4.99397">
        <ele>213.67199707031</ele>
        <time>2010-11-03T12:40:50Z</time>
      </trkpt>
      <trkpt lat="45.12111" lon="4.99449">
        <ele>213.62100219727</ele>
        <time>2010-11-03T12:40:57Z</time>
      </trkpt>
      <trkpt lat="45.12085" lon="4.995">
        <ele>214.69500732422</ele>
        <time>2010-11-03T12:41:05Z</time>
      </trkpt>
      <trkpt lat="45.12053" lon="4.99557">
        <ele>215.86199951172</ele>
        <time>2010-11-03T12:41:15Z</time>
      </trkpt>
      <trkpt lat="45.12024" lon="4.9961">
        <ele>216.02900695801</ele>
        <time>2010-11-03T12:41:24Z</time>
      </trkpt>
      <trkpt lat="45.11988" lon="4.99674">
        <ele>215.93099975586</ele>
        <time>2010-11-03T12:41:34Z</time>
      </trkpt>
      <trkpt lat="45.11941" lon="4.99757">
        <ele>215.77799987793</ele>
        <time>2010-11-03T12:41:47Z</time>
      </trkpt>
      <trkpt lat="45.11906" lon="4.99804">
        <ele>216.83200073242</ele>
        <time>2010-11-03T12:41:56Z</time>
      </trkpt>
      <trkpt lat="45.11875" lon="4.99833">
        <ele>218.96600341797</ele>
        <time>2010-11-03T12:42:04Z</time>
      </trkpt>
      <trkpt lat="45.1184" lon="4.99856">
        <ele>220.88400268555</ele>
        <time>2010-11-03T12:42:13Z</time>
      </trkpt>
      <trkpt lat="45.11799" lon="4.99873">
        <ele>223.5119934082</ele>
        <time>2010-11-03T12:42:23Z</time>
      </trkpt>
      <trkpt lat="45.11779" lon="4.99881">
        <ele>224.92399597168</ele>
        <time>2010-11-03T12:42:28Z</time>
      </trkpt>
      <trkpt lat="45.11743" lon="4.99894">
        <ele>227.22900390625</ele>
        <time>2010-11-03T12:42:37Z</time>
      </trkpt>
      <trkpt lat="45.11708" lon="4.99908">
        <ele>229.86700439453</ele>
        <time>2010-11-03T12:42:46Z</time>
      </trkpt>
      <trkpt lat="45.1167" lon="4.9993">
        <ele>232.32000732422</ele>
        <time>2010-11-03T12:42:56Z</time>
      </trkpt>
      <trkpt lat="45.11636" lon="4.99961">
        <ele>234.90100097656</ele>
        <time>2010-11-03T12:43:06Z</time>
      </trkpt>
      <trkpt lat="45.11606" lon="5.00002">
        <ele>236.66900634766</ele>
        <time>2010-11-03T12:43:16Z</time>
      </trkpt>
      <trkpt lat="45.1157" lon="5.00051">
        <ele>237.94799804688</ele>
        <time>2010-11-03T12:43:27Z</time>
      </trkpt>
      <trkpt lat="45.11532" lon="5.00093">
        <ele>238.93800354004</ele>
        <time>2010-11-03T12:43:37Z</time>
      </trkpt>
      <trkpt lat="45.1148" lon="5.00144">
        <ele>238.87600708008</ele>
        <time>2010-11-03T12:43:49Z</time>
      </trkpt>
      <trkpt lat="45.11449" lon="5.00174">
        <ele>238.90800476074</ele>
        <time>2010-11-03T12:43:56Z</time>
      </trkpt>
      <trkpt lat="45.11398" lon="5.00221">
        <ele>239.17100524902</ele>
        <time>2010-11-03T12:44:07Z</time>
      </trkpt>
      <trkpt lat="45.11331" lon="5.00282">
        <ele>239.49000549316</ele>
        <time>2010-11-03T12:44:21Z</time>
      </trkpt>
      <trkpt lat="45.11282" lon="5.00318">
        <ele>240.80000305176</ele>
        <time>2010-11-03T12:44:31Z</time>
      </trkpt>
      <trkpt lat="45.11236" lon="5.00343">
        <ele>242.56100463867</ele>
        <time>2010-11-03T12:44:41Z</time>
      </trkpt>
      <trkpt lat="45.11183" lon="5.0037">
        <ele>244.8390045166</ele>
        <time>2010-11-03T12:44:53Z</time>
      </trkpt>
      <trkpt lat="45.11128" lon="5.00398">
        <ele>247.40699768066</ele>
        <time>2010-11-03T12:45:06Z</time>
      </trkpt>
      <trkpt lat="45.11086" lon="5.00423">
        <ele>250.08799743652</ele>
        <time>2010-11-03T12:45:17Z</time>
      </trkpt>
      <trkpt lat="45.11039" lon="5.00452">
        <ele>252.82699584961</ele>
        <time>2010-11-03T12:45:29Z</time>
      </trkpt>
      <trkpt lat="45.11005" lon="5.00476">
        <ele>254.76100158691</ele>
        <time>2010-11-03T12:45:38Z</time>
      </trkpt>
      <trkpt lat="45.10959" lon="5.00511">
        <ele>257.0419921875</ele>
        <time>2010-11-03T12:45:50Z</time>
      </trkpt>
      <trkpt lat="45.10926" lon="5.00535">
        <ele>257.94100952148</ele>
        <time>2010-11-03T12:45:58Z</time>
      </trkpt>
      <trkpt lat="45.10884" lon="5.00555">
        <ele>257.30099487305</ele>
        <time>2010-11-03T12:46:06Z</time>
      </trkpt>
      <trkpt lat="45.10843" lon="5.00567">
        <ele>255.80400085449</ele>
        <time>2010-11-03T12:46:12Z</time>
      </trkpt>
      <trkpt lat="45.10802" lon="5.00572">
        <ele>253.4049987793</ele>
        <time>2010-11-03T12:46:17Z</time>
      </trkpt>
      <trkpt lat="45.10774" lon="5.00576">
        <ele>251.65800476074</ele>
        <time>2010-11-03T12:46:20Z</time>
      </trkpt>
      <trkpt lat="45.10765" lon="5.00577">
        <ele>251.32499694824</ele>
        <time>2010-11-03T12:46:21Z</time>
      </trkpt>
      <trkpt lat="45.10703" lon="5.00589">
        <ele>247.61000061035</ele>
        <time>2010-11-03T12:46:27Z</time>
      </trkpt>
      <trkpt lat="45.10671" lon="5.00599">
        <ele>246.06700134277</ele>
        <time>2010-11-03T12:46:30Z</time>
      </trkpt>
      <trkpt lat="45.1061" lon="5.00632">
        <ele>242.33700561523</ele>
        <time>2010-11-03T12:46:36Z</time>
      </trkpt>
      <trkpt lat="45.10579" lon="5.00656">
        <ele>240.63999938965</ele>
        <time>2010-11-03T12:46:40Z</time>
      </trkpt>
      <trkpt lat="45.10558" lon="5.00674">
        <ele>238.14799499512</ele>
        <time>2010-11-03T12:46:44Z</time>
      </trkpt>
      <trkpt lat="45.10542" lon="5.00687">
        <ele>236.93099975586</ele>
        <time>2010-11-03T12:46:48Z</time>
      </trkpt>
      <trkpt lat="45.1053" lon="5.00696">
        <ele>236.13800048828</ele>
        <time>2010-11-03T12:46:53Z</time>
      </trkpt>
      <trkpt lat="45.10526" lon="5.00699">
        <ele>235.75900268555</ele>
        <time>2010-11-03T12:46:58Z</time>
      </trkpt>
      <trkpt lat="45.10518" lon="5.00707">
        <ele>235.33599853516</ele>
        <time>2010-11-03T12:47:51Z</time>
      </trkpt>
      <trkpt lat="45.10497" lon="5.00724">
        <ele>234.64399719238</ele>
        <time>2010-11-03T12:47:57Z</time>
      </trkpt>
      <trkpt lat="45.10462" lon="5.00753">
        <ele>234.06300354004</ele>
        <time>2010-11-03T12:48:04Z</time>
      </trkpt>
      <trkpt lat="45.10415" lon="5.0079">
        <ele>233.34100341797</ele>
        <time>2010-11-03T12:48:12Z</time>
      </trkpt>
      <trkpt lat="45.10382" lon="5.00816">
        <ele>233.20500183106</ele>
        <time>2010-11-03T12:48:18Z</time>
      </trkpt>
      <trkpt lat="45.1034" lon="5.00849">
        <ele>233.41299438477</ele>
        <time>2010-11-03T12:48:26Z</time>
      </trkpt>
      <trkpt lat="45.10314" lon="5.00871">
        <ele>234.06100463867</ele>
        <time>2010-11-03T12:48:31Z</time>
      </trkpt>
      <trkpt lat="45.10276" lon="5.00902">
        <ele>234.90899658203</ele>
        <time>2010-11-03T12:48:38Z</time>
      </trkpt>
      <trkpt lat="45.10236" lon="5.00938">
        <ele>235.98300170898</ele>
        <time>2010-11-03T12:48:46Z</time>
      </trkpt>
      <trkpt lat="45.10204" lon="5.00973">
        <ele>236.68099975586</ele>
        <time>2010-11-03T12:48:53Z</time>
      </trkpt>
      <trkpt lat="45.1016" lon="5.01038">
        <ele>237.39700317383</ele>
        <time>2010-11-03T12:49:04Z</time>
      </trkpt>
      <trkpt lat="45.1012" lon="5.01104">
        <ele>238.85299682617</ele>
        <time>2010-11-03T12:49:15Z</time>
      </trkpt>
      <trkpt lat="45.10095" lon="5.01158">
        <ele>239.43699645996</ele>
        <time>2010-11-03T12:49:23Z</time>
      </trkpt>
      <trkpt lat="45.1008" lon="5.01221">
        <ele>239.63000488281</ele>
        <time>2010-11-03T12:49:31Z</time>
      </trkpt>
      <trkpt lat="45.10072" lon="5.0129">
        <ele>239.85699462891</ele>
        <time>2010-11-03T12:49:39Z</time>
      </trkpt>
      <trkpt lat="45.10064" lon="5.014">
        <ele>239.71499633789</ele>
        <time>2010-11-03T12:49:51Z</time>
      </trkpt>
      <trkpt lat="45.10052" lon="5.0155">
        <ele>238.9049987793</ele>
        <time>2010-11-03T12:50:07Z</time>
      </trkpt>
      <trkpt lat="45.10041" lon="5.01643">
        <ele>238.69500732422</ele>
        <time>2010-11-03T12:50:17Z</time>
      </trkpt>
      <trkpt lat="45.10023" lon="5.01714">
        <ele>238.35200500488</ele>
        <time>2010-11-03T12:50:25Z</time>
      </trkpt>
      <trkpt lat="45.09996" lon="5.01791">
        <ele>239.29899597168</ele>
        <time>2010-11-03T12:50:35Z</time>
      </trkpt>
      <trkpt lat="45.09969" lon="5.01868">
        <ele>241.08599853516</ele>
        <time>2010-11-03T12:50:46Z</time>
      </trkpt>
      <trkpt lat="45.09953" lon="5.01914">
        <ele>242.48500061035</ele>
        <time>2010-11-03T12:50:53Z</time>
      </trkpt>
      <trkpt lat="45.0994" lon="5.01954">
        <ele>243.85499572754</ele>
        <time>2010-11-03T12:50:59Z</time>
      </trkpt>
      <trkpt lat="45.09911" lon="5.02035">
        <ele>245.79899597168</ele>
        <time>2010-11-03T12:51:11Z</time>
      </trkpt>
      <trkpt lat="45.09898" lon="5.02073">
        <ele>247.14599609375</ele>
        <time>2010-11-03T12:51:17Z</time>
      </trkpt>
      <trkpt lat="45.09872" lon="5.02149">
        <ele>250.12300109863</ele>
        <time>2010-11-03T12:51:29Z</time>
      </trkpt>
      <trkpt lat="45.09854" lon="5.02198">
        <ele>252.40100097656</ele>
        <time>2010-11-03T12:51:37Z</time>
      </trkpt>
      <trkpt lat="45.09848" lon="5.02215">
        <ele>253.5890045166</ele>
        <time>2010-11-03T12:51:40Z</time>
      </trkpt>
      <trkpt lat="45.0984" lon="5.02243">
        <ele>255.00900268555</ele>
        <time>2010-11-03T12:51:45Z</time>
      </trkpt>
      <trkpt lat="45.09838" lon="5.02255">
        <ele>255.50500488281</ele>
        <time>2010-11-03T12:51:47Z</time>
      </trkpt>
      <trkpt lat="45.09843" lon="5.023">
        <ele>257.60501098633</ele>
        <time>2010-11-03T12:51:54Z</time>
      </trkpt>
      <trkpt lat="45.09856" lon="5.02354">
        <ele>260.07299804688</ele>
        <time>2010-11-03T12:52:03Z</time>
      </trkpt>
      <trkpt lat="45.09871" lon="5.02408">
        <ele>260.875</ele>
        <time>2010-11-03T12:52:12Z</time>
      </trkpt>
      <trkpt lat="45.09888" lon="5.02454">
        <ele>259.5830078125</ele>
        <time>2010-11-03T12:52:18Z</time>
      </trkpt>
      <trkpt lat="45.09907" lon="5.02502">
        <ele>257.38101196289</ele>
        <time>2010-11-03T12:52:23Z</time>
      </trkpt>
      <trkpt lat="45.09917" lon="5.02522">
        <ele>256.56900024414</ele>
        <time>2010-11-03T12:52:25Z</time>
      </trkpt>
      <trkpt lat="45.09938" lon="5.0255">
        <ele>255.31799316406</ele>
        <time>2010-11-03T12:52:28Z</time>
      </trkpt>
      <trkpt lat="45.09946" lon="5.0256">
        <ele>254.63999938965</ele>
        <time>2010-11-03T12:52:29Z</time>
      </trkpt>
      <trkpt lat="45.0997" lon="5.02612">
        <ele>252.35000610352</ele>
        <time>2010-11-03T12:52:33Z</time>
      </trkpt>
      <trkpt lat="45.09975" lon="5.02627">
        <ele>251.57699584961</ele>
        <time>2010-11-03T12:52:34Z</time>
      </trkpt>
      <trkpt lat="45.10001" lon="5.02678">
        <ele>248.23500061035</ele>
        <time>2010-11-03T12:52:38Z</time>
      </trkpt>
      <trkpt lat="45.10028" lon="5.02709">
        <ele>245.88600158691</ele>
        <time>2010-11-03T12:52:41Z</time>
      </trkpt>
      <trkpt lat="45.10046" lon="5.02733">
        <ele>244.70599365234</ele>
        <time>2010-11-03T12:52:43Z</time>
      </trkpt>
      <trkpt lat="45.10058" lon="5.02779">
        <ele>242.60899353027</ele>
        <time>2010-11-03T12:52:46Z</time>
      </trkpt>
      <trkpt lat="45.10053" lon="5.02808">
        <ele>240.53999328613</ele>
        <time>2010-11-03T12:52:48Z</time>
      </trkpt>
      <trkpt lat="45.10039" lon="5.02833">
        <ele>238.01400756836</ele>
        <time>2010-11-03T12:52:51Z</time>
      </trkpt>
      <trkpt lat="45.10035" lon="5.02846">
        <ele>237.01499938965</ele>
        <time>2010-11-03T12:52:53Z</time>
      </trkpt>
      <trkpt lat="45.10037" lon="5.02857">
        <ele>236.74200439453</ele>
        <time>2010-11-03T12:52:55Z</time>
      </trkpt>
      <trkpt lat="45.10036" lon="5.02901">
        <ele>234.84800720215</ele>
        <time>2010-11-03T12:53:02Z</time>
      </trkpt>
      <trkpt lat="45.10022" lon="5.02949">
        <ele>232.91999816894</ele>
        <time>2010-11-03T12:53:08Z</time>
      </trkpt>
      <trkpt lat="45.10005" lon="5.03009">
        <ele>230.46200561523</ele>
        <time>2010-11-03T12:53:14Z</time>
      </trkpt>
      <trkpt lat="45.0998" lon="5.03098">
        <ele>227.27600097656</ele>
        <time>2010-11-03T12:53:22Z</time>
      </trkpt>
      <trkpt lat="45.09949" lon="5.03207">
        <ele>225.63999938965</ele>
        <time>2010-11-03T12:53:32Z</time>
      </trkpt>
      <trkpt lat="45.09933" lon="5.03264">
        <ele>223.89300537109</ele>
        <time>2010-11-03T12:53:37Z</time>
      </trkpt>
      <trkpt lat="45.09916" lon="5.03326">
        <ele>221.11199951172</ele>
        <time>2010-11-03T12:53:42Z</time>
      </trkpt>
      <trkpt lat="45.09898" lon="5.0339">
        <ele>218.55799865723</ele>
        <time>2010-11-03T12:53:47Z</time>
      </trkpt>
      <trkpt lat="45.09874" lon="5.03449">
        <ele>217.24000549316</ele>
        <time>2010-11-03T12:53:52Z</time>
      </trkpt>
      <trkpt lat="45.09846" lon="5.03493">
        <ele>217.70300292969</ele>
        <time>2010-11-03T12:53:57Z</time>
      </trkpt>
      <trkpt lat="45.0981" lon="5.03546">
        <ele>218.5</ele>
        <time>2010-11-03T12:54:04Z</time>
      </trkpt>
      <trkpt lat="45.09793" lon="5.03575">
        <ele>218.88600158691</ele>
        <time>2010-11-03T12:54:08Z</time>
      </trkpt>
      <trkpt lat="45.0979" lon="5.03583">
        <ele>218.97500610352</ele>
        <time>2010-11-03T12:54:09Z</time>
      </trkpt>
      <trkpt lat="45.09783" lon="5.03607">
        <ele>219.39500427246</ele>
        <time>2010-11-03T12:54:12Z</time>
      </trkpt>
      <trkpt lat="45.09781" lon="5.03632">
        <ele>219.67599487305</ele>
        <time>2010-11-03T12:54:15Z</time>
      </trkpt>
      <trkpt lat="45.09787" lon="5.03692">
        <ele>219.01600646973</ele>
        <time>2010-11-03T12:54:22Z</time>
      </trkpt>
      <trkpt lat="45.09799" lon="5.03762">
        <ele>217.06599426269</ele>
        <time>2010-11-03T12:54:29Z</time>
      </trkpt>
      <trkpt lat="45.09816" lon="5.03825">
        <ele>216.25300598144</ele>
        <time>2010-11-03T12:54:35Z</time>
      </trkpt>
      <trkpt lat="45.09841" lon="5.0389">
        <ele>216.1549987793</ele>
        <time>2010-11-03T12:54:42Z</time>
      </trkpt>
      <trkpt lat="45.09858" lon="5.03933">
        <ele>215.42100524902</ele>
        <time>2010-11-03T12:54:47Z</time>
      </trkpt>
      <trkpt lat="45.09865" lon="5.0395">
        <ele>215.27699279785</ele>
        <time>2010-11-03T12:54:49Z</time>
      </trkpt>
      <trkpt lat="45.09877" lon="5.03986">
        <ele>215.25999450684</ele>
        <time>2010-11-03T12:54:53Z</time>
      </trkpt>
      <trkpt lat="45.09879" lon="5.04035">
        <ele>215.29200744629</ele>
        <time>2010-11-03T12:54:58Z</time>
      </trkpt>
      <trkpt lat="45.09878" lon="5.04044">
        <ele>215.2619934082</ele>
        <time>2010-11-03T12:54:59Z</time>
      </trkpt>
      <trkpt lat="45.0986" lon="5.04119">
        <ele>214.99899291992</ele>
        <time>2010-11-03T12:55:07Z</time>
      </trkpt>
      <trkpt lat="45.0984" lon="5.0416">
        <ele>215.13000488281</ele>
        <time>2010-11-03T12:55:12Z</time>
      </trkpt>
      <trkpt lat="45.09783" lon="5.04219">
        <ele>215.79100036621</ele>
        <time>2010-11-03T12:55:22Z</time>
      </trkpt>
      <trkpt lat="45.09739" lon="5.04264">
        <ele>216.5059967041</ele>
        <time>2010-11-03T12:55:30Z</time>
      </trkpt>
      <trkpt lat="45.0968" lon="5.04323">
        <ele>217.70799255371</ele>
        <time>2010-11-03T12:55:41Z</time>
      </trkpt>
      <trkpt lat="45.09654" lon="5.04363">
        <ele>218.43600463867</ele>
        <time>2010-11-03T12:55:47Z</time>
      </trkpt>
      <trkpt lat="45.09638" lon="5.04401">
        <ele>218.73899841309</ele>
        <time>2010-11-03T12:55:52Z</time>
      </trkpt>
      <trkpt lat="45.09615" lon="5.04476">
        <ele>217.17500305176</ele>
        <time>2010-11-03T12:56:01Z</time>
      </trkpt>
      <trkpt lat="45.0961" lon="5.04505">
        <ele>216.46000671387</ele>
        <time>2010-11-03T12:56:04Z</time>
      </trkpt>
      <trkpt lat="45.09595" lon="5.04541">
        <ele>215.52400207519</ele>
        <time>2010-11-03T12:56:08Z</time>
      </trkpt>
      <trkpt lat="45.09572" lon="5.04584">
        <ele>214.08299255371</ele>
        <time>2010-11-03T12:56:13Z</time>
      </trkpt>
      <trkpt lat="45.09546" lon="5.04609">
        <ele>213.25</ele>
        <time>2010-11-03T12:56:17Z</time>
      </trkpt>
      <trkpt lat="45.09532" lon="5.04618">
        <ele>212.8809967041</ele>
        <time>2010-11-03T12:56:19Z</time>
      </trkpt>
      <trkpt lat="45.09525" lon="5.04623">
        <ele>212.79200744629</ele>
        <time>2010-11-03T12:56:20Z</time>
      </trkpt>
      <trkpt lat="45.09489" lon="5.04641">
        <ele>211.94299316406</ele>
        <time>2010-11-03T12:56:25Z</time>
      </trkpt>
      <trkpt lat="45.09424" lon="5.0467">
        <ele>210.39900207519</ele>
        <time>2010-11-03T12:56:34Z</time>
      </trkpt>
      <trkpt lat="45.09374" lon="5.04696">
        <ele>209.35299682617</ele>
        <time>2010-11-03T12:56:41Z</time>
      </trkpt>
      <trkpt lat="45.09367" lon="5.047">
        <ele>209.04899597168</ele>
        <time>2010-11-03T12:56:42Z</time>
      </trkpt>
      <trkpt lat="45.0932" lon="5.04739">
        <ele>207.5119934082</ele>
        <time>2010-11-03T12:56:49Z</time>
      </trkpt>
      <trkpt lat="45.09303" lon="5.04759">
        <ele>207.31300354004</ele>
        <time>2010-11-03T12:56:52Z</time>
      </trkpt>
      <trkpt lat="45.09297" lon="5.04797">
        <ele>206.77000427246</ele>
        <time>2010-11-03T12:56:56Z</time>
      </trkpt>
      <trkpt lat="45.09296" lon="5.04848">
        <ele>206.85200500488</ele>
        <time>2010-11-03T12:57:02Z</time>
      </trkpt>
      <trkpt lat="45.09293" lon="5.04881">
        <ele>206.68200683594</ele>
        <time>2010-11-03T12:57:06Z</time>
      </trkpt>
      <trkpt lat="45.09279" lon="5.04916">
        <ele>207.45599365234</ele>
        <time>2010-11-03T12:57:11Z</time>
      </trkpt>
      <trkpt lat="45.09252" lon="5.04955">
        <ele>208.71699523926</ele>
        <time>2010-11-03T12:57:18Z</time>
      </trkpt>
      <trkpt lat="45.09248" lon="5.0496">
        <ele>209.02000427246</ele>
        <time>2010-11-03T12:57:19Z</time>
      </trkpt>
      <trkpt lat="45.09236" lon="5.04985">
        <ele>209.73699951172</ele>
        <time>2010-11-03T12:57:23Z</time>
      </trkpt>
      <trkpt lat="45.09232" lon="5.05006">
        <ele>210.31399536133</ele>
        <time>2010-11-03T12:57:26Z</time>
      </trkpt>
      <trkpt lat="45.09238" lon="5.05049">
        <ele>211.32200622559</ele>
        <time>2010-11-03T12:57:32Z</time>
      </trkpt>
      <trkpt lat="45.09247" lon="5.05075">
        <ele>212.05799865723</ele>
        <time>2010-11-03T12:57:36Z</time>
      </trkpt>
      <trkpt lat="45.09277" lon="5.05142">
        <ele>213.75300598144</ele>
        <time>2010-11-03T12:57:47Z</time>
      </trkpt>
      <trkpt lat="45.09305" lon="5.05192">
        <ele>213.72799682617</ele>
        <time>2010-11-03T12:57:55Z</time>
      </trkpt>
      <trkpt lat="45.09351" lon="5.0527">
        <ele>213.13499450684</ele>
        <time>2010-11-03T12:58:07Z</time>
      </trkpt>
      <trkpt lat="45.09376" lon="5.05315">
        <ele>213.27299499512</ele>
        <time>2010-11-03T12:58:14Z</time>
      </trkpt>
      <trkpt lat="45.09394" lon="5.05353">
        <ele>213.45700073242</ele>
        <time>2010-11-03T12:58:20Z</time>
      </trkpt>
      <trkpt lat="45.09412" lon="5.05409">
        <ele>213.7140045166</ele>
        <time>2010-11-03T12:58:28Z</time>
      </trkpt>
      <trkpt lat="45.09422" lon="5.05473">
        <ele>213.95799255371</ele>
        <time>2010-11-03T12:58:36Z</time>
      </trkpt>
      <trkpt lat="45.09429" lon="5.05567">
        <ele>214.53399658203</ele>
        <time>2010-11-03T12:58:47Z</time>
      </trkpt>
      <trkpt lat="45.09429" lon="5.05634">
        <ele>214.90899658203</ele>
        <time>2010-11-03T12:58:55Z</time>
      </trkpt>
      <trkpt lat="45.09422" lon="5.05696">
        <ele>214.19000244141</ele>
        <time>2010-11-03T12:59:02Z</time>
      </trkpt>
      <trkpt lat="45.09407" lon="5.05781">
        <ele>213.25300598144</ele>
        <time>2010-11-03T12:59:11Z</time>
      </trkpt>
      <trkpt lat="45.09383" lon="5.05869">
        <ele>213.23399353027</ele>
        <time>2010-11-03T12:59:21Z</time>
      </trkpt>
      <trkpt lat="45.09373" lon="5.05941">
        <ele>212.64199829102</ele>
        <time>2010-11-03T12:59:29Z</time>
      </trkpt>
      <trkpt lat="45.09365" lon="5.06032">
        <ele>213.08000183106</ele>
        <time>2010-11-03T12:59:39Z</time>
      </trkpt>
      <trkpt lat="45.09362" lon="5.06115">
        <ele>213.32600402832</ele>
        <time>2010-11-03T12:59:48Z</time>
      </trkpt>
      <trkpt lat="45.09364" lon="5.06206">
        <ele>214.12100219727</ele>
        <time>2010-11-03T12:59:58Z</time>
      </trkpt>
      <trkpt lat="45.09365" lon="5.06232">
        <ele>214.43099975586</ele>
        <time>2010-11-03T13:00:01Z</time>
      </trkpt>
      <trkpt lat="45.09366" lon="5.06326">
        <ele>215.72700500488</ele>
        <time>2010-11-03T13:00:12Z</time>
      </trkpt>
      <trkpt lat="45.09369" lon="5.06404">
        <ele>216.18600463867</ele>
        <time>2010-11-03T13:00:21Z</time>
      </trkpt>
      <trkpt lat="45.09373" lon="5.06495">
        <ele>216.63200378418</ele>
        <time>2010-11-03T13:00:31Z</time>
      </trkpt>
      <trkpt lat="45.09377" lon="5.06577">
        <ele>217.33000183106</ele>
        <time>2010-11-03T13:00:40Z</time>
      </trkpt>
      <trkpt lat="45.09369" lon="5.06658">
        <ele>218.02799987793</ele>
        <time>2010-11-03T13:00:49Z</time>
      </trkpt>
      <trkpt lat="45.09362" lon="5.06746">
        <ele>219.06900024414</ele>
        <time>2010-11-03T13:00:59Z</time>
      </trkpt>
      <trkpt lat="45.09365" lon="5.06827">
        <ele>219.70599365234</ele>
        <time>2010-11-03T13:01:08Z</time>
      </trkpt>
      <trkpt lat="45.0937" lon="5.06917">
        <ele>220.37699890137</ele>
        <time>2010-11-03T13:01:18Z</time>
      </trkpt>
      <trkpt lat="45.09375" lon="5.07002">
        <ele>221.93899536133</ele>
        <time>2010-11-03T13:01:28Z</time>
      </trkpt>
      <trkpt lat="45.09381" lon="5.07107">
        <ele>224.03100585938</ele>
        <time>2010-11-03T13:01:41Z</time>
      </trkpt>
      <trkpt lat="45.09381" lon="5.07155">
        <ele>225.05799865723</ele>
        <time>2010-11-03T13:01:47Z</time>
      </trkpt>
      <trkpt lat="45.0937" lon="5.0719">
        <ele>226.0359954834</ele>
        <time>2010-11-03T13:01:52Z</time>
      </trkpt>
      <trkpt lat="45.09356" lon="5.07202">
        <ele>226.34800720215</ele>
        <time>2010-11-03T13:01:55Z</time>
      </trkpt>
      <trkpt lat="45.09345" lon="5.07208">
        <ele>226.35299682617</ele>
        <time>2010-11-03T13:01:57Z</time>
      </trkpt>
      <trkpt lat="45.09327" lon="5.07229">
        <ele>226.05200195312</ele>
        <time>2010-11-03T13:02:01Z</time>
      </trkpt>
      <trkpt lat="45.09295" lon="5.07295">
        <ele>225.15299987793</ele>
        <time>2010-11-03T13:02:09Z</time>
      </trkpt>
      <trkpt lat="45.09266" lon="5.07357">
        <ele>225.1190032959</ele>
        <time>2010-11-03T13:02:17Z</time>
      </trkpt>
      <trkpt lat="45.0924" lon="5.07409">
        <ele>225.65199279785</ele>
        <time>2010-11-03T13:02:24Z</time>
      </trkpt>
      <trkpt lat="45.09206" lon="5.07481">
        <ele>226.54800415039</ele>
        <time>2010-11-03T13:02:34Z</time>
      </trkpt>
      <trkpt lat="45.09168" lon="5.07562">
        <ele>228.3869934082</ele>
        <time>2010-11-03T13:02:46Z</time>
      </trkpt>
      <trkpt lat="45.0913" lon="5.07641">
        <ele>230.02600097656</ele>
        <time>2010-11-03T13:02:58Z</time>
      </trkpt>
      <trkpt lat="45.09106" lon="5.07676">
        <ele>230.90199279785</ele>
        <time>2010-11-03T13:03:04Z</time>
      </trkpt>
      <trkpt lat="45.09066" lon="5.07717">
        <ele>232.15899658203</ele>
        <time>2010-11-03T13:03:13Z</time>
      </trkpt>
      <trkpt lat="45.09021" lon="5.0776">
        <ele>232.9940032959</ele>
        <time>2010-11-03T13:03:23Z</time>
      </trkpt>
      <trkpt lat="45.0899" lon="5.07784">
        <ele>232.29600524902</ele>
        <time>2010-11-03T13:03:29Z</time>
      </trkpt>
      <trkpt lat="45.08974" lon="5.07795">
        <ele>231.91499328613</ele>
        <time>2010-11-03T13:03:32Z</time>
      </trkpt>
      <trkpt lat="45.08953" lon="5.07798">
        <ele>231.58000183106</ele>
        <time>2010-11-03T13:03:36Z</time>
      </trkpt>
      <trkpt lat="45.08941" lon="5.078">
        <ele>232.05799865723</ele>
        <time>2010-11-03T13:03:39Z</time>
      </trkpt>
      <trkpt lat="45.08906" lon="5.07812">
        <ele>233.17300415039</ele>
        <time>2010-11-03T13:03:47Z</time>
      </trkpt>
      <trkpt lat="45.0887" lon="5.07829">
        <ele>234.45599365234</ele>
        <time>2010-11-03T13:03:55Z</time>
      </trkpt>
      <trkpt lat="45.08847" lon="5.07837">
        <ele>236.42599487305</ele>
        <time>2010-11-03T13:04:01Z</time>
      </trkpt>
      <trkpt lat="45.08839" lon="5.07826">
        <ele>237.57299804688</ele>
        <time>2010-11-03T13:04:05Z</time>
      </trkpt>
      <trkpt lat="45.08841" lon="5.07811">
        <ele>238.64300537109</ele>
        <time>2010-11-03T13:04:09Z</time>
      </trkpt>
      <trkpt lat="45.08837" lon="5.07799">
        <ele>239.89900207519</ele>
        <time>2010-11-03T13:04:13Z</time>
      </trkpt>
      <trkpt lat="45.08832" lon="5.07792">
        <ele>240.79899597168</ele>
        <time>2010-11-03T13:04:16Z</time>
      </trkpt>
      <trkpt lat="45.08818" lon="5.07789">
        <ele>242.59800720215</ele>
        <time>2010-11-03T13:04:23Z</time>
      </trkpt>
      <trkpt lat="45.088" lon="5.07794">
        <ele>244.50300598144</ele>
        <time>2010-11-03T13:04:31Z</time>
      </trkpt>
      <trkpt lat="45.08781" lon="5.07798">
        <ele>246.09800720215</ele>
        <time>2010-11-03T13:04:38Z</time>
      </trkpt>
      <trkpt lat="45.08761" lon="5.07802">
        <ele>247.50999450684</ele>
        <time>2010-11-03T13:04:45Z</time>
      </trkpt>
      <trkpt lat="45.08744" lon="5.07802">
        <ele>248.25900268555</ele>
        <time>2010-11-03T13:04:51Z</time>
      </trkpt>
      <trkpt lat="45.08723" lon="5.07793">
        <ele>247.57000732422</ele>
        <time>2010-11-03T13:04:57Z</time>
      </trkpt>
      <trkpt lat="45.08693" lon="5.07779">
        <ele>245.36199951172</ele>
        <time>2010-11-03T13:05:03Z</time>
      </trkpt>
      <trkpt lat="45.08681" lon="5.07773">
        <ele>244.76899719238</ele>
        <time>2010-11-03T13:05:06Z</time>
      </trkpt>
      <trkpt lat="45.08669" lon="5.07786">
        <ele>243.26400756836</ele>
        <time>2010-11-03T13:05:10Z</time>
      </trkpt>
      <trkpt lat="45.08653" lon="5.07799">
        <ele>240.02499389648</ele>
        <time>2010-11-03T13:05:13Z</time>
      </trkpt>
      <trkpt lat="45.08612" lon="5.07811">
        <ele>235.23300170898</ele>
        <time>2010-11-03T13:05:19Z</time>
      </trkpt>
      <trkpt lat="45.08606" lon="5.07812">
        <ele>234.32699584961</ele>
        <time>2010-11-03T13:05:20Z</time>
      </trkpt>
      <trkpt lat="45.086" lon="5.07814">
        <ele>233.32000732422</ele>
        <time>2010-11-03T13:05:21Z</time>
      </trkpt>
      <trkpt lat="45.0857" lon="5.07838">
        <ele>229.4109954834</ele>
        <time>2010-11-03T13:05:26Z</time>
      </trkpt>
      <trkpt lat="45.08534" lon="5.0787">
        <ele>225.04200744629</ele>
        <time>2010-11-03T13:05:31Z</time>
      </trkpt>
      <trkpt lat="45.08505" lon="5.07896">
        <ele>222.15100097656</ele>
        <time>2010-11-03T13:05:35Z</time>
      </trkpt>
      <trkpt lat="45.08492" lon="5.07906">
        <ele>221.22300720215</ele>
        <time>2010-11-03T13:05:37Z</time>
      </trkpt>
      <trkpt lat="45.08486" lon="5.07912">
        <ele>220.73500061035</ele>
        <time>2010-11-03T13:05:38Z</time>
      </trkpt>
      <trkpt lat="45.08468" lon="5.0793">
        <ele>219.64799499512</ele>
        <time>2010-11-03T13:05:41Z</time>
      </trkpt>
      <trkpt lat="45.08432" lon="5.07964">
        <ele>217.86500549316</ele>
        <time>2010-11-03T13:05:47Z</time>
      </trkpt>
      <trkpt lat="45.08414" lon="5.0798">
        <ele>216.55900573731</ele>
        <time>2010-11-03T13:05:51Z</time>
      </trkpt>
      <trkpt lat="45.08403" lon="5.07992">
        <ele>216.20199584961</ele>
        <time>2010-11-03T13:05:54Z</time>
      </trkpt>
      <trkpt lat="45.08397" lon="5.08016">
        <ele>215.51100158691</ele>
        <time>2010-11-03T13:05:58Z</time>
      </trkpt>
      <trkpt lat="45.08396" lon="5.08073">
        <ele>214.34399414062</ele>
        <time>2010-11-03T13:06:05Z</time>
      </trkpt>
      <trkpt lat="45.08397" lon="5.0813">
        <ele>213.06799316406</ele>
        <time>2010-11-03T13:06:12Z</time>
      </trkpt>
      <trkpt lat="45.08392" lon="5.08189">
        <ele>211.55799865723</ele>
        <time>2010-11-03T13:06:19Z</time>
      </trkpt>
      <trkpt lat="45.08385" lon="5.08227">
        <ele>208.89799499512</ele>
        <time>2010-11-03T13:06:24Z</time>
      </trkpt>
      <trkpt lat="45.08376" lon="5.08263">
        <ele>205.37300109863</ele>
        <time>2010-11-03T13:06:28Z</time>
      </trkpt>
      <trkpt lat="45.08349" lon="5.08318">
        <ele>199.05000305176</ele>
        <time>2010-11-03T13:06:34Z</time>
      </trkpt>
      <trkpt lat="45.08335" lon="5.08364">
        <ele>194.58799743652</ele>
        <time>2010-11-03T13:06:39Z</time>
      </trkpt>
      <trkpt lat="45.08332" lon="5.08382">
        <ele>193.2799987793</ele>
        <time>2010-11-03T13:06:42Z</time>
      </trkpt>
      <trkpt lat="45.08322" lon="5.08397">
        <ele>191.99099731445</ele>
        <time>2010-11-03T13:06:46Z</time>
      </trkpt>
      <trkpt lat="45.08289" lon="5.08422">
        <ele>191.08000183106</ele>
        <time>2010-11-03T13:06:54Z</time>
      </trkpt>
      <trkpt lat="45.08284" lon="5.08425">
        <ele>190.90100097656</ele>
        <time>2010-11-03T13:06:55Z</time>
      </trkpt>
      <trkpt lat="45.08242" lon="5.08433">
        <ele>189.92500305176</ele>
        <time>2010-11-03T13:07:02Z</time>
      </trkpt>
      <trkpt lat="45.08194" lon="5.08436">
        <ele>188.72099304199</ele>
        <time>2010-11-03T13:07:10Z</time>
      </trkpt>
      <trkpt lat="45.0817" lon="5.08443">
        <ele>188.15699768066</ele>
        <time>2010-11-03T13:07:15Z</time>
      </trkpt>
      <trkpt lat="45.08162" lon="5.08446">
        <ele>187.92500305176</ele>
        <time>2010-11-03T13:07:18Z</time>
      </trkpt>
      <trkpt lat="45.08154" lon="5.08448">
        <ele>187.88200378418</ele>
        <time>2010-11-03T13:07:25Z</time>
      </trkpt>
      <trkpt lat="45.08146" lon="5.08452">
        <ele>187.85200500488</ele>
        <time>2010-11-03T13:07:39Z</time>
      </trkpt>
      <trkpt lat="45.08143" lon="5.08456">
        <ele>187.69000244141</ele>
        <time>2010-11-03T13:07:40Z</time>
      </trkpt>
      <trkpt lat="45.08118" lon="5.08471">
        <ele>186.6309967041</ele>
        <time>2010-11-03T13:07:45Z</time>
      </trkpt>
      <trkpt lat="45.08112" lon="5.08474">
        <ele>186.4940032959</ele>
        <time>2010-11-03T13:07:46Z</time>
      </trkpt>
      <trkpt lat="45.08074" lon="5.08494">
        <ele>185.70899963379</ele>
        <time>2010-11-03T13:07:52Z</time>
      </trkpt>
      <trkpt lat="45.08037" lon="5.08511">
        <ele>185.37300109863</ele>
        <time>2010-11-03T13:07:58Z</time>
      </trkpt>
      <trkpt lat="45.08012" lon="5.08525">
        <ele>185.05000305176</ele>
        <time>2010-11-03T13:08:04Z</time>
      </trkpt>
      <trkpt lat="45.07988" lon="5.08545">
        <ele>185.8630065918</ele>
        <time>2010-11-03T13:08:11Z</time>
      </trkpt>
      <trkpt lat="45.07974" lon="5.08564">
        <ele>186.29400634766</ele>
        <time>2010-11-03T13:08:15Z</time>
      </trkpt>
      <trkpt lat="45.07952" lon="5.08616">
        <ele>185.39300537109</ele>
        <time>2010-11-03T13:08:22Z</time>
      </trkpt>
      <trkpt lat="45.07949" lon="5.08624">
        <ele>185.22599792481</ele>
        <time>2010-11-03T13:08:23Z</time>
      </trkpt>
      <trkpt lat="45.07936" lon="5.08679">
        <ele>185.4049987793</ele>
        <time>2010-11-03T13:08:30Z</time>
      </trkpt>
      <trkpt lat="45.07929" lon="5.087">
        <ele>185.77699279785</ele>
        <time>2010-11-03T13:08:33Z</time>
      </trkpt>
      <trkpt lat="45.07919" lon="5.08717">
        <ele>185.92799377441</ele>
        <time>2010-11-03T13:08:36Z</time>
      </trkpt>
      <trkpt lat="45.07883" lon="5.08763">
        <ele>185.64900207519</ele>
        <time>2010-11-03T13:08:45Z</time>
      </trkpt>
      <trkpt lat="45.07847" lon="5.08809">
        <ele>185.46600341797</ele>
        <time>2010-11-03T13:08:53Z</time>
      </trkpt>
      <trkpt lat="45.07798" lon="5.08867">
        <ele>184.94700622559</ele>
        <time>2010-11-03T13:09:03Z</time>
      </trkpt>
      <trkpt lat="45.07763" lon="5.08888">
        <ele>184.96499633789</ele>
        <time>2010-11-03T13:09:09Z</time>
      </trkpt>
      <trkpt lat="45.07724" lon="5.089">
        <ele>185.41799926758</ele>
        <time>2010-11-03T13:09:15Z</time>
      </trkpt>
      <trkpt lat="45.07652" lon="5.08921">
        <ele>184.85899353027</ele>
        <time>2010-11-03T13:09:26Z</time>
      </trkpt>
      <trkpt lat="45.07614" lon="5.0894">
        <ele>184.37699890137</ele>
        <time>2010-11-03T13:09:32Z</time>
      </trkpt>
      <trkpt lat="45.07602" lon="5.08949">
        <ele>184.17700195312</ele>
        <time>2010-11-03T13:09:34Z</time>
      </trkpt>
      <trkpt lat="45.07554" lon="5.09">
        <ele>183.63000488281</ele>
        <time>2010-11-03T13:09:43Z</time>
      </trkpt>
      <trkpt lat="45.07513" lon="5.09031">
        <ele>183.53500366211</ele>
        <time>2010-11-03T13:09:50Z</time>
      </trkpt>
      <trkpt lat="45.07452" lon="5.09071">
        <ele>183.30799865723</ele>
        <time>2010-11-03T13:10:00Z</time>
      </trkpt>
      <trkpt lat="45.07399" lon="5.09114">
        <ele>183.02200317383</ele>
        <time>2010-11-03T13:10:09Z</time>
      </trkpt>
      <trkpt lat="45.07353" lon="5.09135">
        <ele>183.01699829102</ele>
        <time>2010-11-03T13:10:16Z</time>
      </trkpt>
      <trkpt lat="45.07272" lon="5.09162">
        <ele>183.06700134277</ele>
        <time>2010-11-03T13:10:28Z</time>
      </trkpt>
      <trkpt lat="45.07199" lon="5.09173">
        <ele>183.33999633789</ele>
        <time>2010-11-03T13:10:39Z</time>
      </trkpt>
      <trkpt lat="45.07139" lon="5.09171">
        <ele>183.74200439453</ele>
        <time>2010-11-03T13:10:48Z</time>
      </trkpt>
      <trkpt lat="45.07072" lon="5.09165">
        <ele>182.93400573731</ele>
        <time>2010-11-03T13:10:58Z</time>
      </trkpt>
      <trkpt lat="45.06995" lon="5.09165">
        <ele>182.45199584961</ele>
        <time>2010-11-03T13:11:09Z</time>
      </trkpt>
      <trkpt lat="45.06913" lon="5.09169">
        <ele>182.19299316406</ele>
        <time>2010-11-03T13:11:21Z</time>
      </trkpt>
      <trkpt lat="45.06853" lon="5.09177">
        <ele>181.6309967041</ele>
        <time>2010-11-03T13:11:30Z</time>
      </trkpt>
      <trkpt lat="45.06793" lon="5.09198">
        <ele>181.33299255371</ele>
        <time>2010-11-03T13:11:39Z</time>
      </trkpt>
      <trkpt lat="45.06703" lon="5.09235">
        <ele>181.37699890137</ele>
        <time>2010-11-03T13:11:53Z</time>
      </trkpt>
      <trkpt lat="45.06633" lon="5.09261">
        <ele>181.22599792481</ele>
        <time>2010-11-03T13:12:04Z</time>
      </trkpt>
      <trkpt lat="45.06585" lon="5.09273">
        <ele>181.47200012207</ele>
        <time>2010-11-03T13:12:12Z</time>
      </trkpt>
      <trkpt lat="45.06548" lon="5.09268">
        <ele>182.67900085449</ele>
        <time>2010-11-03T13:12:19Z</time>
      </trkpt>
      <trkpt lat="45.06537" lon="5.09262">
        <ele>182.5</ele>
        <time>2010-11-03T13:12:23Z</time>
      </trkpt>
      <trkpt lat="45.06522" lon="5.09276">
        <ele>182.36199951172</ele>
        <time>2010-11-03T13:12:28Z</time>
      </trkpt>
      <trkpt lat="45.06513" lon="5.09299">
        <ele>182.42300415039</ele>
        <time>2010-11-03T13:12:32Z</time>
      </trkpt>
      <trkpt lat="45.065" lon="5.09309">
        <ele>182.55499267578</ele>
        <time>2010-11-03T13:12:35Z</time>
      </trkpt>
      <trkpt lat="45.06467" lon="5.09321">
        <ele>181.66999816894</ele>
        <time>2010-11-03T13:12:41Z</time>
      </trkpt>
      <trkpt lat="45.0645" lon="5.09327">
        <ele>181.1309967041</ele>
        <time>2010-11-03T13:12:44Z</time>
      </trkpt>
      <trkpt lat="45.06397" lon="5.09346">
        <ele>181.07699584961</ele>
        <time>2010-11-03T13:12:53Z</time>
      </trkpt>
      <trkpt lat="45.06343" lon="5.09358">
        <ele>180.92100524902</ele>
        <time>2010-11-03T13:13:02Z</time>
      </trkpt>
      <trkpt lat="45.06282" lon="5.09368">
        <ele>180.35699462891</ele>
        <time>2010-11-03T13:13:12Z</time>
      </trkpt>
      <trkpt lat="45.06201" lon="5.0938">
        <ele>180.3809967041</ele>
        <time>2010-11-03T13:13:25Z</time>
      </trkpt>
      <trkpt lat="45.06133" lon="5.09391">
        <ele>180.22399902344</ele>
        <time>2010-11-03T13:13:36Z</time>
      </trkpt>
      <trkpt lat="45.06077" lon="5.09404">
        <ele>180.33700561523</ele>
        <time>2010-11-03T13:13:45Z</time>
      </trkpt>
      <trkpt lat="45.06065" lon="5.0941">
        <ele>180.41200256348</ele>
        <time>2010-11-03T13:13:47Z</time>
      </trkpt>
      <trkpt lat="45.06028" lon="5.09446">
        <ele>180.25700378418</ele>
        <time>2010-11-03T13:13:54Z</time>
      </trkpt>
      <trkpt lat="45.05997" lon="5.09495">
        <ele>180.20599365234</ele>
        <time>2010-11-03T13:14:01Z</time>
      </trkpt>
      <trkpt lat="45.0595" lon="5.09577">
        <ele>179.44400024414</ele>
        <time>2010-11-03T13:14:12Z</time>
      </trkpt>
      <trkpt lat="45.05928" lon="5.09615">
        <ele>179.43800354004</ele>
        <time>2010-11-03T13:14:17Z</time>
      </trkpt>
      <trkpt lat="45.0589" lon="5.09679">
        <ele>179.87300109863</ele>
        <time>2010-11-03T13:14:26Z</time>
      </trkpt>
      <trkpt lat="45.05844" lon="5.09749">
        <ele>180.60800170898</ele>
        <time>2010-11-03T13:14:37Z</time>
      </trkpt>
      <trkpt lat="45.05816" lon="5.09775">
        <ele>179.90400695801</ele>
        <time>2010-11-03T13:14:43Z</time>
      </trkpt>
      <trkpt lat="45.05778" lon="5.09803">
        <ele>180.27600097656</ele>
        <time>2010-11-03T13:14:51Z</time>
      </trkpt>
      <trkpt lat="45.05758" lon="5.09805">
        <ele>180.47300720215</ele>
        <time>2010-11-03T13:14:55Z</time>
      </trkpt>
      <trkpt lat="45.05742" lon="5.09806">
        <ele>180.49600219727</ele>
        <time>2010-11-03T13:14:58Z</time>
      </trkpt>
      <trkpt lat="45.05738" lon="5.09809">
        <ele>180.36999511719</ele>
        <time>2010-11-03T13:14:59Z</time>
      </trkpt>
      <trkpt lat="45.05702" lon="5.09838">
        <ele>179.83799743652</ele>
        <time>2010-11-03T13:15:06Z</time>
      </trkpt>
      <trkpt lat="45.05673" lon="5.09867">
        <ele>180.12300109863</ele>
        <time>2010-11-03T13:15:12Z</time>
      </trkpt>
      <trkpt lat="45.0563" lon="5.09897">
        <ele>180.2380065918</ele>
        <time>2010-11-03T13:15:20Z</time>
      </trkpt>
      <trkpt lat="45.05579" lon="5.09944">
        <ele>180.10400390625</ele>
        <time>2010-11-03T13:15:30Z</time>
      </trkpt>
      <trkpt lat="45.05546" lon="5.09985">
        <ele>180.03199768066</ele>
        <time>2010-11-03T13:15:37Z</time>
      </trkpt>
      <trkpt lat="45.05527" lon="5.1001">
        <ele>179.98899841309</ele>
        <time>2010-11-03T13:15:41Z</time>
      </trkpt>
      <trkpt lat="45.05498" lon="5.10047">
        <ele>180.00300598144</ele>
        <time>2010-11-03T13:15:47Z</time>
      </trkpt>
      <trkpt lat="45.05464" lon="5.10078">
        <ele>179.27699279785</ele>
        <time>2010-11-03T13:15:53Z</time>
      </trkpt>
      <trkpt lat="45.05439" lon="5.10094">
        <ele>179.00199890137</ele>
        <time>2010-11-03T13:15:57Z</time>
      </trkpt>
      <trkpt lat="45.05433" lon="5.10097">
        <ele>178.83799743652</ele>
        <time>2010-11-03T13:15:58Z</time>
      </trkpt>
      <trkpt lat="45.05415" lon="5.10102">
        <ele>178.9700012207</ele>
        <time>2010-11-03T13:16:02Z</time>
      </trkpt>
      <trkpt lat="45.05412" lon="5.10103">
        <ele>178.95899963379</ele>
        <time>2010-11-03T13:16:05Z</time>
      </trkpt>
      <trkpt lat="45.05409" lon="5.10102">
        <ele>178.79499816894</ele>
        <time>2010-11-03T13:16:32Z</time>
      </trkpt>
      <trkpt lat="45.05407" lon="5.10103">
        <ele>178.73100280762</ele>
        <time>2010-11-03T13:16:33Z</time>
      </trkpt>
      <trkpt lat="45.05394" lon="5.10111">
        <ele>178.95799255371</ele>
        <time>2010-11-03T13:16:38Z</time>
      </trkpt>
      <trkpt lat="45.05372" lon="5.10113">
        <ele>179.26600646973</ele>
        <time>2010-11-03T13:16:44Z</time>
      </trkpt>
      <trkpt lat="45.05354" lon="5.10113">
        <ele>179.30700683594</ele>
        <time>2010-11-03T13:16:49Z</time>
      </trkpt>
      <trkpt lat="45.05333" lon="5.10113">
        <ele>178.93499755859</ele>
        <time>2010-11-03T13:16:54Z</time>
      </trkpt>
      <trkpt lat="45.05293" lon="5.10114">
        <ele>177.58099365234</ele>
        <time>2010-11-03T13:17:03Z</time>
      </trkpt>
      <trkpt lat="45.0527" lon="5.1012">
        <ele>177.60299682617</ele>
        <time>2010-11-03T13:17:08Z</time>
      </trkpt>
      <trkpt lat="45.05238" lon="5.10138">
        <ele>177.70399475098</ele>
        <time>2010-11-03T13:17:15Z</time>
      </trkpt>
      <trkpt lat="45.05194" lon="5.1017">
        <ele>177.02299499512</ele>
        <time>2010-11-03T13:17:24Z</time>
      </trkpt>
      <trkpt lat="45.05161" lon="5.102">
        <ele>175.31100463867</ele>
        <time>2010-11-03T13:17:30Z</time>
      </trkpt>
      <trkpt lat="45.05138" lon="5.10222">
        <ele>174.95799255371</ele>
        <time>2010-11-03T13:17:34Z</time>
      </trkpt>
      <trkpt lat="45.05108" lon="5.10254">
        <ele>174.88600158691</ele>
        <time>2010-11-03T13:17:40Z</time>
      </trkpt>
      <trkpt lat="45.05079" lon="5.10283">
        <ele>175.80400085449</ele>
        <time>2010-11-03T13:17:47Z</time>
      </trkpt>
      <trkpt lat="45.0506" lon="5.10284">
        <ele>176.18400573731</ele>
        <time>2010-11-03T13:17:51Z</time>
      </trkpt>
      <trkpt lat="45.05052" lon="5.10275">
        <ele>176.41000366211</ele>
        <time>2010-11-03T13:17:53Z</time>
      </trkpt>
      <trkpt lat="45.05015" lon="5.10218">
        <ele>175.64599609375</ele>
        <time>2010-11-03T13:18:02Z</time>
      </trkpt>
      <trkpt lat="45.04977" lon="5.10169">
        <ele>175.51300048828</ele>
        <time>2010-11-03T13:18:10Z</time>
      </trkpt>
      <trkpt lat="45.04927" lon="5.10109">
        <ele>175.95199584961</ele>
        <time>2010-11-03T13:18:20Z</time>
      </trkpt>
      <trkpt lat="45.04881" lon="5.10049">
        <ele>174.79299926758</ele>
        <time>2010-11-03T13:18:30Z</time>
      </trkpt>
      <trkpt lat="45.04834" lon="5.09987">
        <ele>174.76899719238</ele>
        <time>2010-11-03T13:18:40Z</time>
      </trkpt>
      <trkpt lat="45.04824" lon="5.09976">
        <ele>174.94299316406</ele>
        <time>2010-11-03T13:18:42Z</time>
      </trkpt>
      <trkpt lat="45.04772" lon="5.0993">
        <ele>175.24099731445</ele>
        <time>2010-11-03T13:18:52Z</time>
      </trkpt>
      <trkpt lat="45.0472" lon="5.09889">
        <ele>176.52400207519</ele>
        <time>2010-11-03T13:19:02Z</time>
      </trkpt>
      <trkpt lat="45.04694" lon="5.09861">
        <ele>176.85000610352</ele>
        <time>2010-11-03T13:19:08Z</time>
      </trkpt>
      <trkpt lat="45.04684" lon="5.09845">
        <ele>177.61999511719</ele>
        <time>2010-11-03T13:19:11Z</time>
      </trkpt>
      <trkpt lat="45.0466" lon="5.09789">
        <ele>178.11199951172</ele>
        <time>2010-11-03T13:19:20Z</time>
      </trkpt>
      <trkpt lat="45.04636" lon="5.09722">
        <ele>177.83799743652</ele>
        <time>2010-11-03T13:19:29Z</time>
      </trkpt>
      <trkpt lat="45.04618" lon="5.09668">
        <ele>177.85299682617</ele>
        <time>2010-11-03T13:19:36Z</time>
      </trkpt>
      <trkpt lat="45.04598" lon="5.09606">
        <ele>177.75700378418</ele>
        <time>2010-11-03T13:19:44Z</time>
      </trkpt>
      <trkpt lat="45.04575" lon="5.09542">
        <ele>177.05900573731</ele>
        <time>2010-11-03T13:19:52Z</time>
      </trkpt>
      <trkpt lat="45.04556" lon="5.09484">
        <ele>176.94999694824</ele>
        <time>2010-11-03T13:19:59Z</time>
      </trkpt>
      <trkpt lat="45.04543" lon="5.09415">
        <ele>176.67500305176</ele>
        <time>2010-11-03T13:20:07Z</time>
      </trkpt>
      <trkpt lat="45.04531" lon="5.09351">
        <ele>175.8809967041</ele>
        <time>2010-11-03T13:20:14Z</time>
      </trkpt>
      <trkpt lat="45.0452" lon="5.09297">
        <ele>175.49000549316</ele>
        <time>2010-11-03T13:20:20Z</time>
      </trkpt>
      <trkpt lat="45.04499" lon="5.09213">
        <ele>175.92300415039</ele>
        <time>2010-11-03T13:20:30Z</time>
      </trkpt>
      <trkpt lat="45.04479" lon="5.09139">
        <ele>175.48500061035</ele>
        <time>2010-11-03T13:20:39Z</time>
      </trkpt>
      <trkpt lat="45.04459" lon="5.09055">
        <ele>175.38800048828</ele>
        <time>2010-11-03T13:20:49Z</time>
      </trkpt>
      <trkpt lat="45.04439" lon="5.08982">
        <ele>175.12600708008</ele>
        <time>2010-11-03T13:20:58Z</time>
      </trkpt>
      <trkpt lat="45.04414" lon="5.08911">
        <ele>174.51600646973</ele>
        <time>2010-11-03T13:21:07Z</time>
      </trkpt>
      <trkpt lat="45.04396" lon="5.08861">
        <ele>174.10800170898</ele>
        <time>2010-11-03T13:21:14Z</time>
      </trkpt>
      <trkpt lat="45.0438" lon="5.08798">
        <ele>174.1609954834</ele>
        <time>2010-11-03T13:21:22Z</time>
      </trkpt>
      <trkpt lat="45.04373" lon="5.08756">
        <ele>174.19700622559</ele>
        <time>2010-11-03T13:21:28Z</time>
      </trkpt>
      <trkpt lat="45.04366" lon="5.08692">
        <ele>173.86599731445</ele>
        <time>2010-11-03T13:21:36Z</time>
      </trkpt>
      <trkpt lat="45.04363" lon="5.08639">
        <ele>174.40800476074</ele>
        <time>2010-11-03T13:21:43Z</time>
      </trkpt>
      <trkpt lat="45.04362" lon="5.08617">
        <ele>173.88900756836</ele>
        <time>2010-11-03T13:21:46Z</time>
      </trkpt>
      <trkpt lat="45.0437" lon="5.08591">
        <ele>173.53100585938</ele>
        <time>2010-11-03T13:21:51Z</time>
      </trkpt>
      <trkpt lat="45.0437" lon="5.08579">
        <ele>173.38600158691</ele>
        <time>2010-11-03T13:21:53Z</time>
      </trkpt>
      <trkpt lat="45.04361" lon="5.08525">
        <ele>173.95100402832</ele>
        <time>2010-11-03T13:22:01Z</time>
      </trkpt>
      <trkpt lat="45.04353" lon="5.08463">
        <ele>172.5950012207</ele>
        <time>2010-11-03T13:22:09Z</time>
      </trkpt>
      <trkpt lat="45.04352" lon="5.08455">
        <ele>172.46000671387</ele>
        <time>2010-11-03T13:22:10Z</time>
      </trkpt>
      <trkpt lat="45.04355" lon="5.08421">
        <ele>171.9049987793</ele>
        <time>2010-11-03T13:22:14Z</time>
      </trkpt>
      <trkpt lat="45.04357" lon="5.08412">
        <ele>171.89100646973</ele>
        <time>2010-11-03T13:22:15Z</time>
      </trkpt>
      <trkpt lat="45.04353" lon="5.08377">
        <ele>171.71499633789</ele>
        <time>2010-11-03T13:22:19Z</time>
      </trkpt>
      <trkpt lat="45.04337" lon="5.08362">
        <ele>171.62100219727</ele>
        <time>2010-11-03T13:22:22Z</time>
      </trkpt>
      <trkpt lat="45.04316" lon="5.08367">
        <ele>171.61500549316</ele>
        <time>2010-11-03T13:22:25Z</time>
      </trkpt>
      <trkpt lat="45.04303" lon="5.08389">
        <ele>171.43400573731</ele>
        <time>2010-11-03T13:22:28Z</time>
      </trkpt>
      <trkpt lat="45.04301" lon="5.08418">
        <ele>171.40400695801</ele>
        <time>2010-11-03T13:22:31Z</time>
      </trkpt>
      <trkpt lat="45.04305" lon="5.08444">
        <ele>171.4880065918</ele>
        <time>2010-11-03T13:22:34Z</time>
      </trkpt>
      <trkpt lat="45.04293" lon="5.08465">
        <ele>170.87600708008</ele>
        <time>2010-11-03T13:22:37Z</time>
      </trkpt>
      <trkpt lat="45.0428" lon="5.08475">
        <ele>170.37199401856</ele>
        <time>2010-11-03T13:22:39Z</time>
      </trkpt>
      <trkpt lat="45.04259" lon="5.08513">
        <ele>168.2799987793</ele>
        <time>2010-11-03T13:22:43Z</time>
      </trkpt>
      <trkpt lat="45.04232" lon="5.08575">
        <ele>165.04600524902</ele>
        <time>2010-11-03T13:22:48Z</time>
      </trkpt>
      <trkpt lat="45.04217" lon="5.08597">
        <ele>163.53300476074</ele>
        <time>2010-11-03T13:22:50Z</time>
      </trkpt>
      <trkpt lat="45.04177" lon="5.08628">
        <ele>161.02799987793</ele>
        <time>2010-11-03T13:22:54Z</time>
      </trkpt>
      <trkpt lat="45.04167" lon="5.08632">
        <ele>160.29499816894</ele>
        <time>2010-11-03T13:22:55Z</time>
      </trkpt>
      <trkpt lat="45.04146" lon="5.08639">
        <ele>159.60600280762</ele>
        <time>2010-11-03T13:22:57Z</time>
      </trkpt>
      <trkpt lat="45.04099" lon="5.08652">
        <ele>158.9700012207</ele>
        <time>2010-11-03T13:23:02Z</time>
      </trkpt>
      <trkpt lat="45.04051" lon="5.08666">
        <ele>158.98599243164</ele>
        <time>2010-11-03T13:23:08Z</time>
      </trkpt>
      <trkpt lat="45.04023" lon="5.08673">
        <ele>158.83099365234</ele>
        <time>2010-11-03T13:23:12Z</time>
      </trkpt>
      <trkpt lat="45.03978" lon="5.08686">
        <ele>158.35499572754</ele>
        <time>2010-11-03T13:23:19Z</time>
      </trkpt>
      <trkpt lat="45.03972" lon="5.08688">
        <ele>158.32200622559</ele>
        <time>2010-11-03T13:23:20Z</time>
      </trkpt>
      <trkpt lat="45.03936" lon="5.08699">
        <ele>158.2799987793</ele>
        <time>2010-11-03T13:23:27Z</time>
      </trkpt>
      <trkpt lat="45.03915" lon="5.08704">
        <ele>158.98899841309</ele>
        <time>2010-11-03T13:23:32Z</time>
      </trkpt>
      <trkpt lat="45.03897" lon="5.08704">
        <ele>159.93499755859</ele>
        <time>2010-11-03T13:23:37Z</time>
      </trkpt>
      <trkpt lat="45.03889" lon="5.08704">
        <ele>160.2440032959</ele>
        <time>2010-11-03T13:23:39Z</time>
      </trkpt>
      <trkpt lat="45.03863" lon="5.08698">
        <ele>161.73500061035</ele>
        <time>2010-11-03T13:23:45Z</time>
      </trkpt>
      <trkpt lat="45.03843" lon="5.08693">
        <ele>162.96800231934</ele>
        <time>2010-11-03T13:23:50Z</time>
      </trkpt>
      <trkpt lat="45.03828" lon="5.08689">
        <ele>163.79299926758</ele>
        <time>2010-11-03T13:23:54Z</time>
      </trkpt>
      <trkpt lat="45.038" lon="5.08683">
        <ele>165.12199401856</ele>
        <time>2010-11-03T13:24:01Z</time>
      </trkpt>
      <trkpt lat="45.03771" lon="5.08676">
        <ele>166.07200622559</ele>
        <time>2010-11-03T13:24:08Z</time>
      </trkpt>
      <trkpt lat="45.03749" lon="5.0867">
        <ele>167.00399780273</ele>
        <time>2010-11-03T13:24:13Z</time>
      </trkpt>
      <trkpt lat="45.03715" lon="5.08661">
        <ele>168.42700195312</ele>
        <time>2010-11-03T13:24:21Z</time>
      </trkpt>
      <trkpt lat="45.03682" lon="5.08653">
        <ele>169.26100158691</ele>
        <time>2010-11-03T13:24:28Z</time>
      </trkpt>
      <trkpt lat="45.03628" lon="5.08641">
        <ele>170.25799560547</ele>
        <time>2010-11-03T13:24:39Z</time>
      </trkpt>
      <trkpt lat="45.03592" lon="5.0863">
        <ele>171.04800415039</ele>
        <time>2010-11-03T13:24:47Z</time>
      </trkpt>
      <trkpt lat="45.03569" lon="5.08619">
        <ele>171.2440032959</ele>
        <time>2010-11-03T13:24:53Z</time>
      </trkpt>
      <trkpt lat="45.03564" lon="5.0862">
        <ele>171.59199523926</ele>
        <time>2010-11-03T13:24:57Z</time>
      </trkpt>
      <trkpt lat="45.03558" lon="5.08623">
        <ele>171.69200134277</ele>
        <time>2010-11-03T13:25:12Z</time>
      </trkpt>
      <trkpt lat="45.03553" lon="5.08647">
        <ele>171.86700439453</ele>
        <time>2010-11-03T13:25:17Z</time>
      </trkpt>
      <trkpt lat="45.03548" lon="5.08711">
        <ele>171.83299255371</ele>
        <time>2010-11-03T13:25:26Z</time>
      </trkpt>
      <trkpt lat="45.03545" lon="5.08767">
        <ele>172.03199768066</ele>
        <time>2010-11-03T13:25:33Z</time>
      </trkpt>
      <trkpt lat="45.03537" lon="5.08862">
        <ele>172.39399719238</ele>
        <time>2010-11-03T13:25:44Z</time>
      </trkpt>
      <trkpt lat="45.03531" lon="5.0896">
        <ele>172.16200256348</ele>
        <time>2010-11-03T13:25:55Z</time>
      </trkpt>
      <trkpt lat="45.03524" lon="5.0906">
        <ele>171.44900512695</ele>
        <time>2010-11-03T13:26:06Z</time>
      </trkpt>
      <trkpt lat="45.03517" lon="5.09158">
        <ele>170.58599853516</ele>
        <time>2010-11-03T13:26:16Z</time>
      </trkpt>
      <trkpt lat="45.03511" lon="5.09243">
        <ele>169.22200012207</ele>
        <time>2010-11-03T13:26:24Z</time>
      </trkpt>
      <trkpt lat="45.03505" lon="5.09319">
        <ele>168.05799865723</ele>
        <time>2010-11-03T13:26:31Z</time>
      </trkpt>
      <trkpt lat="45.03503" lon="5.0936">
        <ele>167.73500061035</ele>
        <time>2010-11-03T13:26:35Z</time>
      </trkpt>
      <trkpt lat="45.03485" lon="5.09376">
        <ele>167.58000183106</ele>
        <time>2010-11-03T13:26:39Z</time>
      </trkpt>
      <trkpt lat="45.03468" lon="5.09382">
        <ele>168.78199768066</ele>
        <time>2010-11-03T13:26:43Z</time>
      </trkpt>
      <trkpt lat="45.03435" lon="5.09406">
        <ele>170.17300415039</ele>
        <time>2010-11-03T13:26:52Z</time>
      </trkpt>
      <trkpt lat="45.03431" lon="5.09409">
        <ele>170.28300476074</ele>
        <time>2010-11-03T13:26:53Z</time>
      </trkpt>
      <trkpt lat="45.03424" lon="5.09413">
        <ele>170.73100280762</ele>
        <time>2010-11-03T13:26:55Z</time>
      </trkpt>
      <trkpt lat="45.03397" lon="5.09417">
        <ele>171.13299560547</ele>
        <time>2010-11-03T13:27:01Z</time>
      </trkpt>
      <trkpt lat="45.03392" lon="5.09417">
        <ele>171.1309967041</ele>
        <time>2010-11-03T13:27:02Z</time>
      </trkpt>
      <trkpt lat="45.03383" lon="5.09419">
        <ele>171.30499267578</ele>
        <time>2010-11-03T13:27:04Z</time>
      </trkpt>
      <trkpt lat="45.03346" lon="5.09438">
        <ele>171.95100402832</ele>
        <time>2010-11-03T13:27:12Z</time>
      </trkpt>
      <trkpt lat="45.03306" lon="5.0945">
        <ele>172.84599304199</ele>
        <time>2010-11-03T13:27:20Z</time>
      </trkpt>
      <trkpt lat="45.0327" lon="5.09443">
        <ele>173.15199279785</ele>
        <time>2010-11-03T13:27:27Z</time>
      </trkpt>
      <trkpt lat="45.03223" lon="5.09432">
        <ele>174.06300354004</ele>
        <time>2010-11-03T13:27:36Z</time>
      </trkpt>
      <trkpt lat="45.03217" lon="5.09432">
        <ele>174.09599304199</ele>
        <time>2010-11-03T13:27:37Z</time>
      </trkpt>
      <trkpt lat="45.03175" lon="5.09438">
        <ele>174.75700378418</ele>
        <time>2010-11-03T13:27:45Z</time>
      </trkpt>
      <trkpt lat="45.03118" lon="5.09441">
        <ele>176.03199768066</ele>
        <time>2010-11-03T13:27:56Z</time>
      </trkpt>
      <trkpt lat="45.03097" lon="5.0944">
        <ele>176.48500061035</ele>
        <time>2010-11-03T13:28:01Z</time>
      </trkpt>
      <trkpt lat="45.03095" lon="5.09439">
        <ele>176.49099731445</ele>
        <time>2010-11-03T13:28:02Z</time>
      </trkpt>
      <trkpt lat="45.03091" lon="5.09449">
        <ele>176.2619934082</ele>
        <time>2010-11-03T13:28:06Z</time>
      </trkpt>
      <trkpt lat="45.03091" lon="5.0946">
        <ele>176.45899963379</ele>
        <time>2010-11-03T13:28:09Z</time>
      </trkpt>
      <trkpt lat="45.03091" lon="5.09466">
        <ele>176.50900268555</ele>
        <time>2010-11-03T13:28:11Z</time>
      </trkpt>
      <trkpt lat="45.0309" lon="5.09474">
        <ele>176.5059967041</ele>
        <time>2010-11-03T13:28:14Z</time>
      </trkpt>
      <trkpt lat="45.03089" lon="5.09486">
        <ele>176.73699951172</ele>
        <time>2010-11-03T13:28:18Z</time>
      </trkpt>
      <trkpt lat="45.03088" lon="5.09481">
        <ele>176.74800109863</ele>
        <time>2010-11-03T13:28:21Z</time>
      </trkpt>
      <trkpt lat="45.03092" lon="5.09466">
        <ele>176.62600708008</ele>
        <time>2010-11-03T13:28:26Z</time>
      </trkpt>
      <trkpt lat="45.03093" lon="5.09448">
        <ele>176.44099426269</ele>
        <time>2010-11-03T13:28:30Z</time>
      </trkpt>
      <trkpt lat="45.03098" lon="5.09428">
        <ele>176.16999816894</ele>
        <time>2010-11-03T13:28:34Z</time>
      </trkpt>
      <trkpt lat="45.03099" lon="5.09416">
        <ele>175.93400573731</ele>
        <time>2010-11-03T13:28:36Z</time>
      </trkpt>
      <trkpt lat="45.03104" lon="5.09388">
        <ele>175.47900390625</ele>
        <time>2010-11-03T13:28:41Z</time>
      </trkpt>
      <trkpt lat="45.03105" lon="5.09366">
        <ele>175.11199951172</ele>
        <time>2010-11-03T13:28:45Z</time>
      </trkpt>
      <trkpt lat="45.03094" lon="5.0936">
        <ele>175.07000732422</ele>
        <time>2010-11-03T13:28:48Z</time>
      </trkpt>
      <trkpt lat="45.03073" lon="5.09361">
        <ele>175.41700744629</ele>
        <time>2010-11-03T13:28:53Z</time>
      </trkpt>
      <trkpt lat="45.03034" lon="5.09363">
        <ele>175.72900390625</ele>
        <time>2010-11-03T13:29:01Z</time>
      </trkpt>
      <trkpt lat="45.03001" lon="5.09365">
        <ele>176.25300598144</ele>
        <time>2010-11-03T13:29:08Z</time>
      </trkpt>
      <trkpt lat="45.02968" lon="5.09368">
        <ele>178.5359954834</ele>
        <time>2010-11-03T13:29:16Z</time>
      </trkpt>
      <trkpt lat="45.02952" lon="5.0937">
        <ele>179.73599243164</ele>
        <time>2010-11-03T13:29:21Z</time>
      </trkpt>
      <trkpt lat="45.02945" lon="5.09373">
        <ele>180.21699523926</ele>
        <time>2010-11-03T13:29:23Z</time>
      </trkpt>
      <trkpt lat="45.02922" lon="5.09376">
        <ele>181.57000732422</ele>
        <time>2010-11-03T13:29:29Z</time>
      </trkpt>
      <trkpt lat="45.02905" lon="5.09379">
        <ele>182.99499511719</ele>
        <time>2010-11-03T13:29:34Z</time>
      </trkpt>
      <trkpt lat="45.02886" lon="5.09383">
        <ele>183.86799621582</ele>
        <time>2010-11-03T13:29:39Z</time>
      </trkpt>
      <trkpt lat="45.02851" lon="5.09389">
        <ele>184.70399475098</ele>
        <time>2010-11-03T13:29:47Z</time>
      </trkpt>
      <trkpt lat="45.02833" lon="5.09389">
        <ele>185.18200683594</ele>
        <time>2010-11-03T13:29:51Z</time>
      </trkpt>
      <trkpt lat="45.02811" lon="5.09373">
        <ele>187.64199829102</ele>
        <time>2010-11-03T13:29:57Z</time>
      </trkpt>
      <trkpt lat="45.02808" lon="5.0937">
        <ele>187.91000366211</ele>
        <time>2010-11-03T13:29:58Z</time>
      </trkpt>
      <trkpt lat="45.02792" lon="5.09364">
        <ele>189.35600280762</ele>
        <time>2010-11-03T13:30:03Z</time>
      </trkpt>
      <trkpt lat="45.02764" lon="5.09359">
        <ele>191.53199768066</ele>
        <time>2010-11-03T13:30:11Z</time>
      </trkpt>
      <trkpt lat="45.02742" lon="5.09355">
        <ele>193.71899414062</ele>
        <time>2010-11-03T13:30:18Z</time>
      </trkpt>
      <trkpt lat="45.02723" lon="5.09346">
        <ele>195.34800720215</ele>
        <time>2010-11-03T13:30:24Z</time>
      </trkpt>
      <trkpt lat="45.02699" lon="5.09328">
        <ele>196.55700683594</ele>
        <time>2010-11-03T13:30:32Z</time>
      </trkpt>
      <trkpt lat="45.02678" lon="5.09307">
        <ele>196.97799682617</ele>
        <time>2010-11-03T13:30:39Z</time>
      </trkpt>
      <trkpt lat="45.02658" lon="5.09288">
        <ele>197.05299377441</ele>
        <time>2010-11-03T13:30:45Z</time>
      </trkpt>
      <trkpt lat="45.02626" lon="5.0927">
        <ele>197.33999633789</ele>
        <time>2010-11-03T13:30:53Z</time>
      </trkpt>
      <trkpt lat="45.02617" lon="5.09266">
        <ele>197.36999511719</ele>
        <time>2010-11-03T13:30:55Z</time>
      </trkpt>
      <trkpt lat="45.02589" lon="5.09262">
        <ele>197.57600402832</ele>
        <time>2010-11-03T13:31:01Z</time>
      </trkpt>
      <trkpt lat="45.0255" lon="5.09266">
        <ele>197.79800415039</ele>
        <time>2010-11-03T13:31:09Z</time>
      </trkpt>
      <trkpt lat="45.02538" lon="5.0927">
        <ele>197.74600219727</ele>
        <time>2010-11-03T13:31:13Z</time>
      </trkpt>
      <trkpt lat="45.02518" lon="5.09273">
        <ele>197.77799987793</ele>
        <time>2010-11-03T13:31:16Z</time>
      </trkpt>
      <trkpt lat="45.02504" lon="5.09289">
        <ele>197.78799438477</ele>
        <time>2010-11-03T13:31:20Z</time>
      </trkpt>
      <trkpt lat="45.02504" lon="5.09303">
        <ele>197.59199523926</ele>
        <time>2010-11-03T13:31:22Z</time>
      </trkpt>
      <trkpt lat="45.0251" lon="5.09358">
        <ele>198.31799316406</ele>
        <time>2010-11-03T13:31:31Z</time>
      </trkpt>
      <trkpt lat="45.0251" lon="5.09406">
        <ele>199.71600341797</ele>
        <time>2010-11-03T13:31:39Z</time>
      </trkpt>
      <trkpt lat="45.02509" lon="5.09418">
        <ele>200.10200500488</ele>
        <time>2010-11-03T13:31:41Z</time>
      </trkpt>
      <trkpt lat="45.02494" lon="5.09454">
        <ele>201.47399902344</ele>
        <time>2010-11-03T13:31:48Z</time>
      </trkpt>
      <trkpt lat="45.02465" lon="5.09503">
        <ele>202.17100524902</ele>
        <time>2010-11-03T13:31:58Z</time>
      </trkpt>
      <trkpt lat="45.02437" lon="5.09546">
        <ele>202.66200256348</ele>
        <time>2010-11-03T13:32:07Z</time>
      </trkpt>
      <trkpt lat="45.0241" lon="5.0958">
        <ele>203.26800537109</ele>
        <time>2010-11-03T13:32:15Z</time>
      </trkpt>
      <trkpt lat="45.02387" lon="5.09608">
        <ele>203.59199523926</ele>
        <time>2010-11-03T13:32:22Z</time>
      </trkpt>
      <trkpt lat="45.02363" lon="5.09641">
        <ele>204.31199645996</ele>
        <time>2010-11-03T13:32:29Z</time>
      </trkpt>
      <trkpt lat="45.02336" lon="5.09681">
        <ele>204.72900390625</ele>
        <time>2010-11-03T13:32:37Z</time>
      </trkpt>
      <trkpt lat="45.02308" lon="5.0973">
        <ele>205.37600708008</ele>
        <time>2010-11-03T13:32:46Z</time>
      </trkpt>
      <trkpt lat="45.02287" lon="5.09784">
        <ele>206.22700500488</ele>
        <time>2010-11-03T13:32:55Z</time>
      </trkpt>
      <trkpt lat="45.02277" lon="5.0983">
        <ele>206.98399353027</ele>
        <time>2010-11-03T13:33:02Z</time>
      </trkpt>
      <trkpt lat="45.02274" lon="5.09871">
        <ele>207.5119934082</ele>
        <time>2010-11-03T13:33:08Z</time>
      </trkpt>
      <trkpt lat="45.02269" lon="5.09945">
        <ele>208.41799926758</ele>
        <time>2010-11-03T13:33:19Z</time>
      </trkpt>
      <trkpt lat="45.02267" lon="5.09982">
        <ele>209.07000732422</ele>
        <time>2010-11-03T13:33:25Z</time>
      </trkpt>
      <trkpt lat="45.02266" lon="5.10036">
        <ele>209.89199829102</ele>
        <time>2010-11-03T13:33:33Z</time>
      </trkpt>
      <trkpt lat="45.02262" lon="5.10104">
        <ele>211.03500366211</ele>
        <time>2010-11-03T13:33:43Z</time>
      </trkpt>
      <trkpt lat="45.02258" lon="5.10158">
        <ele>212.07299804688</ele>
        <time>2010-11-03T13:33:51Z</time>
      </trkpt>
      <trkpt lat="45.02253" lon="5.10212">
        <ele>212.92999267578</ele>
        <time>2010-11-03T13:33:59Z</time>
      </trkpt>
      <trkpt lat="45.02239" lon="5.10246">
        <ele>213.43099975586</ele>
        <time>2010-11-03T13:34:05Z</time>
      </trkpt>
      <trkpt lat="45.02236" lon="5.1025">
        <ele>213.52099609375</ele>
        <time>2010-11-03T13:34:06Z</time>
      </trkpt>
      <trkpt lat="45.02197" lon="5.10292">
        <ele>214.125</ele>
        <time>2010-11-03T13:34:16Z</time>
      </trkpt>
      <trkpt lat="45.02162" lon="5.10329">
        <ele>214.72500610352</ele>
        <time>2010-11-03T13:34:25Z</time>
      </trkpt>
      <trkpt lat="45.02135" lon="5.10361">
        <ele>215.3390045166</ele>
        <time>2010-11-03T13:34:32Z</time>
      </trkpt>
      <trkpt lat="45.02105" lon="5.10398">
        <ele>215.76800537109</ele>
        <time>2010-11-03T13:34:40Z</time>
      </trkpt>
      <trkpt lat="45.02091" lon="5.10417">
        <ele>216.0890045166</ele>
        <time>2010-11-03T13:34:44Z</time>
      </trkpt>
      <trkpt lat="45.02074" lon="5.10422">
        <ele>216.64599609375</ele>
        <time>2010-11-03T13:34:48Z</time>
      </trkpt>
      <trkpt lat="45.02066" lon="5.10416">
        <ele>216.71299743652</ele>
        <time>2010-11-03T13:34:50Z</time>
      </trkpt>
      <trkpt lat="45.02042" lon="5.10388">
        <ele>217.83099365234</ele>
        <time>2010-11-03T13:34:57Z</time>
      </trkpt>
      <trkpt lat="45.02024" lon="5.10366">
        <ele>219.14100646973</ele>
        <time>2010-11-03T13:35:03Z</time>
      </trkpt>
      <trkpt lat="45.01994" lon="5.10339">
        <ele>221.19000244141</ele>
        <time>2010-11-03T13:35:12Z</time>
      </trkpt>
      <trkpt lat="45.01974" lon="5.10326">
        <ele>222.87300109863</ele>
        <time>2010-11-03T13:35:18Z</time>
      </trkpt>
      <trkpt lat="45.01955" lon="5.10315">
        <ele>225.19400024414</ele>
        <time>2010-11-03T13:35:24Z</time>
      </trkpt>
      <trkpt lat="45.01934" lon="5.10301">
        <ele>226.60800170898</ele>
        <time>2010-11-03T13:35:30Z</time>
      </trkpt>
      <trkpt lat="45.01923" lon="5.10294">
        <ele>227.375</ele>
        <time>2010-11-03T13:35:33Z</time>
      </trkpt>
      <trkpt lat="45.01895" lon="5.10274">
        <ele>229.66700744629</ele>
        <time>2010-11-03T13:35:41Z</time>
      </trkpt>
      <trkpt lat="45.01882" lon="5.10267">
        <ele>231.06500244141</ele>
        <time>2010-11-03T13:35:45Z</time>
      </trkpt>
      <trkpt lat="45.01859" lon="5.10266">
        <ele>232.61000061035</ele>
        <time>2010-11-03T13:35:50Z</time>
      </trkpt>
      <trkpt lat="45.01834" lon="5.10272">
        <ele>234.54800415039</ele>
        <time>2010-11-03T13:35:55Z</time>
      </trkpt>
      <trkpt lat="45.01799" lon="5.10277">
        <ele>236.40800476074</ele>
        <time>2010-11-03T13:36:03Z</time>
      </trkpt>
      <trkpt lat="45.01767" lon="5.10283">
        <ele>237.68099975586</ele>
        <time>2010-11-03T13:36:11Z</time>
      </trkpt>
      <trkpt lat="45.01741" lon="5.10292">
        <ele>238.57699584961</ele>
        <time>2010-11-03T13:36:18Z</time>
      </trkpt>
      <trkpt lat="45.01712" lon="5.10301">
        <ele>237.90199279785</ele>
        <time>2010-11-03T13:36:25Z</time>
      </trkpt>
      <trkpt lat="45.01702" lon="5.10304">
        <ele>237.76600646973</ele>
        <time>2010-11-03T13:36:27Z</time>
      </trkpt>
      <trkpt lat="45.01685" lon="5.10323">
        <ele>237.74499511719</ele>
        <time>2010-11-03T13:36:32Z</time>
      </trkpt>
      <trkpt lat="45.01683" lon="5.10332">
        <ele>237.81399536133</ele>
        <time>2010-11-03T13:36:34Z</time>
      </trkpt>
      <trkpt lat="45.0168" lon="5.10353">
        <ele>237.42399597168</ele>
        <time>2010-11-03T13:36:38Z</time>
      </trkpt>
      <trkpt lat="45.01675" lon="5.10383">
        <ele>236.6609954834</ele>
        <time>2010-11-03T13:36:43Z</time>
      </trkpt>
      <trkpt lat="45.01669" lon="5.10426">
        <ele>234.44999694824</ele>
        <time>2010-11-03T13:36:49Z</time>
      </trkpt>
      <trkpt lat="45.01666" lon="5.10447">
        <ele>233.41299438477</ele>
        <time>2010-11-03T13:36:52Z</time>
      </trkpt>
      <trkpt lat="45.01661" lon="5.10476">
        <ele>232.26499938965</ele>
        <time>2010-11-03T13:36:56Z</time>
      </trkpt>
      <trkpt lat="45.01653" lon="5.10534">
        <ele>230.92700195312</ele>
        <time>2010-11-03T13:37:03Z</time>
      </trkpt>
      <trkpt lat="45.0165" lon="5.10552">
        <ele>230.50500488281</ele>
        <time>2010-11-03T13:37:05Z</time>
      </trkpt>
      <trkpt lat="45.0164" lon="5.1063">
        <ele>228.58599853516</ele>
        <time>2010-11-03T13:37:13Z</time>
      </trkpt>
      <trkpt lat="45.0163" lon="5.10697">
        <ele>227.875</ele>
        <time>2010-11-03T13:37:20Z</time>
      </trkpt>
      <trkpt lat="45.01622" lon="5.10767">
        <ele>227.47099304199</ele>
        <time>2010-11-03T13:37:28Z</time>
      </trkpt>
      <trkpt lat="45.01617" lon="5.10801">
        <ele>227.48199462891</ele>
        <time>2010-11-03T13:37:32Z</time>
      </trkpt>
      <trkpt lat="45.01613" lon="5.1084">
        <ele>228.40299987793</ele>
        <time>2010-11-03T13:37:37Z</time>
      </trkpt>
      <trkpt lat="45.01606" lon="5.10883">
        <ele>229.47200012207</ele>
        <time>2010-11-03T13:37:43Z</time>
      </trkpt>
      <trkpt lat="45.01596" lon="5.10945">
        <ele>231.35299682617</ele>
        <time>2010-11-03T13:37:52Z</time>
      </trkpt>
      <trkpt lat="45.01581" lon="5.10996">
        <ele>231.83000183106</ele>
        <time>2010-11-03T13:38:00Z</time>
      </trkpt>
      <trkpt lat="45.01565" lon="5.11029">
        <ele>232.15600585938</ele>
        <time>2010-11-03T13:38:06Z</time>
      </trkpt>
      <trkpt lat="45.01545" lon="5.11065">
        <ele>232.66400146484</ele>
        <time>2010-11-03T13:38:13Z</time>
      </trkpt>
      <trkpt lat="45.01522" lon="5.11107">
        <ele>233.3630065918</ele>
        <time>2010-11-03T13:38:21Z</time>
      </trkpt>
      <trkpt lat="45.0151" lon="5.11128">
        <ele>233.56500244141</ele>
        <time>2010-11-03T13:38:25Z</time>
      </trkpt>
      <trkpt lat="45.01498" lon="5.11152">
        <ele>233.3809967041</ele>
        <time>2010-11-03T13:38:29Z</time>
      </trkpt>
      <trkpt lat="45.01477" lon="5.112">
        <ele>232.76800537109</ele>
        <time>2010-11-03T13:38:36Z</time>
      </trkpt>
      <trkpt lat="45.01465" lon="5.11251">
        <ele>231.78799438477</ele>
        <time>2010-11-03T13:38:42Z</time>
      </trkpt>
      <trkpt lat="45.01456" lon="5.11308">
        <ele>231.83399963379</ele>
        <time>2010-11-03T13:38:49Z</time>
      </trkpt>
      <trkpt lat="45.01454" lon="5.11352">
        <ele>233.16499328613</ele>
        <time>2010-11-03T13:38:55Z</time>
      </trkpt>
      <trkpt lat="45.01454" lon="5.11366">
        <ele>233.55599975586</ele>
        <time>2010-11-03T13:38:57Z</time>
      </trkpt>
      <trkpt lat="45.01462" lon="5.11417">
        <ele>235.22099304199</ele>
        <time>2010-11-03T13:39:05Z</time>
      </trkpt>
      <trkpt lat="45.01467" lon="5.11441">
        <ele>236.28100585938</ele>
        <time>2010-11-03T13:39:09Z</time>
      </trkpt>
      <trkpt lat="45.01476" lon="5.11483">
        <ele>237.34199523926</ele>
        <time>2010-11-03T13:39:16Z</time>
      </trkpt>
      <trkpt lat="45.01487" lon="5.11518">
        <ele>237.99899291992</ele>
        <time>2010-11-03T13:39:22Z</time>
      </trkpt>
      <trkpt lat="45.015" lon="5.11556">
        <ele>238.48899841309</ele>
        <time>2010-11-03T13:39:29Z</time>
      </trkpt>
      <trkpt lat="45.01519" lon="5.11609">
        <ele>238.92300415039</ele>
        <time>2010-11-03T13:39:38Z</time>
      </trkpt>
      <trkpt lat="45.01541" lon="5.11676">
        <ele>238.82200622559</ele>
        <time>2010-11-03T13:39:48Z</time>
      </trkpt>
      <trkpt lat="45.01553" lon="5.11713">
        <ele>238.30499267578</ele>
        <time>2010-11-03T13:39:53Z</time>
      </trkpt>
      <trkpt lat="45.01564" lon="5.11745">
        <ele>237.54699707031</ele>
        <time>2010-11-03T13:39:57Z</time>
      </trkpt>
      <trkpt lat="45.01572" lon="5.11761">
        <ele>236.96699523926</ele>
        <time>2010-11-03T13:39:59Z</time>
      </trkpt>
      <trkpt lat="45.01601" lon="5.1179">
        <ele>235.4109954834</ele>
        <time>2010-11-03T13:40:04Z</time>
      </trkpt>
      <trkpt lat="45.01625" lon="5.11794">
        <ele>234.43400573731</ele>
        <time>2010-11-03T13:40:07Z</time>
      </trkpt>
      <trkpt lat="45.01675" lon="5.11792">
        <ele>232.13999938965</ele>
        <time>2010-11-03T13:40:13Z</time>
      </trkpt>
      <trkpt lat="45.01718" lon="5.11796">
        <ele>230.43200683594</ele>
        <time>2010-11-03T13:40:18Z</time>
      </trkpt>
      <trkpt lat="45.01751" lon="5.11806">
        <ele>229.50999450684</ele>
        <time>2010-11-03T13:40:22Z</time>
      </trkpt>
      <trkpt lat="45.01758" lon="5.11809">
        <ele>229.55900573731</ele>
        <time>2010-11-03T13:40:23Z</time>
      </trkpt>
      <trkpt lat="45.01765" lon="5.11812">
        <ele>229.59199523926</ele>
        <time>2010-11-03T13:40:24Z</time>
      </trkpt>
      <trkpt lat="45.01786" lon="5.11834">
        <ele>230.02400207519</ele>
        <time>2010-11-03T13:40:28Z</time>
      </trkpt>
      <trkpt lat="45.01794" lon="5.1186">
        <ele>231.52099609375</ele>
        <time>2010-11-03T13:40:32Z</time>
      </trkpt>
      <trkpt lat="45.01795" lon="5.11872">
        <ele>231.92199707031</ele>
        <time>2010-11-03T13:40:34Z</time>
      </trkpt>
      <trkpt lat="45.01791" lon="5.11898">
        <ele>233.05499267578</ele>
        <time>2010-11-03T13:40:38Z</time>
      </trkpt>
      <trkpt lat="45.01783" lon="5.11922">
        <ele>233.8690032959</ele>
        <time>2010-11-03T13:40:42Z</time>
      </trkpt>
      <trkpt lat="45.01765" lon="5.11969">
        <ele>235.5890045166</ele>
        <time>2010-11-03T13:40:50Z</time>
      </trkpt>
      <trkpt lat="45.01748" lon="5.12013">
        <ele>237.3630065918</ele>
        <time>2010-11-03T13:40:58Z</time>
      </trkpt>
      <trkpt lat="45.01734" lon="5.12048">
        <ele>238.73500061035</ele>
        <time>2010-11-03T13:41:05Z</time>
      </trkpt>
      <trkpt lat="45.01715" lon="5.12087">
        <ele>239.52299499512</ele>
        <time>2010-11-03T13:41:13Z</time>
      </trkpt>
      <trkpt lat="45.01692" lon="5.12144">
        <ele>240.79400634766</ele>
        <time>2010-11-03T13:41:23Z</time>
      </trkpt>
      <trkpt lat="45.01673" lon="5.12211">
        <ele>242.15800476074</ele>
        <time>2010-11-03T13:41:34Z</time>
      </trkpt>
      <trkpt lat="45.01658" lon="5.12267">
        <ele>243.18499755859</ele>
        <time>2010-11-03T13:41:43Z</time>
      </trkpt>
      <trkpt lat="45.01644" lon="5.12319">
        <ele>244.19099426269</ele>
        <time>2010-11-03T13:41:51Z</time>
      </trkpt>
      <trkpt lat="45.01633" lon="5.12363">
        <ele>245.20500183106</ele>
        <time>2010-11-03T13:41:58Z</time>
      </trkpt>
      <trkpt lat="45.01621" lon="5.12425">
        <ele>245.94999694824</ele>
        <time>2010-11-03T13:42:07Z</time>
      </trkpt>
      <trkpt lat="45.01611" lon="5.12487">
        <ele>246.91900634766</ele>
        <time>2010-11-03T13:42:16Z</time>
      </trkpt>
      <trkpt lat="45.01605" lon="5.12528">
        <ele>247.74899291992</ele>
        <time>2010-11-03T13:42:23Z</time>
      </trkpt>
      <trkpt lat="45.016" lon="5.12554">
        <ele>248.1369934082</ele>
        <time>2010-11-03T13:42:28Z</time>
      </trkpt>
      <trkpt lat="45.01598" lon="5.12571">
        <ele>248.36099243164</ele>
        <time>2010-11-03T13:42:31Z</time>
      </trkpt>
      <trkpt lat="45.01591" lon="5.12609">
        <ele>248.84800720215</ele>
        <time>2010-11-03T13:42:37Z</time>
      </trkpt>
      <trkpt lat="45.01582" lon="5.12633">
        <ele>249.16900634766</ele>
        <time>2010-11-03T13:42:41Z</time>
      </trkpt>
      <trkpt lat="45.01554" lon="5.12674">
        <ele>250.19299316406</ele>
        <time>2010-11-03T13:42:50Z</time>
      </trkpt>
      <trkpt lat="45.01535" lon="5.12717">
        <ele>250.81500244141</ele>
        <time>2010-11-03T13:42:58Z</time>
      </trkpt>
      <trkpt lat="45.0151" lon="5.12773">
        <ele>251.47399902344</ele>
        <time>2010-11-03T13:43:09Z</time>
      </trkpt>
      <trkpt lat="45.01503" lon="5.12798">
        <ele>252.02000427246</ele>
        <time>2010-11-03T13:43:14Z</time>
      </trkpt>
      <trkpt lat="45.01511" lon="5.12832">
        <ele>252.60499572754</ele>
        <time>2010-11-03T13:43:20Z</time>
      </trkpt>
      <trkpt lat="45.01527" lon="5.12884">
        <ele>253.23100280762</ele>
        <time>2010-11-03T13:43:29Z</time>
      </trkpt>
      <trkpt lat="45.01544" lon="5.12937">
        <ele>253.00100708008</ele>
        <time>2010-11-03T13:43:37Z</time>
      </trkpt>
      <trkpt lat="45.0156" lon="5.1299">
        <ele>252.46099853516</ele>
        <time>2010-11-03T13:43:44Z</time>
      </trkpt>
      <trkpt lat="45.01567" lon="5.13003">
        <ele>252.38499450684</ele>
        <time>2010-11-03T13:43:46Z</time>
      </trkpt>
      <trkpt lat="45.01586" lon="5.13023">
        <ele>252.33200073242</ele>
        <time>2010-11-03T13:43:50Z</time>
      </trkpt>
      <trkpt lat="45.01627" lon="5.13052">
        <ele>251.56100463867</ele>
        <time>2010-11-03T13:43:58Z</time>
      </trkpt>
      <trkpt lat="45.01637" lon="5.13059">
        <ele>251.20199584961</ele>
        <time>2010-11-03T13:44:00Z</time>
      </trkpt>
      <trkpt lat="45.01648" lon="5.13068">
        <ele>250.62600708008</ele>
        <time>2010-11-03T13:44:02Z</time>
      </trkpt>
      <trkpt lat="45.01667" lon="5.13078">
        <ele>249.16900634766</ele>
        <time>2010-11-03T13:44:05Z</time>
      </trkpt>
      <trkpt lat="45.01675" lon="5.13077">
        <ele>248.49800109863</ele>
        <time>2010-11-03T13:44:06Z</time>
      </trkpt>
      <trkpt lat="45.01683" lon="5.13075">
        <ele>248.23899841309</ele>
        <time>2010-11-03T13:44:07Z</time>
      </trkpt>
      <trkpt lat="45.01727" lon="5.13055">
        <ele>244.83299255371</ele>
        <time>2010-11-03T13:44:12Z</time>
      </trkpt>
      <trkpt lat="45.01736" lon="5.1305">
        <ele>243.90199279785</ele>
        <time>2010-11-03T13:44:13Z</time>
      </trkpt>
      <trkpt lat="45.01777" lon="5.13046">
        <ele>240.31199645996</ele>
        <time>2010-11-03T13:44:17Z</time>
      </trkpt>
      <trkpt lat="45.01815" lon="5.1304">
        <ele>236.76899719238</ele>
        <time>2010-11-03T13:44:20Z</time>
      </trkpt>
      <trkpt lat="45.01853" lon="5.13043">
        <ele>233.93099975586</ele>
        <time>2010-11-03T13:44:23Z</time>
      </trkpt>
      <trkpt lat="45.01894" lon="5.13046">
        <ele>230.83099365234</ele>
        <time>2010-11-03T13:44:26Z</time>
      </trkpt>
      <trkpt lat="45.01965" lon="5.13044">
        <ele>225.50100708008</ele>
        <time>2010-11-03T13:44:31Z</time>
      </trkpt>
      <trkpt lat="45.02017" lon="5.13029">
        <ele>221.06199645996</ele>
        <time>2010-11-03T13:44:35Z</time>
      </trkpt>
      <trkpt lat="45.02074" lon="5.13041">
        <ele>216.21899414062</ele>
        <time>2010-11-03T13:44:39Z</time>
      </trkpt>
      <trkpt lat="45.02095" lon="5.13062">
        <ele>214.23199462891</ele>
        <time>2010-11-03T13:44:41Z</time>
      </trkpt>
      <trkpt lat="45.02102" lon="5.13095">
        <ele>212.21800231934</ele>
        <time>2010-11-03T13:44:43Z</time>
      </trkpt>
      <trkpt lat="45.021" lon="5.13146">
        <ele>209.58799743652</ele>
        <time>2010-11-03T13:44:46Z</time>
      </trkpt>
      <trkpt lat="45.02095" lon="5.13162">
        <ele>208.69799804688</ele>
        <time>2010-11-03T13:44:47Z</time>
      </trkpt>
      <trkpt lat="45.0208" lon="5.13209">
        <ele>206.42599487305</ele>
        <time>2010-11-03T13:44:50Z</time>
      </trkpt>
      <trkpt lat="45.02077" lon="5.13275">
        <ele>203.46699523926</ele>
        <time>2010-11-03T13:44:54Z</time>
      </trkpt>
      <trkpt lat="45.02066" lon="5.13306">
        <ele>200.97399902344</ele>
        <time>2010-11-03T13:44:57Z</time>
      </trkpt>
      <trkpt lat="45.0205" lon="5.13308">
        <ele>200.97700500488</ele>
        <time>2010-11-03T13:44:59Z</time>
      </trkpt>
      <trkpt lat="45.02042" lon="5.13308">
        <ele>201.08399963379</ele>
        <time>2010-11-03T13:45:00Z</time>
      </trkpt>
      <trkpt lat="45.02012" lon="5.1332">
        <ele>201.10499572754</ele>
        <time>2010-11-03T13:45:05Z</time>
      </trkpt>
      <trkpt lat="45.02001" lon="5.13351">
        <ele>201.45199584961</ele>
        <time>2010-11-03T13:45:09Z</time>
      </trkpt>
      <trkpt lat="45.01994" lon="5.13395">
        <ele>202.76300048828</ele>
        <time>2010-11-03T13:45:16Z</time>
      </trkpt>
      <trkpt lat="45.01985" lon="5.13408">
        <ele>203.63200378418</ele>
        <time>2010-11-03T13:45:20Z</time>
      </trkpt>
      <trkpt lat="45.01973" lon="5.13412">
        <ele>204.76100158691</ele>
        <time>2010-11-03T13:45:25Z</time>
      </trkpt>
      <trkpt lat="45.01958" lon="5.13413">
        <ele>205.93099975586</ele>
        <time>2010-11-03T13:45:31Z</time>
      </trkpt>
      <trkpt lat="45.01949" lon="5.13414">
        <ele>206.51400756836</ele>
        <time>2010-11-03T13:45:35Z</time>
      </trkpt>
      <trkpt lat="45.01938" lon="5.13418">
        <ele>207.33299255371</ele>
        <time>2010-11-03T13:45:40Z</time>
      </trkpt>
      <trkpt lat="45.01926" lon="5.13422">
        <ele>208.10400390625</ele>
        <time>2010-11-03T13:45:45Z</time>
      </trkpt>
      <trkpt lat="45.01907" lon="5.13431">
        <ele>209.19599914551</ele>
        <time>2010-11-03T13:45:52Z</time>
      </trkpt>
      <trkpt lat="45.0189" lon="5.13439">
        <ele>210.29899597168</ele>
        <time>2010-11-03T13:45:58Z</time>
      </trkpt>
      <trkpt lat="45.01871" lon="5.13444">
        <ele>211.18499755859</ele>
        <time>2010-11-03T13:46:04Z</time>
      </trkpt>
      <trkpt lat="45.01844" lon="5.13456">
        <ele>212.97500610352</ele>
        <time>2010-11-03T13:46:13Z</time>
      </trkpt>
      <trkpt lat="45.01828" lon="5.1347">
        <ele>214.25300598144</ele>
        <time>2010-11-03T13:46:19Z</time>
      </trkpt>
      <trkpt lat="45.01815" lon="5.13489">
        <ele>215.53300476074</ele>
        <time>2010-11-03T13:46:25Z</time>
      </trkpt>
      <trkpt lat="45.01802" lon="5.13508">
        <ele>216.77799987793</ele>
        <time>2010-11-03T13:46:31Z</time>
      </trkpt>
      <trkpt lat="45.01792" lon="5.13525">
        <ele>217.82600402832</ele>
        <time>2010-11-03T13:46:36Z</time>
      </trkpt>
      <trkpt lat="45.01777" lon="5.13544">
        <ele>219.08200073242</ele>
        <time>2010-11-03T13:46:42Z</time>
      </trkpt>
      <trkpt lat="45.01757" lon="5.13557">
        <ele>220.98599243164</ele>
        <time>2010-11-03T13:46:49Z</time>
      </trkpt>
      <trkpt lat="45.01742" lon="5.13566">
        <ele>222.39199829102</ele>
        <time>2010-11-03T13:46:55Z</time>
      </trkpt>
      <trkpt lat="45.01735" lon="5.13575">
        <ele>223.64599609375</ele>
        <time>2010-11-03T13:46:59Z</time>
      </trkpt>
      <trkpt lat="45.01718" lon="5.1359">
        <ele>225.23199462891</ele>
        <time>2010-11-03T13:47:06Z</time>
      </trkpt>
      <trkpt lat="45.01704" lon="5.13598">
        <ele>226.45899963379</ele>
        <time>2010-11-03T13:47:11Z</time>
      </trkpt>
      <trkpt lat="45.01691" lon="5.13611">
        <ele>227.79100036621</ele>
        <time>2010-11-03T13:47:17Z</time>
      </trkpt>
      <trkpt lat="45.01682" lon="5.13619">
        <ele>228.74000549316</ele>
        <time>2010-11-03T13:47:21Z</time>
      </trkpt>
      <trkpt lat="45.01669" lon="5.13633">
        <ele>229.94999694824</ele>
        <time>2010-11-03T13:47:27Z</time>
      </trkpt>
      <trkpt lat="45.01657" lon="5.13645">
        <ele>231.05299377441</ele>
        <time>2010-11-03T13:47:32Z</time>
      </trkpt>
      <trkpt lat="45.01645" lon="5.13659">
        <ele>232.42900085449</ele>
        <time>2010-11-03T13:47:38Z</time>
      </trkpt>
      <trkpt lat="45.01636" lon="5.13672">
        <ele>233.43899536133</ele>
        <time>2010-11-03T13:47:43Z</time>
      </trkpt>
      <trkpt lat="45.01628" lon="5.13687">
        <ele>234.5359954834</ele>
        <time>2010-11-03T13:47:48Z</time>
      </trkpt>
      <trkpt lat="45.01618" lon="5.13704">
        <ele>236.05200195312</ele>
        <time>2010-11-03T13:47:54Z</time>
      </trkpt>
      <trkpt lat="45.01608" lon="5.1372">
        <ele>237.55499267578</ele>
        <time>2010-11-03T13:48:00Z</time>
      </trkpt>
      <trkpt lat="45.01596" lon="5.13742">
        <ele>239.1549987793</ele>
        <time>2010-11-03T13:48:07Z</time>
      </trkpt>
      <trkpt lat="45.01588" lon="5.13759">
        <ele>240.49800109863</ele>
        <time>2010-11-03T13:48:12Z</time>
      </trkpt>
      <trkpt lat="45.01576" lon="5.13784">
        <ele>241.88999938965</ele>
        <time>2010-11-03T13:48:19Z</time>
      </trkpt>
      <trkpt lat="45.01563" lon="5.13812">
        <ele>243.80200195312</ele>
        <time>2010-11-03T13:48:26Z</time>
      </trkpt>
      <trkpt lat="45.0155" lon="5.13834">
        <ele>245.50900268555</ele>
        <time>2010-11-03T13:48:32Z</time>
      </trkpt>
      <trkpt lat="45.01535" lon="5.13855">
        <ele>247.34599304199</ele>
        <time>2010-11-03T13:48:38Z</time>
      </trkpt>
      <trkpt lat="45.01526" lon="5.13869">
        <ele>248.53399658203</ele>
        <time>2010-11-03T13:48:42Z</time>
      </trkpt>
      <trkpt lat="45.01511" lon="5.13884">
        <ele>249.98699951172</ele>
        <time>2010-11-03T13:48:47Z</time>
      </trkpt>
      <trkpt lat="45.01495" lon="5.13901">
        <ele>251.55900573731</ele>
        <time>2010-11-03T13:48:52Z</time>
      </trkpt>
      <trkpt lat="45.01478" lon="5.13915">
        <ele>253.10600280762</ele>
        <time>2010-11-03T13:48:57Z</time>
      </trkpt>
      <trkpt lat="45.01463" lon="5.13925">
        <ele>254.34700012207</ele>
        <time>2010-11-03T13:49:01Z</time>
      </trkpt>
      <trkpt lat="45.01439" lon="5.13944">
        <ele>256.25299072266</ele>
        <time>2010-11-03T13:49:07Z</time>
      </trkpt>
      <trkpt lat="45.01434" lon="5.13948">
        <ele>256.66900634766</ele>
        <time>2010-11-03T13:49:08Z</time>
      </trkpt>
      <trkpt lat="45.01423" lon="5.13957">
        <ele>257.3030090332</ele>
        <time>2010-11-03T13:49:10Z</time>
      </trkpt>
      <trkpt lat="45.01405" lon="5.13988">
        <ele>259.25299072266</ele>
        <time>2010-11-03T13:49:14Z</time>
      </trkpt>
      <trkpt lat="45.01403" lon="5.14019">
        <ele>261.09298706055</ele>
        <time>2010-11-03T13:49:17Z</time>
      </trkpt>
      <trkpt lat="45.01403" lon="5.1403">
        <ele>261.38900756836</ele>
        <time>2010-11-03T13:49:18Z</time>
      </trkpt>
      <trkpt lat="45.01408" lon="5.1406">
        <ele>262.88500976562</ele>
        <time>2010-11-03T13:49:21Z</time>
      </trkpt>
      <trkpt lat="45.01412" lon="5.14098">
        <ele>264.38800048828</ele>
        <time>2010-11-03T13:49:26Z</time>
      </trkpt>
      <trkpt lat="45.01414" lon="5.14136">
        <ele>265.75799560547</ele>
        <time>2010-11-03T13:49:33Z</time>
      </trkpt>
      <trkpt lat="45.01416" lon="5.14172">
        <ele>266.69198608398</ele>
        <time>2010-11-03T13:49:40Z</time>
      </trkpt>
      <trkpt lat="45.01418" lon="5.142">
        <ele>267.4049987793</ele>
        <time>2010-11-03T13:49:46Z</time>
      </trkpt>
      <trkpt lat="45.01419" lon="5.14222">
        <ele>267.92599487305</ele>
        <time>2010-11-03T13:49:51Z</time>
      </trkpt>
      <trkpt lat="45.01419" lon="5.14245">
        <ele>268.37799072266</ele>
        <time>2010-11-03T13:49:56Z</time>
      </trkpt>
      <trkpt lat="45.01422" lon="5.14271">
        <ele>269.0830078125</ele>
        <time>2010-11-03T13:50:02Z</time>
      </trkpt>
      <trkpt lat="45.01424" lon="5.14295">
        <ele>269.59399414062</ele>
        <time>2010-11-03T13:50:07Z</time>
      </trkpt>
      <trkpt lat="45.01427" lon="5.14338">
        <ele>270.27700805664</ele>
        <time>2010-11-03T13:50:16Z</time>
      </trkpt>
      <trkpt lat="45.01431" lon="5.14367">
        <ele>271.0119934082</ele>
        <time>2010-11-03T13:50:22Z</time>
      </trkpt>
      <trkpt lat="45.01437" lon="5.14391">
        <ele>271.51300048828</ele>
        <time>2010-11-03T13:50:27Z</time>
      </trkpt>
      <trkpt lat="45.01449" lon="5.14416">
        <ele>272.17498779297</ele>
        <time>2010-11-03T13:50:33Z</time>
      </trkpt>
      <trkpt lat="45.01469" lon="5.14444">
        <ele>273.64099121094</ele>
        <time>2010-11-03T13:50:41Z</time>
      </trkpt>
      <trkpt lat="45.01482" lon="5.14464">
        <ele>274.87100219727</ele>
        <time>2010-11-03T13:50:47Z</time>
      </trkpt>
      <trkpt lat="45.01498" lon="5.14486">
        <ele>276.54598999023</ele>
        <time>2010-11-03T13:50:54Z</time>
      </trkpt>
      <trkpt lat="45.01512" lon="5.14505">
        <ele>278.16198730469</ele>
        <time>2010-11-03T13:51:00Z</time>
      </trkpt>
      <trkpt lat="45.01527" lon="5.14525">
        <ele>279.90100097656</ele>
        <time>2010-11-03T13:51:07Z</time>
      </trkpt>
      <trkpt lat="45.01536" lon="5.1454">
        <ele>281.10000610352</ele>
        <time>2010-11-03T13:51:12Z</time>
      </trkpt>
      <trkpt lat="45.01546" lon="5.14553">
        <ele>282.83099365234</ele>
        <time>2010-11-03T13:51:18Z</time>
      </trkpt>
      <trkpt lat="45.01551" lon="5.14557">
        <ele>283.38000488281</ele>
        <time>2010-11-03T13:51:23Z</time>
      </trkpt>
      <trkpt lat="45.01554" lon="5.14543">
        <ele>283.15600585938</ele>
        <time>2010-11-03T13:51:28Z</time>
      </trkpt>
      <trkpt lat="45.01552" lon="5.14538">
        <ele>283.11999511719</ele>
        <time>2010-11-03T13:51:31Z</time>
      </trkpt>
      <trkpt lat="45.0155" lon="5.14545">
        <ele>283.0119934082</ele>
        <time>2010-11-03T13:51:35Z</time>
      </trkpt>
      <trkpt lat="45.01548" lon="5.14558">
        <ele>283.19100952148</ele>
        <time>2010-11-03T13:51:41Z</time>
      </trkpt>
      <trkpt lat="45.01548" lon="5.14565">
        <ele>283.35299682617</ele>
        <time>2010-11-03T13:51:45Z</time>
      </trkpt>
      <trkpt lat="45.01545" lon="5.14578">
        <ele>283.73498535156</ele>
        <time>2010-11-03T13:51:52Z</time>
      </trkpt>
      <trkpt lat="45.01542" lon="5.14592">
        <ele>283.91598510742</ele>
        <time>2010-11-03T13:51:58Z</time>
      </trkpt>
      <trkpt lat="45.01538" lon="5.14614">
        <ele>284.47198486328</ele>
        <time>2010-11-03T13:52:05Z</time>
      </trkpt>
      <trkpt lat="45.01532" lon="5.14641">
        <ele>285.1130065918</ele>
        <time>2010-11-03T13:52:13Z</time>
      </trkpt>
      <trkpt lat="45.01525" lon="5.14666">
        <ele>285.41101074219</ele>
        <time>2010-11-03T13:52:20Z</time>
      </trkpt>
      <trkpt lat="45.01517" lon="5.14694">
        <ele>285.96798706055</ele>
        <time>2010-11-03T13:52:26Z</time>
      </trkpt>
      <trkpt lat="45.01508" lon="5.14734">
        <ele>286.32998657227</ele>
        <time>2010-11-03T13:52:34Z</time>
      </trkpt>
      <trkpt lat="45.01508" lon="5.14762">
        <ele>286.67300415039</ele>
        <time>2010-11-03T13:52:40Z</time>
      </trkpt>
      <trkpt lat="45.01514" lon="5.14795">
        <ele>286.89099121094</ele>
        <time>2010-11-03T13:52:47Z</time>
      </trkpt>
      <trkpt lat="45.01519" lon="5.14828">
        <ele>287.16799926758</ele>
        <time>2010-11-03T13:52:54Z</time>
      </trkpt>
      <trkpt lat="45.01525" lon="5.1487">
        <ele>288.12899780273</ele>
        <time>2010-11-03T13:53:02Z</time>
      </trkpt>
      <trkpt lat="45.01532" lon="5.14906">
        <ele>288.91000366211</ele>
        <time>2010-11-03T13:53:09Z</time>
      </trkpt>
      <trkpt lat="45.01537" lon="5.14947">
        <ele>290.06600952148</ele>
        <time>2010-11-03T13:53:17Z</time>
      </trkpt>
      <trkpt lat="45.01542" lon="5.1498">
        <ele>291.00100708008</ele>
        <time>2010-11-03T13:53:24Z</time>
      </trkpt>
      <trkpt lat="45.01546" lon="5.15012">
        <ele>291.875</ele>
        <time>2010-11-03T13:53:31Z</time>
      </trkpt>
      <trkpt lat="45.0155" lon="5.15046">
        <ele>292.91400146484</ele>
        <time>2010-11-03T13:53:38Z</time>
      </trkpt>
      <trkpt lat="45.01554" lon="5.15076">
        <ele>293.64599609375</ele>
        <time>2010-11-03T13:53:44Z</time>
      </trkpt>
      <trkpt lat="45.01559" lon="5.1511">
        <ele>294.61898803711</ele>
        <time>2010-11-03T13:53:51Z</time>
      </trkpt>
      <trkpt lat="45.01562" lon="5.15132">
        <ele>295.32598876953</ele>
        <time>2010-11-03T13:53:56Z</time>
      </trkpt>
      <trkpt lat="45.01572" lon="5.15136">
        <ele>295.71600341797</ele>
        <time>2010-11-03T13:54:01Z</time>
      </trkpt>
      <trkpt lat="45.01576" lon="5.15135">
        <ele>295.81201171875</ele>
        <time>2010-11-03T13:54:03Z</time>
      </trkpt>
      <trkpt lat="45.016" lon="5.15126">
        <ele>296.10000610352</ele>
        <time>2010-11-03T13:54:11Z</time>
      </trkpt>
      <trkpt lat="45.01634" lon="5.15113">
        <ele>297.12600708008</ele>
        <time>2010-11-03T13:54:21Z</time>
      </trkpt>
      <trkpt lat="45.01663" lon="5.15104">
        <ele>297.8210144043</ele>
        <time>2010-11-03T13:54:29Z</time>
      </trkpt>
      <trkpt lat="45.01692" lon="5.15093">
        <ele>298.75201416016</ele>
        <time>2010-11-03T13:54:37Z</time>
      </trkpt>
      <trkpt lat="45.01714" lon="5.15085">
        <ele>299.62899780273</ele>
        <time>2010-11-03T13:54:43Z</time>
      </trkpt>
      <trkpt lat="45.01731" lon="5.15079">
        <ele>300.2919921875</ele>
        <time>2010-11-03T13:54:48Z</time>
      </trkpt>
      <trkpt lat="45.01755" lon="5.15072">
        <ele>301.30200195312</ele>
        <time>2010-11-03T13:54:55Z</time>
      </trkpt>
      <trkpt lat="45.0178" lon="5.15066">
        <ele>302.19198608398</ele>
        <time>2010-11-03T13:55:02Z</time>
      </trkpt>
      <trkpt lat="45.01798" lon="5.15067">
        <ele>303.06298828125</ele>
        <time>2010-11-03T13:55:07Z</time>
      </trkpt>
      <trkpt lat="45.01825" lon="5.15076">
        <ele>304.85699462891</ele>
        <time>2010-11-03T13:55:15Z</time>
      </trkpt>
      <trkpt lat="45.01845" lon="5.15081">
        <ele>306.1780090332</ele>
        <time>2010-11-03T13:55:21Z</time>
      </trkpt>
      <trkpt lat="45.0187" lon="5.1509">
        <ele>307.83898925781</ele>
        <time>2010-11-03T13:55:29Z</time>
      </trkpt>
      <trkpt lat="45.01888" lon="5.15095">
        <ele>308.90200805664</ele>
        <time>2010-11-03T13:55:35Z</time>
      </trkpt>
      <trkpt lat="45.01908" lon="5.15099">
        <ele>309.88400268555</ele>
        <time>2010-11-03T13:55:42Z</time>
      </trkpt>
      <trkpt lat="45.01929" lon="5.15102">
        <ele>309.05801391602</ele>
        <time>2010-11-03T13:55:49Z</time>
      </trkpt>
      <trkpt lat="45.01949" lon="5.15109">
        <ele>307.95300292969</ele>
        <time>2010-11-03T13:55:55Z</time>
      </trkpt>
      <trkpt lat="45.01961" lon="5.15127">
        <ele>307.15600585938</ele>
        <time>2010-11-03T13:56:00Z</time>
      </trkpt>
      <trkpt lat="45.01971" lon="5.15169">
        <ele>306.29501342773</ele>
        <time>2010-11-03T13:56:07Z</time>
      </trkpt>
      <trkpt lat="45.0198" lon="5.15211">
        <ele>305.62298583984</ele>
        <time>2010-11-03T13:56:13Z</time>
      </trkpt>
      <trkpt lat="45.0199" lon="5.15248">
        <ele>304.77700805664</ele>
        <time>2010-11-03T13:56:18Z</time>
      </trkpt>
      <trkpt lat="45.02011" lon="5.1528">
        <ele>303.83200073242</ele>
        <time>2010-11-03T13:56:23Z</time>
      </trkpt>
      <trkpt lat="45.02022" lon="5.1529">
        <ele>303.64599609375</ele>
        <time>2010-11-03T13:56:25Z</time>
      </trkpt>
      <trkpt lat="45.02068" lon="5.15324">
        <ele>303.27301025391</ele>
        <time>2010-11-03T13:56:34Z</time>
      </trkpt>
      <trkpt lat="45.0209" lon="5.15345">
        <ele>304.07400512695</ele>
        <time>2010-11-03T13:56:39Z</time>
      </trkpt>
      <trkpt lat="45.02121" lon="5.15354">
        <ele>304.43701171875</ele>
        <time>2010-11-03T13:56:45Z</time>
      </trkpt>
      <trkpt lat="45.02126" lon="5.15353">
        <ele>304.63299560547</ele>
        <time>2010-11-03T13:56:46Z</time>
      </trkpt>
      <trkpt lat="45.0214" lon="5.1535">
        <ele>304.98901367188</ele>
        <time>2010-11-03T13:56:49Z</time>
      </trkpt>
      <trkpt lat="45.02158" lon="5.15346">
        <ele>305.86999511719</ele>
        <time>2010-11-03T13:56:53Z</time>
      </trkpt>
      <trkpt lat="45.0218" lon="5.15346">
        <ele>306.94900512695</ele>
        <time>2010-11-03T13:56:59Z</time>
      </trkpt>
      <trkpt lat="45.02182" lon="5.15361">
        <ele>308.02700805664</ele>
        <time>2010-11-03T13:57:03Z</time>
      </trkpt>
      <trkpt lat="45.02175" lon="5.15364">
        <ele>308.63198852539</ele>
        <time>2010-11-03T13:57:05Z</time>
      </trkpt>
      <trkpt lat="45.02162" lon="5.15364">
        <ele>309.09298706055</ele>
        <time>2010-11-03T13:57:08Z</time>
      </trkpt>
      <trkpt lat="45.02142" lon="5.15375">
        <ele>310.33801269531</ele>
        <time>2010-11-03T13:57:13Z</time>
      </trkpt>
      <trkpt lat="45.02135" lon="5.15394">
        <ele>311.77499389648</ele>
        <time>2010-11-03T13:57:17Z</time>
      </trkpt>
      <trkpt lat="45.02133" lon="5.15399">
        <ele>312.23001098633</ele>
        <time>2010-11-03T13:57:18Z</time>
      </trkpt>
      <trkpt lat="45.02122" lon="5.15432">
        <ele>315.51699829102</ele>
        <time>2010-11-03T13:57:26Z</time>
      </trkpt>
      <trkpt lat="45.02113" lon="5.1545">
        <ele>316.65100097656</ele>
        <time>2010-11-03T13:57:31Z</time>
      </trkpt>
      <trkpt lat="45.02094" lon="5.15471">
        <ele>319.92700195312</ele>
        <time>2010-11-03T13:57:38Z</time>
      </trkpt>
      <trkpt lat="45.0207" lon="5.15504">
        <ele>323.56698608398</ele>
        <time>2010-11-03T13:57:47Z</time>
      </trkpt>
      <trkpt lat="45.02053" lon="5.15532">
        <ele>326.70999145508</ele>
        <time>2010-11-03T13:57:54Z</time>
      </trkpt>
      <trkpt lat="45.02032" lon="5.15553">
        <ele>329.25299072266</ele>
        <time>2010-11-03T13:58:01Z</time>
      </trkpt>
      <trkpt lat="45.02012" lon="5.15582">
        <ele>332.1960144043</ele>
        <time>2010-11-03T13:58:09Z</time>
      </trkpt>
      <trkpt lat="45.01997" lon="5.15602">
        <ele>334.04501342773</ele>
        <time>2010-11-03T13:58:15Z</time>
      </trkpt>
      <trkpt lat="45.01977" lon="5.15622">
        <ele>336.03100585938</ele>
        <time>2010-11-03T13:58:22Z</time>
      </trkpt>
      <trkpt lat="45.01952" lon="5.15646">
        <ele>338.78799438477</ele>
        <time>2010-11-03T13:58:30Z</time>
      </trkpt>
      <trkpt lat="45.01926" lon="5.15672">
        <ele>341.2080078125</ele>
        <time>2010-11-03T13:58:38Z</time>
      </trkpt>
      <trkpt lat="45.01894" lon="5.15695">
        <ele>343.42300415039</ele>
        <time>2010-11-03T13:58:46Z</time>
      </trkpt>
      <trkpt lat="45.01885" lon="5.15699">
        <ele>343.99200439453</ele>
        <time>2010-11-03T13:58:48Z</time>
      </trkpt>
      <trkpt lat="45.01842" lon="5.15721">
        <ele>346.35800170898</ele>
        <time>2010-11-03T13:58:58Z</time>
      </trkpt>
      <trkpt lat="45.01812" lon="5.15729">
        <ele>348.19400024414</ele>
        <time>2010-11-03T13:59:05Z</time>
      </trkpt>
      <trkpt lat="45.0177" lon="5.15741">
        <ele>350.31600952148</ele>
        <time>2010-11-03T13:59:15Z</time>
      </trkpt>
      <trkpt lat="45.01737" lon="5.15753">
        <ele>352.03500366211</ele>
        <time>2010-11-03T13:59:23Z</time>
      </trkpt>
      <trkpt lat="45.01711" lon="5.15778">
        <ele>354.25201416016</ele>
        <time>2010-11-03T13:59:31Z</time>
      </trkpt>
      <trkpt lat="45.01697" lon="5.15809">
        <ele>355.61401367188</ele>
        <time>2010-11-03T13:59:38Z</time>
      </trkpt>
      <trkpt lat="45.01681" lon="5.15836">
        <ele>357.59201049805</ele>
        <time>2010-11-03T13:59:45Z</time>
      </trkpt>
      <trkpt lat="45.01666" lon="5.15859">
        <ele>358.92300415039</ele>
        <time>2010-11-03T13:59:51Z</time>
      </trkpt>
      <trkpt lat="45.01648" lon="5.15884">
        <ele>360.91000366211</ele>
        <time>2010-11-03T13:59:58Z</time>
      </trkpt>
      <trkpt lat="45.01637" lon="5.159">
        <ele>361.92098999023</ele>
        <time>2010-11-03T14:00:02Z</time>
      </trkpt>
      <trkpt lat="45.01622" lon="5.15941">
        <ele>364.78399658203</ele>
        <time>2010-11-03T14:00:10Z</time>
      </trkpt>
      <trkpt lat="45.01619" lon="5.15968">
        <ele>366.78298950195</ele>
        <time>2010-11-03T14:00:16Z</time>
      </trkpt>
      <trkpt lat="45.01616" lon="5.16">
        <ele>368.75799560547</ele>
        <time>2010-11-03T14:00:23Z</time>
      </trkpt>
      <trkpt lat="45.01609" lon="5.16024">
        <ele>370.30599975586</ele>
        <time>2010-11-03T14:00:29Z</time>
      </trkpt>
      <trkpt lat="45.01601" lon="5.16047">
        <ele>371.90798950195</ele>
        <time>2010-11-03T14:00:35Z</time>
      </trkpt>
      <trkpt lat="45.01592" lon="5.1607">
        <ele>373.1960144043</ele>
        <time>2010-11-03T14:00:41Z</time>
      </trkpt>
      <trkpt lat="45.01588" lon="5.16106">
        <ele>375.49200439453</ele>
        <time>2010-11-03T14:00:48Z</time>
      </trkpt>
      <trkpt lat="45.01581" lon="5.1613">
        <ele>377.29901123047</ele>
        <time>2010-11-03T14:00:54Z</time>
      </trkpt>
      <trkpt lat="45.01569" lon="5.16141">
        <ele>377.97100830078</ele>
        <time>2010-11-03T14:00:58Z</time>
      </trkpt>
      <trkpt lat="45.01554" lon="5.16149">
        <ele>378.78601074219</ele>
        <time>2010-11-03T14:01:03Z</time>
      </trkpt>
      <trkpt lat="45.01547" lon="5.16155">
        <ele>379.15200805664</ele>
        <time>2010-11-03T14:01:08Z</time>
      </trkpt>
      <trkpt lat="45.01535" lon="5.16163">
        <ele>378.64898681641</ele>
        <time>2010-11-03T14:01:14Z</time>
      </trkpt>
      <trkpt lat="45.01531" lon="5.16168">
        <ele>378.55099487305</ele>
        <time>2010-11-03T14:01:16Z</time>
      </trkpt>
      <trkpt lat="45.0153" lon="5.16164">
        <ele>378.44198608398</ele>
        <time>2010-11-03T14:01:21Z</time>
      </trkpt>
      <trkpt lat="45.01538" lon="5.16163">
        <ele>378.52899169922</ele>
        <time>2010-11-03T14:01:25Z</time>
      </trkpt>
      <trkpt lat="45.01541" lon="5.16161">
        <ele>378.54699707031</ele>
        <time>2010-11-03T14:01:26Z</time>
      </trkpt>
      <trkpt lat="45.01563" lon="5.16145">
        <ele>378.87298583984</ele>
        <time>2010-11-03T14:01:34Z</time>
      </trkpt>
      <trkpt lat="45.01571" lon="5.1614">
        <ele>378.61700439453</ele>
        <time>2010-11-03T14:01:36Z</time>
      </trkpt>
      <trkpt lat="45.01579" lon="5.16132">
        <ele>378.13198852539</ele>
        <time>2010-11-03T14:01:38Z</time>
      </trkpt>
      <trkpt lat="45.0159" lon="5.16103">
        <ele>376.88800048828</ele>
        <time>2010-11-03T14:01:42Z</time>
      </trkpt>
      <trkpt lat="45.01591" lon="5.16095">
        <ele>376.30899047852</ele>
        <time>2010-11-03T14:01:43Z</time>
      </trkpt>
      <trkpt lat="45.01596" lon="5.16063">
        <ele>374.02899169922</ele>
        <time>2010-11-03T14:01:47Z</time>
      </trkpt>
      <trkpt lat="45.01598" lon="5.16057">
        <ele>373.63500976562</ele>
        <time>2010-11-03T14:01:48Z</time>
      </trkpt>
      <trkpt lat="45.01608" lon="5.16034">
        <ele>372.50399780273</ele>
        <time>2010-11-03T14:01:51Z</time>
      </trkpt>
      <trkpt lat="45.01618" lon="5.16006">
        <ele>370.17700195312</ele>
        <time>2010-11-03T14:01:55Z</time>
      </trkpt>
      <trkpt lat="45.01617" lon="5.16003">
        <ele>369.58999633789</ele>
        <time>2010-11-03T14:01:59Z</time>
      </trkpt>
      <trkpt lat="45.01616" lon="5.16005">
        <ele>369.63800048828</ele>
        <time>2010-11-03T14:02:00Z</time>
      </trkpt>
      <trkpt lat="45.01611" lon="5.16023">
        <ele>370.42700195312</ele>
        <time>2010-11-03T14:02:05Z</time>
      </trkpt>
      <trkpt lat="45.01598" lon="5.16047">
        <ele>371.95901489258</ele>
        <time>2010-11-03T14:02:09Z</time>
      </trkpt>
      <trkpt lat="45.0159" lon="5.16073">
        <ele>373.65200805664</ele>
        <time>2010-11-03T14:02:15Z</time>
      </trkpt>
      <trkpt lat="45.01588" lon="5.16093">
        <ele>374.88198852539</ele>
        <time>2010-11-03T14:02:20Z</time>
      </trkpt>
      <trkpt lat="45.01584" lon="5.16118">
        <ele>376.61199951172</ele>
        <time>2010-11-03T14:02:27Z</time>
      </trkpt>
      <trkpt lat="45.01572" lon="5.16135">
        <ele>377.64401245117</ele>
        <time>2010-11-03T14:02:33Z</time>
      </trkpt>
      <trkpt lat="45.01559" lon="5.16146">
        <ele>378.54998779297</ele>
        <time>2010-11-03T14:02:39Z</time>
      </trkpt>
      <trkpt lat="45.0155" lon="5.16152">
        <ele>378.97799682617</ele>
        <time>2010-11-03T14:02:46Z</time>
      </trkpt>
      <trkpt lat="45.01549" lon="5.16152">
        <ele>378.88198852539</ele>
        <time>2010-11-03T14:02:49Z</time>
      </trkpt>
      <trkpt lat="45.01547" lon="5.16156">
        <ele>379.17098999023</ele>
        <time>2010-11-03T14:06:33Z</time>
      </trkpt>
      <trkpt lat="45.01546" lon="5.16157">
        <ele>379.12298583984</ele>
        <time>2010-11-03T14:06:34Z</time>
      </trkpt>
      <trkpt lat="45.01546" lon="5.16157">
        <ele>379.17300415039</ele>
        <time>2010-11-03T14:06:36Z</time>
      </trkpt>
      <trkpt lat="45.01538" lon="5.16162">
        <ele>379.16400146484</ele>
        <time>2010-11-03T14:07:17Z</time>
      </trkpt>
      <trkpt lat="45.01522" lon="5.16175">
        <ele>378.52301025391</ele>
        <time>2010-11-03T14:07:23Z</time>
      </trkpt>
      <trkpt lat="45.01506" lon="5.16184">
        <ele>377.8869934082</ele>
        <time>2010-11-03T14:07:27Z</time>
      </trkpt>
      <trkpt lat="45.01484" lon="5.16193">
        <ele>376.79699707031</ele>
        <time>2010-11-03T14:07:31Z</time>
      </trkpt>
      <trkpt lat="45.01465" lon="5.16206">
        <ele>375.3210144043</ele>
        <time>2010-11-03T14:07:34Z</time>
      </trkpt>
      <trkpt lat="45.01433" lon="5.16249">
        <ele>371.69100952148</ele>
        <time>2010-11-03T14:07:40Z</time>
      </trkpt>
      <trkpt lat="45.01427" lon="5.16255">
        <ele>371.02899169922</ele>
        <time>2010-11-03T14:07:41Z</time>
      </trkpt>
      <trkpt lat="45.01402" lon="5.16279">
        <ele>368.76998901367</ele>
        <time>2010-11-03T14:07:45Z</time>
      </trkpt>
      <trkpt lat="45.01358" lon="5.16339">
        <ele>363.02700805664</ele>
        <time>2010-11-03T14:07:52Z</time>
      </trkpt>
      <trkpt lat="45.01315" lon="5.16396">
        <ele>358.3869934082</ele>
        <time>2010-11-03T14:07:58Z</time>
      </trkpt>
      <trkpt lat="45.01308" lon="5.16407">
        <ele>357.51098632812</ele>
        <time>2010-11-03T14:07:59Z</time>
      </trkpt>
      <trkpt lat="45.01294" lon="5.16458">
        <ele>354.01699829102</ele>
        <time>2010-11-03T14:08:03Z</time>
      </trkpt>
      <trkpt lat="45.01278" lon="5.16495">
        <ele>351.18499755859</ele>
        <time>2010-11-03T14:08:07Z</time>
      </trkpt>
      <trkpt lat="45.01269" lon="5.16499">
        <ele>350.77398681641</ele>
        <time>2010-11-03T14:08:08Z</time>
      </trkpt>
      <trkpt lat="45.01228" lon="5.16533">
        <ele>346.38598632812</ele>
        <time>2010-11-03T14:08:13Z</time>
      </trkpt>
      <trkpt lat="45.01201" lon="5.16577">
        <ele>342.92498779297</ele>
        <time>2010-11-03T14:08:17Z</time>
      </trkpt>
      <trkpt lat="45.01164" lon="5.16608">
        <ele>338.49899291992</ele>
        <time>2010-11-03T14:08:21Z</time>
      </trkpt>
      <trkpt lat="45.01144" lon="5.1662">
        <ele>337.18798828125</ele>
        <time>2010-11-03T14:08:23Z</time>
      </trkpt>
      <trkpt lat="45.01123" lon="5.16658">
        <ele>334.52801513672</ele>
        <time>2010-11-03T14:08:27Z</time>
      </trkpt>
      <trkpt lat="45.01127" lon="5.16681">
        <ele>333.89099121094</ele>
        <time>2010-11-03T14:08:29Z</time>
      </trkpt>
      <trkpt lat="45.0113" lon="5.16724">
        <ele>335.47698974609</ele>
        <time>2010-11-03T14:08:34Z</time>
      </trkpt>
      <trkpt lat="45.01125" lon="5.16737">
        <ele>335.56298828125</ele>
        <time>2010-11-03T14:08:36Z</time>
      </trkpt>
      <trkpt lat="45.01099" lon="5.16778">
        <ele>333.67700195312</ele>
        <time>2010-11-03T14:08:42Z</time>
      </trkpt>
      <trkpt lat="45.01072" lon="5.16814">
        <ele>331.6780090332</ele>
        <time>2010-11-03T14:08:47Z</time>
      </trkpt>
      <trkpt lat="45.01056" lon="5.16825">
        <ele>330.90899658203</ele>
        <time>2010-11-03T14:08:49Z</time>
      </trkpt>
      <trkpt lat="45.01031" lon="5.16838">
        <ele>328.61499023438</ele>
        <time>2010-11-03T14:08:52Z</time>
      </trkpt>
      <trkpt lat="45.01019" lon="5.16847">
        <ele>327.69198608398</ele>
        <time>2010-11-03T14:08:54Z</time>
      </trkpt>
      <trkpt lat="45.01015" lon="5.16862">
        <ele>326.5299987793</ele>
        <time>2010-11-03T14:08:57Z</time>
      </trkpt>
      <trkpt lat="45.01018" lon="5.1687">
        <ele>325.6549987793</ele>
        <time>2010-11-03T14:09:00Z</time>
      </trkpt>
      <trkpt lat="45.01027" lon="5.16877">
        <ele>324.51901245117</ele>
        <time>2010-11-03T14:09:07Z</time>
      </trkpt>
      <trkpt lat="45.01041" lon="5.16883">
        <ele>323.6669921875</ele>
        <time>2010-11-03T14:09:11Z</time>
      </trkpt>
      <trkpt lat="45.0107" lon="5.16892">
        <ele>321.7200012207</ele>
        <time>2010-11-03T14:09:16Z</time>
      </trkpt>
      <trkpt lat="45.0109" lon="5.16896">
        <ele>320.80200195312</ele>
        <time>2010-11-03T14:09:19Z</time>
      </trkpt>
      <trkpt lat="45.01112" lon="5.16906">
        <ele>319.73400878906</ele>
        <time>2010-11-03T14:09:22Z</time>
      </trkpt>
      <trkpt lat="45.01153" lon="5.16933">
        <ele>316.8630065918</ele>
        <time>2010-11-03T14:09:27Z</time>
      </trkpt>
      <trkpt lat="45.01216" lon="5.16959">
        <ele>311.85501098633</ele>
        <time>2010-11-03T14:09:33Z</time>
      </trkpt>
      <trkpt lat="45.01252" lon="5.1696">
        <ele>309.3869934082</ele>
        <time>2010-11-03T14:09:36Z</time>
      </trkpt>
      <trkpt lat="45.01312" lon="5.16974">
        <ele>304.45401000977</ele>
        <time>2010-11-03T14:09:41Z</time>
      </trkpt>
      <trkpt lat="45.01337" lon="5.16953">
        <ele>301.35598754883</ele>
        <time>2010-11-03T14:09:44Z</time>
      </trkpt>
      <trkpt lat="45.01339" lon="5.1694">
        <ele>301.10998535156</ele>
        <time>2010-11-03T14:09:45Z</time>
      </trkpt>
      <trkpt lat="45.01339" lon="5.16927">
        <ele>300.92498779297</ele>
        <time>2010-11-03T14:09:46Z</time>
      </trkpt>
      <trkpt lat="45.01353" lon="5.16885">
        <ele>299.23001098633</ele>
        <time>2010-11-03T14:09:50Z</time>
      </trkpt>
      <trkpt lat="45.01374" lon="5.16888">
        <ele>297.37600708008</ele>
        <time>2010-11-03T14:09:52Z</time>
      </trkpt>
      <trkpt lat="45.01448" lon="5.16913">
        <ele>291.78100585938</ele>
        <time>2010-11-03T14:09:59Z</time>
      </trkpt>
      <trkpt lat="45.01459" lon="5.16917">
        <ele>290.91101074219</ele>
        <time>2010-11-03T14:10:00Z</time>
      </trkpt>
      <trkpt lat="45.01501" lon="5.16949">
        <ele>288.05499267578</ele>
        <time>2010-11-03T14:10:04Z</time>
      </trkpt>
      <trkpt lat="45.0151" lon="5.16961">
        <ele>287.24398803711</ele>
        <time>2010-11-03T14:10:05Z</time>
      </trkpt>
      <trkpt lat="45.01527" lon="5.16985">
        <ele>285.38299560547</ele>
        <time>2010-11-03T14:10:07Z</time>
      </trkpt>
      <trkpt lat="45.0157" lon="5.17022">
        <ele>281.92599487305</ele>
        <time>2010-11-03T14:10:11Z</time>
      </trkpt>
      <trkpt lat="45.01628" lon="5.1705">
        <ele>275.8869934082</ele>
        <time>2010-11-03T14:10:16Z</time>
      </trkpt>
      <trkpt lat="45.01637" lon="5.17053">
        <ele>274.61700439453</ele>
        <time>2010-11-03T14:10:17Z</time>
      </trkpt>
      <trkpt lat="45.01663" lon="5.17038">
        <ele>272.09698486328</ele>
        <time>2010-11-03T14:10:20Z</time>
      </trkpt>
      <trkpt lat="45.01669" lon="5.17026">
        <ele>271.34399414062</ele>
        <time>2010-11-03T14:10:21Z</time>
      </trkpt>
      <trkpt lat="45.01699" lon="5.16996">
        <ele>268.35800170898</ele>
        <time>2010-11-03T14:10:25Z</time>
      </trkpt>
      <trkpt lat="45.01717" lon="5.17008">
        <ele>266.98498535156</ele>
        <time>2010-11-03T14:10:27Z</time>
      </trkpt>
      <trkpt lat="45.0173" lon="5.1703">
        <ele>265.41000366211</ele>
        <time>2010-11-03T14:10:29Z</time>
      </trkpt>
      <trkpt lat="45.01746" lon="5.17067">
        <ele>263.24600219727</ele>
        <time>2010-11-03T14:10:32Z</time>
      </trkpt>
      <trkpt lat="45.0178" lon="5.171">
        <ele>260.41000366211</ele>
        <time>2010-11-03T14:10:36Z</time>
      </trkpt>
      <trkpt lat="45.01821" lon="5.17109">
        <ele>259.16500854492</ele>
        <time>2010-11-03T14:10:40Z</time>
      </trkpt>
      <trkpt lat="45.01868" lon="5.17093">
        <ele>257.21301269531</ele>
        <time>2010-11-03T14:10:45Z</time>
      </trkpt>
      <trkpt lat="45.01923" lon="5.17066">
        <ele>257.28100585938</ele>
        <time>2010-11-03T14:10:52Z</time>
      </trkpt>
      <trkpt lat="45.01943" lon="5.17056">
        <ele>257.6549987793</ele>
        <time>2010-11-03T14:10:55Z</time>
      </trkpt>
      <trkpt lat="45.01989" lon="5.17037">
        <ele>256.91598510742</ele>
        <time>2010-11-03T14:11:02Z</time>
      </trkpt>
      <trkpt lat="45.02044" lon="5.17025">
        <ele>255.66499328613</ele>
        <time>2010-11-03T14:11:10Z</time>
      </trkpt>
      <trkpt lat="45.02083" lon="5.17018">
        <ele>254.79400634766</ele>
        <time>2010-11-03T14:11:16Z</time>
      </trkpt>
      <trkpt lat="45.02102" lon="5.17015">
        <ele>254.61799621582</ele>
        <time>2010-11-03T14:11:19Z</time>
      </trkpt>
      <trkpt lat="45.02127" lon="5.17018">
        <ele>254.81700134277</ele>
        <time>2010-11-03T14:11:23Z</time>
      </trkpt>
      <trkpt lat="45.02149" lon="5.17028">
        <ele>254.68600463867</ele>
        <time>2010-11-03T14:11:27Z</time>
      </trkpt>
      <trkpt lat="45.02172" lon="5.17029">
        <ele>254.97700500488</ele>
        <time>2010-11-03T14:11:31Z</time>
      </trkpt>
      <trkpt lat="45.02213" lon="5.17013">
        <ele>253.71499633789</ele>
        <time>2010-11-03T14:11:38Z</time>
      </trkpt>
      <trkpt lat="45.02261" lon="5.16997">
        <ele>252.05299377441</ele>
        <time>2010-11-03T14:11:45Z</time>
      </trkpt>
      <trkpt lat="45.02303" lon="5.16992">
        <ele>251.67100524902</ele>
        <time>2010-11-03T14:11:51Z</time>
      </trkpt>
      <trkpt lat="45.0234" lon="5.17002">
        <ele>252.51300048828</ele>
        <time>2010-11-03T14:11:57Z</time>
      </trkpt>
      <trkpt lat="45.02372" lon="5.17015">
        <ele>253.60099792481</ele>
        <time>2010-11-03T14:12:03Z</time>
      </trkpt>
      <trkpt lat="45.02402" lon="5.17025">
        <ele>255.54200744629</ele>
        <time>2010-11-03T14:12:10Z</time>
      </trkpt>
      <trkpt lat="45.02424" lon="5.17032">
        <ele>256.77301025391</ele>
        <time>2010-11-03T14:12:15Z</time>
      </trkpt>
      <trkpt lat="45.02442" lon="5.17039">
        <ele>257.59298706055</ele>
        <time>2010-11-03T14:12:19Z</time>
      </trkpt>
      <trkpt lat="45.02456" lon="5.17043">
        <ele>258.20599365234</ele>
        <time>2010-11-03T14:12:22Z</time>
      </trkpt>
      <trkpt lat="45.02499" lon="5.17055">
        <ele>259.76300048828</ele>
        <time>2010-11-03T14:12:31Z</time>
      </trkpt>
      <trkpt lat="45.02524" lon="5.17055">
        <ele>260.86401367188</ele>
        <time>2010-11-03T14:12:37Z</time>
      </trkpt>
      <trkpt lat="45.02546" lon="5.17062">
        <ele>262.1969909668</ele>
        <time>2010-11-03T14:12:43Z</time>
      </trkpt>
      <trkpt lat="45.0256" lon="5.17081">
        <ele>262.96200561523</ele>
        <time>2010-11-03T14:12:48Z</time>
      </trkpt>
      <trkpt lat="45.02567" lon="5.1711">
        <ele>263.25500488281</ele>
        <time>2010-11-03T14:12:54Z</time>
      </trkpt>
      <trkpt lat="45.02569" lon="5.17128">
        <ele>263.07699584961</ele>
        <time>2010-11-03T14:12:57Z</time>
      </trkpt>
      <trkpt lat="45.02575" lon="5.17174">
        <ele>261.50100708008</ele>
        <time>2010-11-03T14:13:03Z</time>
      </trkpt>
      <trkpt lat="45.02583" lon="5.17238">
        <ele>258.70700073242</ele>
        <time>2010-11-03T14:13:09Z</time>
      </trkpt>
      <trkpt lat="45.02588" lon="5.17283">
        <ele>257.30599975586</ele>
        <time>2010-11-03T14:13:13Z</time>
      </trkpt>
      <trkpt lat="45.02605" lon="5.17326">
        <ele>257.37200927734</ele>
        <time>2010-11-03T14:13:18Z</time>
      </trkpt>
      <trkpt lat="45.0262" lon="5.17339">
        <ele>257.57800292969</ele>
        <time>2010-11-03T14:13:21Z</time>
      </trkpt>
      <trkpt lat="45.0267" lon="5.17361">
        <ele>256.22601318359</ele>
        <time>2010-11-03T14:13:29Z</time>
      </trkpt>
      <trkpt lat="45.02708" lon="5.17377">
        <ele>255.15899658203</ele>
        <time>2010-11-03T14:13:35Z</time>
      </trkpt>
      <trkpt lat="45.02752" lon="5.17395">
        <ele>253.91000366211</ele>
        <time>2010-11-03T14:13:42Z</time>
      </trkpt>
      <trkpt lat="45.02785" lon="5.17408">
        <ele>254.00199890137</ele>
        <time>2010-11-03T14:13:48Z</time>
      </trkpt>
      <trkpt lat="45.02795" lon="5.1741">
        <ele>254.14900207519</ele>
        <time>2010-11-03T14:13:50Z</time>
      </trkpt>
      <trkpt lat="45.02815" lon="5.17419">
        <ele>255.63600158691</ele>
        <time>2010-11-03T14:13:55Z</time>
      </trkpt>
      <trkpt lat="45.02824" lon="5.17428">
        <ele>256.31201171875</ele>
        <time>2010-11-03T14:13:59Z</time>
      </trkpt>
      <trkpt lat="45.02836" lon="5.17431">
        <ele>255.65400695801</ele>
        <time>2010-11-03T14:14:03Z</time>
      </trkpt>
      <trkpt lat="45.02864" lon="5.17426">
        <ele>253.79800415039</ele>
        <time>2010-11-03T14:14:09Z</time>
      </trkpt>
      <trkpt lat="45.02871" lon="5.17426">
        <ele>253.51300048828</ele>
        <time>2010-11-03T14:14:11Z</time>
      </trkpt>
      <trkpt lat="45.02874" lon="5.17446">
        <ele>252.74699401856</ele>
        <time>2010-11-03T14:14:15Z</time>
      </trkpt>
      <trkpt lat="45.02872" lon="5.17458">
        <ele>252.31700134277</ele>
        <time>2010-11-03T14:14:17Z</time>
      </trkpt>
      <trkpt lat="45.02867" lon="5.17476">
        <ele>251.70899963379</ele>
        <time>2010-11-03T14:14:20Z</time>
      </trkpt>
      <trkpt lat="45.02868" lon="5.17507">
        <ele>251.15400695801</ele>
        <time>2010-11-03T14:14:24Z</time>
      </trkpt>
      <trkpt lat="45.02874" lon="5.17521">
        <ele>250.65699768066</ele>
        <time>2010-11-03T14:14:26Z</time>
      </trkpt>
      <trkpt lat="45.02906" lon="5.17562">
        <ele>249.10699462891</ele>
        <time>2010-11-03T14:14:33Z</time>
      </trkpt>
      <trkpt lat="45.02925" lon="5.1758">
        <ele>249.30099487305</ele>
        <time>2010-11-03T14:14:37Z</time>
      </trkpt>
      <trkpt lat="45.02946" lon="5.176">
        <ele>250.09300231934</ele>
        <time>2010-11-03T14:14:42Z</time>
      </trkpt>
      <trkpt lat="45.02963" lon="5.17605">
        <ele>250.71099853516</ele>
        <time>2010-11-03T14:14:46Z</time>
      </trkpt>
      <trkpt lat="45.02968" lon="5.17603">
        <ele>250.77499389648</ele>
        <time>2010-11-03T14:14:47Z</time>
      </trkpt>
      <trkpt lat="45.02999" lon="5.17585">
        <ele>250.22200012207</ele>
        <time>2010-11-03T14:14:54Z</time>
      </trkpt>
      <trkpt lat="45.03012" lon="5.17575">
        <ele>249.97300720215</ele>
        <time>2010-11-03T14:14:57Z</time>
      </trkpt>
      <trkpt lat="45.03047" lon="5.17548">
        <ele>248.86700439453</ele>
        <time>2010-11-03T14:15:04Z</time>
      </trkpt>
      <trkpt lat="45.03089" lon="5.17509">
        <ele>247.24299621582</ele>
        <time>2010-11-03T14:15:12Z</time>
      </trkpt>
      <trkpt lat="45.03105" lon="5.17493">
        <ele>246.77499389648</ele>
        <time>2010-11-03T14:15:15Z</time>
      </trkpt>
      <trkpt lat="45.03154" lon="5.17444">
        <ele>244.68200683594</ele>
        <time>2010-11-03T14:15:24Z</time>
      </trkpt>
      <trkpt lat="45.0321" lon="5.17386">
        <ele>242.51300048828</ele>
        <time>2010-11-03T14:15:34Z</time>
      </trkpt>
      <trkpt lat="45.03282" lon="5.17322">
        <ele>240.42199707031</ele>
        <time>2010-11-03T14:15:46Z</time>
      </trkpt>
      <trkpt lat="45.03339" lon="5.1728">
        <ele>238.53900146484</ele>
        <time>2010-11-03T14:15:55Z</time>
      </trkpt>
      <trkpt lat="45.03374" lon="5.17247">
        <ele>237.36399841309</ele>
        <time>2010-11-03T14:16:01Z</time>
      </trkpt>
      <trkpt lat="45.03403" lon="5.17208">
        <ele>236.74600219727</ele>
        <time>2010-11-03T14:16:07Z</time>
      </trkpt>
      <trkpt lat="45.03435" lon="5.1718">
        <ele>235.72200012207</ele>
        <time>2010-11-03T14:16:13Z</time>
      </trkpt>
      <trkpt lat="45.0347" lon="5.17168">
        <ele>235.06300354004</ele>
        <time>2010-11-03T14:16:19Z</time>
      </trkpt>
      <trkpt lat="45.03524" lon="5.17155">
        <ele>233.00700378418</ele>
        <time>2010-11-03T14:16:28Z</time>
      </trkpt>
      <trkpt lat="45.03544" lon="5.17148">
        <ele>232.35400390625</ele>
        <time>2010-11-03T14:16:31Z</time>
      </trkpt>
      <trkpt lat="45.03559" lon="5.17143">
        <ele>231.43400573731</ele>
        <time>2010-11-03T14:16:33Z</time>
      </trkpt>
      <trkpt lat="45.03583" lon="5.17129">
        <ele>229.65699768066</ele>
        <time>2010-11-03T14:16:36Z</time>
      </trkpt>
      <trkpt lat="45.03634" lon="5.17104">
        <ele>225.22700500488</ele>
        <time>2010-11-03T14:16:41Z</time>
      </trkpt>
      <trkpt lat="45.03681" lon="5.17078">
        <ele>220.68099975586</ele>
        <time>2010-11-03T14:16:45Z</time>
      </trkpt>
      <trkpt lat="45.03704" lon="5.17059">
        <ele>218.41999816894</ele>
        <time>2010-11-03T14:16:47Z</time>
      </trkpt>
      <trkpt lat="45.03752" lon="5.16999">
        <ele>215.53199768066</ele>
        <time>2010-11-03T14:16:52Z</time>
      </trkpt>
      <trkpt lat="45.03802" lon="5.16933">
        <ele>215.52000427246</ele>
        <time>2010-11-03T14:16:58Z</time>
      </trkpt>
      <trkpt lat="45.03851" lon="5.16884">
        <ele>214.94599914551</ele>
        <time>2010-11-03T14:17:04Z</time>
      </trkpt>
      <trkpt lat="45.039" lon="5.16844">
        <ele>209.55000305176</ele>
        <time>2010-11-03T14:17:10Z</time>
      </trkpt>
      <trkpt lat="45.03909" lon="5.16838">
        <ele>209.30299377441</ele>
        <time>2010-11-03T14:17:11Z</time>
      </trkpt>
      <trkpt lat="45.03949" lon="5.16803">
        <ele>207.34599304199</ele>
        <time>2010-11-03T14:17:16Z</time>
      </trkpt>
      <trkpt lat="45.03996" lon="5.1674">
        <ele>204.6130065918</ele>
        <time>2010-11-03T14:17:23Z</time>
      </trkpt>
      <trkpt lat="45.0405" lon="5.1669">
        <ele>202.07299804688</ele>
        <time>2010-11-03T14:17:30Z</time>
      </trkpt>
      <trkpt lat="45.04103" lon="5.16646">
        <ele>200.25300598144</ele>
        <time>2010-11-03T14:17:37Z</time>
      </trkpt>
      <trkpt lat="45.04159" lon="5.16603">
        <ele>199.26699829102</ele>
        <time>2010-11-03T14:17:45Z</time>
      </trkpt>
      <trkpt lat="45.04214" lon="5.16553">
        <ele>197.85400390625</ele>
        <time>2010-11-03T14:17:54Z</time>
      </trkpt>
      <trkpt lat="45.04258" lon="5.16512">
        <ele>195.89599609375</ele>
        <time>2010-11-03T14:18:01Z</time>
      </trkpt>
      <trkpt lat="45.04287" lon="5.16488">
        <ele>194.18200683594</ele>
        <time>2010-11-03T14:18:05Z</time>
      </trkpt>
      <trkpt lat="45.04319" lon="5.16474">
        <ele>193.50900268555</ele>
        <time>2010-11-03T14:18:09Z</time>
      </trkpt>
      <trkpt lat="45.04357" lon="5.16472">
        <ele>192.99099731445</ele>
        <time>2010-11-03T14:18:14Z</time>
      </trkpt>
      <trkpt lat="45.04392" lon="5.16482">
        <ele>193.25700378418</ele>
        <time>2010-11-03T14:18:19Z</time>
      </trkpt>
      <trkpt lat="45.04419" lon="5.16502">
        <ele>194.07400512695</ele>
        <time>2010-11-03T14:18:24Z</time>
      </trkpt>
      <trkpt lat="45.04429" lon="5.16509">
        <ele>194.52900695801</ele>
        <time>2010-11-03T14:18:26Z</time>
      </trkpt>
      <trkpt lat="45.04455" lon="5.16525">
        <ele>195.59599304199</ele>
        <time>2010-11-03T14:18:31Z</time>
      </trkpt>
      <trkpt lat="45.04472" lon="5.16531">
        <ele>196.41299438477</ele>
        <time>2010-11-03T14:18:34Z</time>
      </trkpt>
      <trkpt lat="45.04495" lon="5.16529">
        <ele>197.00199890137</ele>
        <time>2010-11-03T14:18:38Z</time>
      </trkpt>
      <trkpt lat="45.04506" lon="5.16523">
        <ele>197.41999816894</ele>
        <time>2010-11-03T14:18:40Z</time>
      </trkpt>
      <trkpt lat="45.04517" lon="5.16516">
        <ele>197.68800354004</ele>
        <time>2010-11-03T14:18:42Z</time>
      </trkpt>
      <trkpt lat="45.04527" lon="5.16506">
        <ele>197.84899902344</ele>
        <time>2010-11-03T14:18:44Z</time>
      </trkpt>
      <trkpt lat="45.04547" lon="5.16475">
        <ele>198.5950012207</ele>
        <time>2010-11-03T14:18:49Z</time>
      </trkpt>
      <trkpt lat="45.04564" lon="5.16431">
        <ele>198.86500549316</ele>
        <time>2010-11-03T14:18:55Z</time>
      </trkpt>
      <trkpt lat="45.04574" lon="5.16398">
        <ele>198.42300415039</ele>
        <time>2010-11-03T14:18:59Z</time>
      </trkpt>
      <trkpt lat="45.04597" lon="5.16366">
        <ele>198.30999755859</ele>
        <time>2010-11-03T14:19:04Z</time>
      </trkpt>
      <trkpt lat="45.04609" lon="5.16361">
        <ele>198.32499694824</ele>
        <time>2010-11-03T14:19:06Z</time>
      </trkpt>
      <trkpt lat="45.04691" lon="5.16337">
        <ele>198.4880065918</ele>
        <time>2010-11-03T14:19:19Z</time>
      </trkpt>
      <trkpt lat="45.04763" lon="5.16316">
        <ele>198.73500061035</ele>
        <time>2010-11-03T14:19:30Z</time>
      </trkpt>
      <trkpt lat="45.04811" lon="5.1631">
        <ele>197.50799560547</ele>
        <time>2010-11-03T14:19:37Z</time>
      </trkpt>
      <trkpt lat="45.04844" lon="5.16307">
        <ele>197.89999389648</ele>
        <time>2010-11-03T14:19:43Z</time>
      </trkpt>
      <trkpt lat="45.04863" lon="5.16305">
        <ele>197.90100097656</ele>
        <time>2010-11-03T14:19:48Z</time>
      </trkpt>
      <trkpt lat="45.04877" lon="5.16304">
        <ele>197.89700317383</ele>
        <time>2010-11-03T14:19:53Z</time>
      </trkpt>
      <trkpt lat="45.04888" lon="5.16305">
        <ele>197.89399719238</ele>
        <time>2010-11-03T14:19:58Z</time>
      </trkpt>
      <trkpt lat="45.04897" lon="5.16308">
        <ele>196.95199584961</ele>
        <time>2010-11-03T14:20:04Z</time>
      </trkpt>
      <trkpt lat="45.04897" lon="5.16308">
        <ele>196.91999816894</ele>
        <time>2010-11-03T14:20:05Z</time>
      </trkpt>
      <trkpt lat="45.04898" lon="5.16308">
        <ele>196.88299560547</ele>
        <time>2010-11-03T14:20:24Z</time>
      </trkpt>
      <trkpt lat="45.04901" lon="5.16308">
        <ele>196.85800170898</ele>
        <time>2010-11-03T14:20:31Z</time>
      </trkpt>
      <trkpt lat="45.04901" lon="5.16308">
        <ele>196.87300109863</ele>
        <time>2010-11-03T14:20:32Z</time>
      </trkpt>
      <trkpt lat="45.04905" lon="5.16312">
        <ele>197.07600402832</ele>
        <time>2010-11-03T14:20:43Z</time>
      </trkpt>
      <trkpt lat="45.04916" lon="5.16323">
        <ele>196.97599792481</ele>
        <time>2010-11-03T14:20:48Z</time>
      </trkpt>
      <trkpt lat="45.04927" lon="5.16323">
        <ele>197.09199523926</ele>
        <time>2010-11-03T14:20:51Z</time>
      </trkpt>
      <trkpt lat="45.04939" lon="5.16304">
        <ele>196.96000671387</ele>
        <time>2010-11-03T14:20:55Z</time>
      </trkpt>
      <trkpt lat="45.04936" lon="5.16284">
        <ele>197.16000366211</ele>
        <time>2010-11-03T14:20:58Z</time>
      </trkpt>
      <trkpt lat="45.04934" lon="5.16278">
        <ele>197.19099426269</ele>
        <time>2010-11-03T14:20:59Z</time>
      </trkpt>
      <trkpt lat="45.04927" lon="5.16265">
        <ele>197.21699523926</ele>
        <time>2010-11-03T14:21:01Z</time>
      </trkpt>
      <trkpt lat="45.04921" lon="5.16243">
        <ele>197.15299987793</ele>
        <time>2010-11-03T14:21:04Z</time>
      </trkpt>
      <trkpt lat="45.04914" lon="5.16184">
        <ele>196.87199401856</ele>
        <time>2010-11-03T14:21:11Z</time>
      </trkpt>
      <trkpt lat="45.04919" lon="5.16154">
        <ele>196.93400573731</ele>
        <time>2010-11-03T14:21:15Z</time>
      </trkpt>
      <trkpt lat="45.04921" lon="5.16147">
        <ele>196.93299865723</ele>
        <time>2010-11-03T14:21:16Z</time>
      </trkpt>
      <trkpt lat="45.04921" lon="5.16112">
        <ele>197</ele>
        <time>2010-11-03T14:21:21Z</time>
      </trkpt>
      <trkpt lat="45.04919" lon="5.16099">
        <ele>196.97799682617</ele>
        <time>2010-11-03T14:21:23Z</time>
      </trkpt>
      <trkpt lat="45.04915" lon="5.16079">
        <ele>196.96699523926</ele>
        <time>2010-11-03T14:21:26Z</time>
      </trkpt>
      <trkpt lat="45.04906" lon="5.1606">
        <ele>196.7140045166</ele>
        <time>2010-11-03T14:21:30Z</time>
      </trkpt>
      <trkpt lat="45.04904" lon="5.16051">
        <ele>196.90100097656</ele>
        <time>2010-11-03T14:21:32Z</time>
      </trkpt>
      <trkpt lat="45.04902" lon="5.16003">
        <ele>196.45300292969</ele>
        <time>2010-11-03T14:21:40Z</time>
      </trkpt>
      <trkpt lat="45.04903" lon="5.15944">
        <ele>196.45700073242</ele>
        <time>2010-11-03T14:21:48Z</time>
      </trkpt>
      <trkpt lat="45.04907" lon="5.15874">
        <ele>196.07899475098</ele>
        <time>2010-11-03T14:21:57Z</time>
      </trkpt>
      <trkpt lat="45.04914" lon="5.15806">
        <ele>195.54899597168</ele>
        <time>2010-11-03T14:22:05Z</time>
      </trkpt>
      <trkpt lat="45.04923" lon="5.15727">
        <ele>195.13800048828</ele>
        <time>2010-11-03T14:22:14Z</time>
      </trkpt>
      <trkpt lat="45.04924" lon="5.1571">
        <ele>194.93200683594</ele>
        <time>2010-11-03T14:22:16Z</time>
      </trkpt>
      <trkpt lat="45.04924" lon="5.15681">
        <ele>194.54699707031</ele>
        <time>2010-11-03T14:22:21Z</time>
      </trkpt>
      <trkpt lat="45.04929" lon="5.15681">
        <ele>194.18699645996</ele>
        <time>2010-11-03T14:22:23Z</time>
      </trkpt>
      <trkpt lat="45.0495" lon="5.15686">
        <ele>193.66400146484</ele>
        <time>2010-11-03T14:22:29Z</time>
      </trkpt>
      <trkpt lat="45.04953" lon="5.15686">
        <ele>193.43899536133</ele>
        <time>2010-11-03T14:22:30Z</time>
      </trkpt>
      <trkpt lat="45.04976" lon="5.15701">
        <ele>192.24800109863</ele>
        <time>2010-11-03T14:22:35Z</time>
      </trkpt>
      <trkpt lat="45.04997" lon="5.15734">
        <ele>190.38800048828</ele>
        <time>2010-11-03T14:22:40Z</time>
      </trkpt>
      <trkpt lat="45.05015" lon="5.15744">
        <ele>189.10099792481</ele>
        <time>2010-11-03T14:22:44Z</time>
      </trkpt>
      <trkpt lat="45.05019" lon="5.15744">
        <ele>188.85800170898</ele>
        <time>2010-11-03T14:22:45Z</time>
      </trkpt>
      <trkpt lat="45.05034" lon="5.15761">
        <ele>187.68600463867</ele>
        <time>2010-11-03T14:22:50Z</time>
      </trkpt>
      <trkpt lat="45.05037" lon="5.15765">
        <ele>187.37199401856</ele>
        <time>2010-11-03T14:22:51Z</time>
      </trkpt>
      <trkpt lat="45.0506" lon="5.15797">
        <ele>185.2799987793</ele>
        <time>2010-11-03T14:22:57Z</time>
      </trkpt>
      <trkpt lat="45.05082" lon="5.15839">
        <ele>183.15600585938</ele>
        <time>2010-11-03T14:23:02Z</time>
      </trkpt>
      <trkpt lat="45.05109" lon="5.15895">
        <ele>179.92399597168</ele>
        <time>2010-11-03T14:23:07Z</time>
      </trkpt>
      <trkpt lat="45.05138" lon="5.1594">
        <ele>176.32499694824</ele>
        <time>2010-11-03T14:23:11Z</time>
      </trkpt>
      <trkpt lat="45.0517" lon="5.15986">
        <ele>172.40899658203</ele>
        <time>2010-11-03T14:23:15Z</time>
      </trkpt>
      <trkpt lat="45.05218" lon="5.16071">
        <ele>165.61500549316</ele>
        <time>2010-11-03T14:23:21Z</time>
      </trkpt>
      <trkpt lat="45.05224" lon="5.16083">
        <ele>164</ele>
        <time>2010-11-03T14:23:22Z</time>
      </trkpt>
      <trkpt lat="45.05254" lon="5.16121">
        <ele>160.43499755859</ele>
        <time>2010-11-03T14:23:26Z</time>
      </trkpt>
      <trkpt lat="45.05289" lon="5.16146">
        <ele>158.68400573731</ele>
        <time>2010-11-03T14:23:30Z</time>
      </trkpt>
      <trkpt lat="45.05325" lon="5.16169">
        <ele>159.3390045166</ele>
        <time>2010-11-03T14:23:35Z</time>
      </trkpt>
      <trkpt lat="45.05357" lon="5.16197">
        <ele>159.07299804688</ele>
        <time>2010-11-03T14:23:41Z</time>
      </trkpt>
      <trkpt lat="45.05368" lon="5.1622">
        <ele>159.49600219727</ele>
        <time>2010-11-03T14:23:45Z</time>
      </trkpt>
      <trkpt lat="45.05376" lon="5.16217">
        <ele>159.45399475098</ele>
        <time>2010-11-03T14:23:49Z</time>
      </trkpt>
      <trkpt lat="45.05376" lon="5.16215">
        <ele>159.26600646973</ele>
        <time>2010-11-03T14:23:50Z</time>
      </trkpt>
      <trkpt lat="45.05384" lon="5.16213">
        <ele>158.96499633789</ele>
        <time>2010-11-03T14:23:56Z</time>
      </trkpt>
      <trkpt lat="45.05398" lon="5.16219">
        <ele>159.77900695801</ele>
        <time>2010-11-03T14:24:02Z</time>
      </trkpt>
      <trkpt lat="45.05409" lon="5.16223">
        <ele>160.37600708008</ele>
        <time>2010-11-03T14:24:06Z</time>
      </trkpt>
      <trkpt lat="45.05414" lon="5.16225">
        <ele>160.84800720215</ele>
        <time>2010-11-03T14:24:08Z</time>
      </trkpt>
      <trkpt lat="45.05426" lon="5.1623">
        <ele>161.51100158691</ele>
        <time>2010-11-03T14:24:13Z</time>
      </trkpt>
      <trkpt lat="45.05442" lon="5.16238">
        <ele>161.56100463867</ele>
        <time>2010-11-03T14:24:20Z</time>
      </trkpt>
      <trkpt lat="45.05454" lon="5.16244">
        <ele>161.56300354004</ele>
        <time>2010-11-03T14:24:27Z</time>
      </trkpt>
      <trkpt lat="45.05466" lon="5.16251">
        <ele>162.00799560547</ele>
        <time>2010-11-03T14:24:33Z</time>
      </trkpt>
      <trkpt lat="45.05482" lon="5.16265">
        <ele>161.46699523926</ele>
        <time>2010-11-03T14:24:39Z</time>
      </trkpt>
      <trkpt lat="45.05495" lon="5.16275">
        <ele>160.62699890137</ele>
        <time>2010-11-03T14:24:44Z</time>
      </trkpt>
      <trkpt lat="45.05513" lon="5.16288">
        <ele>159.79299926758</ele>
        <time>2010-11-03T14:24:49Z</time>
      </trkpt>
      <trkpt lat="45.0554" lon="5.16304">
        <ele>158.57800292969</ele>
        <time>2010-11-03T14:24:55Z</time>
      </trkpt>
      <trkpt lat="45.05571" lon="5.16316">
        <ele>157.25199890137</ele>
        <time>2010-11-03T14:25:02Z</time>
      </trkpt>
      <trkpt lat="45.05589" lon="5.16322">
        <ele>156.48100280762</ele>
        <time>2010-11-03T14:25:06Z</time>
      </trkpt>
      <trkpt lat="45.05617" lon="5.16329">
        <ele>155.19500732422</ele>
        <time>2010-11-03T14:25:12Z</time>
      </trkpt>
      <trkpt lat="45.05634" lon="5.16338">
        <ele>155.08999633789</ele>
        <time>2010-11-03T14:25:17Z</time>
      </trkpt>
      <trkpt lat="45.05643" lon="5.16343">
        <ele>155.10000610352</ele>
        <time>2010-11-03T14:25:21Z</time>
      </trkpt>
      <trkpt lat="45.05653" lon="5.16346">
        <ele>154.68699645996</ele>
        <time>2010-11-03T14:25:26Z</time>
      </trkpt>
      <trkpt lat="45.05666" lon="5.16349">
        <ele>154.26899719238</ele>
        <time>2010-11-03T14:25:33Z</time>
      </trkpt>
      <trkpt lat="45.05677" lon="5.16352">
        <ele>154.0890045166</ele>
        <time>2010-11-03T14:25:40Z</time>
      </trkpt>
      <trkpt lat="45.05693" lon="5.16356">
        <ele>153.64100646973</ele>
        <time>2010-11-03T14:25:48Z</time>
      </trkpt>
      <trkpt lat="45.05708" lon="5.16359">
        <ele>153.26300048828</ele>
        <time>2010-11-03T14:25:53Z</time>
      </trkpt>
      <trkpt lat="45.05724" lon="5.16363">
        <ele>152.77799987793</ele>
        <time>2010-11-03T14:25:58Z</time>
      </trkpt>
      <trkpt lat="45.05732" lon="5.16364">
        <ele>152.6190032959</ele>
        <time>2010-11-03T14:26:00Z</time>
      </trkpt>
      <trkpt lat="45.05736" lon="5.16365">
        <ele>152.57499694824</ele>
        <time>2010-11-03T14:26:01Z</time>
      </trkpt>
      <trkpt lat="45.05751" lon="5.16368">
        <ele>151.95399475098</ele>
        <time>2010-11-03T14:26:06Z</time>
      </trkpt>
      <trkpt lat="45.05753" lon="5.16369">
        <ele>151.72300720215</ele>
        <time>2010-11-03T14:26:09Z</time>
      </trkpt>
      <trkpt lat="45.05756" lon="5.16368">
        <ele>151.85299682617</ele>
        <time>2010-11-03T14:26:16Z</time>
      </trkpt>
      <trkpt lat="45.05758" lon="5.16368">
        <ele>151.74600219727</ele>
        <time>2010-11-03T14:26:17Z</time>
      </trkpt>
      <trkpt lat="45.05774" lon="5.16372">
        <ele>151.83799743652</ele>
        <time>2010-11-03T14:26:22Z</time>
      </trkpt>
      <trkpt lat="45.05791" lon="5.16374">
        <ele>152.00900268555</ele>
        <time>2010-11-03T14:26:27Z</time>
      </trkpt>
      <trkpt lat="45.05816" lon="5.16379">
        <ele>152.17500305176</ele>
        <time>2010-11-03T14:26:34Z</time>
      </trkpt>
      <trkpt lat="45.05844" lon="5.16384">
        <ele>152.75500488281</ele>
        <time>2010-11-03T14:26:42Z</time>
      </trkpt>
      <trkpt lat="45.05865" lon="5.16388">
        <ele>153.82600402832</ele>
        <time>2010-11-03T14:26:48Z</time>
      </trkpt>
      <trkpt lat="45.05879" lon="5.16391">
        <ele>154.55299377441</ele>
        <time>2010-11-03T14:26:53Z</time>
      </trkpt>
      <trkpt lat="45.05895" lon="5.16393">
        <ele>155.97099304199</ele>
        <time>2010-11-03T14:26:59Z</time>
      </trkpt>
      <trkpt lat="45.05915" lon="5.16394">
        <ele>157.74600219727</ele>
        <time>2010-11-03T14:27:06Z</time>
      </trkpt>
      <trkpt lat="45.05936" lon="5.16395">
        <ele>159.44099426269</ele>
        <time>2010-11-03T14:27:12Z</time>
      </trkpt>
      <trkpt lat="45.05947" lon="5.16396">
        <ele>160.27699279785</ele>
        <time>2010-11-03T14:27:15Z</time>
      </trkpt>
      <trkpt lat="45.0597" lon="5.16396">
        <ele>161.75300598144</ele>
        <time>2010-11-03T14:27:21Z</time>
      </trkpt>
      <trkpt lat="45.05989" lon="5.16396">
        <ele>162.72900390625</ele>
        <time>2010-11-03T14:27:26Z</time>
      </trkpt>
      <trkpt lat="45.06013" lon="5.16398">
        <ele>163.50399780273</ele>
        <time>2010-11-03T14:27:32Z</time>
      </trkpt>
      <trkpt lat="45.06033" lon="5.16394">
        <ele>163.21699523926</ele>
        <time>2010-11-03T14:27:38Z</time>
      </trkpt>
      <trkpt lat="45.06057" lon="5.1639">
        <ele>163.28399658203</ele>
        <time>2010-11-03T14:27:46Z</time>
      </trkpt>
      <trkpt lat="45.06076" lon="5.16386">
        <ele>163.38299560547</ele>
        <time>2010-11-03T14:27:53Z</time>
      </trkpt>
      <trkpt lat="45.06097" lon="5.16386">
        <ele>163.55700683594</ele>
        <time>2010-11-03T14:27:59Z</time>
      </trkpt>
      <trkpt lat="45.06135" lon="5.16387">
        <ele>163.98899841309</ele>
        <time>2010-11-03T14:28:09Z</time>
      </trkpt>
      <trkpt lat="45.06157" lon="5.16388">
        <ele>164.10800170898</ele>
        <time>2010-11-03T14:28:15Z</time>
      </trkpt>
      <trkpt lat="45.06177" lon="5.16392">
        <ele>164.25</ele>
        <time>2010-11-03T14:28:22Z</time>
      </trkpt>
      <trkpt lat="45.06203" lon="5.16397">
        <ele>164.20399475098</ele>
        <time>2010-11-03T14:28:29Z</time>
      </trkpt>
      <trkpt lat="45.06224" lon="5.16403">
        <ele>164.36700439453</ele>
        <time>2010-11-03T14:28:34Z</time>
      </trkpt>
      <trkpt lat="45.06266" lon="5.1642">
        <ele>164.71000671387</ele>
        <time>2010-11-03T14:28:44Z</time>
      </trkpt>
      <trkpt lat="45.06306" lon="5.16434">
        <ele>164.16600036621</ele>
        <time>2010-11-03T14:28:53Z</time>
      </trkpt>
      <trkpt lat="45.06343" lon="5.16453">
        <ele>163.34899902344</ele>
        <time>2010-11-03T14:29:01Z</time>
      </trkpt>
      <trkpt lat="45.06349" lon="5.16454">
        <ele>163.24600219727</ele>
        <time>2010-11-03T14:29:02Z</time>
      </trkpt>
      <trkpt lat="45.06385" lon="5.16452">
        <ele>163.33500671387</ele>
        <time>2010-11-03T14:29:09Z</time>
      </trkpt>
      <trkpt lat="45.06404" lon="5.16449">
        <ele>163.96499633789</ele>
        <time>2010-11-03T14:29:13Z</time>
      </trkpt>
      <trkpt lat="45.06434" lon="5.1646">
        <ele>165.29600524902</ele>
        <time>2010-11-03T14:29:20Z</time>
      </trkpt>
      <trkpt lat="45.06462" lon="5.16477">
        <ele>166.01300048828</ele>
        <time>2010-11-03T14:29:27Z</time>
      </trkpt>
      <trkpt lat="45.06506" lon="5.16492">
        <ele>166.60600280762</ele>
        <time>2010-11-03T14:29:37Z</time>
      </trkpt>
      <trkpt lat="45.06522" lon="5.16507">
        <ele>166.63000488281</ele>
        <time>2010-11-03T14:29:41Z</time>
      </trkpt>
      <trkpt lat="45.0655" lon="5.16558">
        <ele>167.44200134277</ele>
        <time>2010-11-03T14:29:50Z</time>
      </trkpt>
      <trkpt lat="45.06567" lon="5.166">
        <ele>168.41600036621</ele>
        <time>2010-11-03T14:29:57Z</time>
      </trkpt>
      <trkpt lat="45.06583" lon="5.16657">
        <ele>169.98899841309</ele>
        <time>2010-11-03T14:30:06Z</time>
      </trkpt>
      <trkpt lat="45.0659" lon="5.16703">
        <ele>170.92500305176</ele>
        <time>2010-11-03T14:30:13Z</time>
      </trkpt>
      <trkpt lat="45.06605" lon="5.16762">
        <ele>171.4049987793</ele>
        <time>2010-11-03T14:30:22Z</time>
      </trkpt>
      <trkpt lat="45.06616" lon="5.1681">
        <ele>171.97900390625</ele>
        <time>2010-11-03T14:30:29Z</time>
      </trkpt>
      <trkpt lat="45.06631" lon="5.1688">
        <ele>172.66900634766</ele>
        <time>2010-11-03T14:30:39Z</time>
      </trkpt>
      <trkpt lat="45.06647" lon="5.16949">
        <ele>174.04800415039</ele>
        <time>2010-11-03T14:30:49Z</time>
      </trkpt>
      <trkpt lat="45.06657" lon="5.17003">
        <ele>175.08700561523</ele>
        <time>2010-11-03T14:30:57Z</time>
      </trkpt>
      <trkpt lat="45.0666" lon="5.17016">
        <ele>175.64999389648</ele>
        <time>2010-11-03T14:30:59Z</time>
      </trkpt>
      <trkpt lat="45.06675" lon="5.17058">
        <ele>178.00100708008</ele>
        <time>2010-11-03T14:31:07Z</time>
      </trkpt>
      <trkpt lat="45.06689" lon="5.17092">
        <ele>179.86999511719</ele>
        <time>2010-11-03T14:31:14Z</time>
      </trkpt>
      <trkpt lat="45.06704" lon="5.17118">
        <ele>180.88999938965</ele>
        <time>2010-11-03T14:31:20Z</time>
      </trkpt>
      <trkpt lat="45.06728" lon="5.17136">
        <ele>182.10600280762</ele>
        <time>2010-11-03T14:31:27Z</time>
      </trkpt>
      <trkpt lat="45.06748" lon="5.17153">
        <ele>182.69200134277</ele>
        <time>2010-11-03T14:31:33Z</time>
      </trkpt>
      <trkpt lat="45.06771" lon="5.1718">
        <ele>183.19900512695</ele>
        <time>2010-11-03T14:31:40Z</time>
      </trkpt>
      <trkpt lat="45.06794" lon="5.1721">
        <ele>183.40299987793</ele>
        <time>2010-11-03T14:31:48Z</time>
      </trkpt>
      <trkpt lat="45.06809" lon="5.17227">
        <ele>184.00999450684</ele>
        <time>2010-11-03T14:31:54Z</time>
      </trkpt>
      <trkpt lat="45.06827" lon="5.17251">
        <ele>183.95399475098</ele>
        <time>2010-11-03T14:32:01Z</time>
      </trkpt>
      <trkpt lat="45.06849" lon="5.17276">
        <ele>184.27499389648</ele>
        <time>2010-11-03T14:32:08Z</time>
      </trkpt>
      <trkpt lat="45.06876" lon="5.17297">
        <ele>184.68899536133</ele>
        <time>2010-11-03T14:32:15Z</time>
      </trkpt>
      <trkpt lat="45.06907" lon="5.1732">
        <ele>185.43099975586</ele>
        <time>2010-11-03T14:32:23Z</time>
      </trkpt>
      <trkpt lat="45.06936" lon="5.17349">
        <ele>186.06100463867</ele>
        <time>2010-11-03T14:32:31Z</time>
      </trkpt>
      <trkpt lat="45.06968" lon="5.1739">
        <ele>186.04899597168</ele>
        <time>2010-11-03T14:32:40Z</time>
      </trkpt>
      <trkpt lat="45.06999" lon="5.1743">
        <ele>186.05299377441</ele>
        <time>2010-11-03T14:32:49Z</time>
      </trkpt>
      <trkpt lat="45.07019" lon="5.17456">
        <ele>187.57000732422</ele>
        <time>2010-11-03T14:32:56Z</time>
      </trkpt>
      <trkpt lat="45.07044" lon="5.175">
        <ele>187.57800292969</ele>
        <time>2010-11-03T14:33:05Z</time>
      </trkpt>
      <trkpt lat="45.07054" lon="5.17535">
        <ele>187.39599609375</ele>
        <time>2010-11-03T14:33:11Z</time>
      </trkpt>
      <trkpt lat="45.07062" lon="5.17573">
        <ele>187.19400024414</ele>
        <time>2010-11-03T14:33:18Z</time>
      </trkpt>
      <trkpt lat="45.07065" lon="5.17586">
        <ele>187.03500366211</ele>
        <time>2010-11-03T14:33:20Z</time>
      </trkpt>
      <trkpt lat="45.07073" lon="5.17616">
        <ele>186.9640045166</ele>
        <time>2010-11-03T14:33:25Z</time>
      </trkpt>
      <trkpt lat="45.07081" lon="5.17639">
        <ele>186.77699279785</ele>
        <time>2010-11-03T14:33:29Z</time>
      </trkpt>
      <trkpt lat="45.0711" lon="5.17694">
        <ele>186.54400634766</ele>
        <time>2010-11-03T14:33:38Z</time>
      </trkpt>
      <trkpt lat="45.07141" lon="5.17729">
        <ele>186.92999267578</ele>
        <time>2010-11-03T14:33:45Z</time>
      </trkpt>
      <trkpt lat="45.07177" lon="5.17763">
        <ele>187.80700683594</ele>
        <time>2010-11-03T14:33:53Z</time>
      </trkpt>
      <trkpt lat="45.07205" lon="5.1779">
        <ele>188.14700317383</ele>
        <time>2010-11-03T14:33:59Z</time>
      </trkpt>
      <trkpt lat="45.0721" lon="5.17794">
        <ele>188.00300598144</ele>
        <time>2010-11-03T14:34:00Z</time>
      </trkpt>
      <trkpt lat="45.07234" lon="5.17816">
        <ele>187.54800415039</ele>
        <time>2010-11-03T14:34:05Z</time>
      </trkpt>
      <trkpt lat="45.07265" lon="5.17842">
        <ele>185.90699768066</ele>
        <time>2010-11-03T14:34:12Z</time>
      </trkpt>
      <trkpt lat="45.07284" lon="5.17855">
        <ele>185.30700683594</ele>
        <time>2010-11-03T14:34:16Z</time>
      </trkpt>
      <trkpt lat="45.07313" lon="5.17857">
        <ele>184.9049987793</ele>
        <time>2010-11-03T14:34:23Z</time>
      </trkpt>
      <trkpt lat="45.07335" lon="5.17857">
        <ele>185.51300048828</ele>
        <time>2010-11-03T14:34:28Z</time>
      </trkpt>
      <trkpt lat="45.07365" lon="5.17857">
        <ele>186.27000427246</ele>
        <time>2010-11-03T14:34:35Z</time>
      </trkpt>
      <trkpt lat="45.07409" lon="5.17856">
        <ele>186.62899780273</ele>
        <time>2010-11-03T14:34:45Z</time>
      </trkpt>
      <trkpt lat="45.07441" lon="5.1786">
        <ele>186.11399841309</ele>
        <time>2010-11-03T14:34:52Z</time>
      </trkpt>
      <trkpt lat="45.0745" lon="5.17863">
        <ele>185.95799255371</ele>
        <time>2010-11-03T14:34:54Z</time>
      </trkpt>
      <trkpt lat="45.07474" lon="5.17875">
        <ele>185.38800048828</ele>
        <time>2010-11-03T14:34:59Z</time>
      </trkpt>
      <trkpt lat="45.0751" lon="5.17908">
        <ele>183.29299926758</ele>
        <time>2010-11-03T14:35:06Z</time>
      </trkpt>
      <trkpt lat="45.07544" lon="5.17943">
        <ele>181.91000366211</ele>
        <time>2010-11-03T14:35:12Z</time>
      </trkpt>
      <trkpt lat="45.0757" lon="5.17974">
        <ele>179.71200561523</ele>
        <time>2010-11-03T14:35:16Z</time>
      </trkpt>
      <trkpt lat="45.07587" lon="5.17986">
        <ele>177.38999938965</ele>
        <time>2010-11-03T14:35:19Z</time>
      </trkpt>
      <trkpt lat="45.07594" lon="5.17987">
        <ele>177.03900146484</ele>
        <time>2010-11-03T14:35:21Z</time>
      </trkpt>
      <trkpt lat="45.0761" lon="5.17972">
        <ele>176.64300537109</ele>
        <time>2010-11-03T14:35:26Z</time>
      </trkpt>
      <trkpt lat="45.07631" lon="5.17961">
        <ele>175.40299987793</ele>
        <time>2010-11-03T14:35:30Z</time>
      </trkpt>
      <trkpt lat="45.07645" lon="5.17955">
        <ele>174.47500610352</ele>
        <time>2010-11-03T14:35:32Z</time>
      </trkpt>
      <trkpt lat="45.0769" lon="5.17936">
        <ele>171.15600585938</ele>
        <time>2010-11-03T14:35:38Z</time>
      </trkpt>
      <trkpt lat="45.07726" lon="5.17912">
        <ele>170.19599914551</ele>
        <time>2010-11-03T14:35:43Z</time>
      </trkpt>
      <trkpt lat="45.07753" lon="5.17891">
        <ele>169.27699279785</ele>
        <time>2010-11-03T14:35:47Z</time>
      </trkpt>
      <trkpt lat="45.0778" lon="5.1787">
        <ele>168.22200012207</ele>
        <time>2010-11-03T14:35:51Z</time>
      </trkpt>
      <trkpt lat="45.07818" lon="5.1786">
        <ele>167.30200195312</ele>
        <time>2010-11-03T14:35:56Z</time>
      </trkpt>
      <trkpt lat="45.07857" lon="5.17873">
        <ele>167.81500244141</ele>
        <time>2010-11-03T14:36:02Z</time>
      </trkpt>
      <trkpt lat="45.07888" lon="5.17884">
        <ele>168.06300354004</ele>
        <time>2010-11-03T14:36:08Z</time>
      </trkpt>
      <trkpt lat="45.07903" lon="5.1789">
        <ele>168.32000732422</ele>
        <time>2010-11-03T14:36:11Z</time>
      </trkpt>
      <trkpt lat="45.07923" lon="5.17898">
        <ele>168.81399536133</ele>
        <time>2010-11-03T14:36:15Z</time>
      </trkpt>
      <trkpt lat="45.07963" lon="5.17914">
        <ele>169.61000061035</ele>
        <time>2010-11-03T14:36:23Z</time>
      </trkpt>
      <trkpt lat="45.07988" lon="5.17924">
        <ele>169.92999267578</ele>
        <time>2010-11-03T14:36:28Z</time>
      </trkpt>
      <trkpt lat="45.08022" lon="5.17941">
        <ele>168.86599731445</ele>
        <time>2010-11-03T14:36:34Z</time>
      </trkpt>
      <trkpt lat="45.08062" lon="5.17961">
        <ele>166.57800292969</ele>
        <time>2010-11-03T14:36:40Z</time>
      </trkpt>
      <trkpt lat="45.08115" lon="5.17982">
        <ele>162.78100585938</ele>
        <time>2010-11-03T14:36:46Z</time>
      </trkpt>
      <trkpt lat="45.08155" lon="5.17997">
        <ele>160.2440032959</ele>
        <time>2010-11-03T14:36:50Z</time>
      </trkpt>
      <trkpt lat="45.08194" lon="5.18015">
        <ele>157.78300476074</ele>
        <time>2010-11-03T14:36:54Z</time>
      </trkpt>
      <trkpt lat="45.08232" lon="5.18053">
        <ele>157.67900085449</ele>
        <time>2010-11-03T14:36:59Z</time>
      </trkpt>
      <trkpt lat="45.08265" lon="5.18101">
        <ele>157.74899291992</ele>
        <time>2010-11-03T14:37:05Z</time>
      </trkpt>
      <trkpt lat="45.08298" lon="5.18156">
        <ele>158.27400207519</ele>
        <time>2010-11-03T14:37:12Z</time>
      </trkpt>
      <trkpt lat="45.08328" lon="5.18218">
        <ele>159.00100708008</ele>
        <time>2010-11-03T14:37:20Z</time>
      </trkpt>
      <trkpt lat="45.08339" lon="5.18241">
        <ele>158.97599792481</ele>
        <time>2010-11-03T14:37:23Z</time>
      </trkpt>
      <trkpt lat="45.08358" lon="5.18285">
        <ele>158.75700378418</ele>
        <time>2010-11-03T14:37:30Z</time>
      </trkpt>
      <trkpt lat="45.08359" lon="5.18291">
        <ele>158.41400146484</ele>
        <time>2010-11-03T14:37:33Z</time>
      </trkpt>
      <trkpt lat="45.08359" lon="5.18291">
        <ele>158.33700561523</ele>
        <time>2010-11-03T14:37:34Z</time>
      </trkpt>
      <trkpt lat="45.08367" lon="5.18298">
        <ele>158.20899963379</ele>
        <time>2010-11-03T14:38:50Z</time>
      </trkpt>
      <trkpt lat="45.08369" lon="5.18306">
        <ele>157.92199707031</ele>
        <time>2010-11-03T14:38:52Z</time>
      </trkpt>
      <trkpt lat="45.08387" lon="5.18331">
        <ele>156.67399597168</ele>
        <time>2010-11-03T14:38:56Z</time>
      </trkpt>
      <trkpt lat="45.08393" lon="5.18339">
        <ele>156.29499816894</ele>
        <time>2010-11-03T14:38:57Z</time>
      </trkpt>
      <trkpt lat="45.08425" lon="5.18355">
        <ele>154.97500610352</ele>
        <time>2010-11-03T14:39:01Z</time>
      </trkpt>
      <trkpt lat="45.08434" lon="5.18353">
        <ele>154.86999511719</ele>
        <time>2010-11-03T14:39:02Z</time>
      </trkpt>
      <trkpt lat="45.08472" lon="5.18342">
        <ele>155.02799987793</ele>
        <time>2010-11-03T14:39:07Z</time>
      </trkpt>
      <trkpt lat="45.08524" lon="5.18325">
        <ele>154.94599914551</ele>
        <time>2010-11-03T14:39:13Z</time>
      </trkpt>
      <trkpt lat="45.08552" lon="5.18318">
        <ele>155.1309967041</ele>
        <time>2010-11-03T14:39:16Z</time>
      </trkpt>
      <trkpt lat="45.08569" lon="5.18298">
        <ele>154.74899291992</ele>
        <time>2010-11-03T14:39:19Z</time>
      </trkpt>
      <trkpt lat="45.08565" lon="5.18273">
        <ele>155.44000244141</ele>
        <time>2010-11-03T14:39:22Z</time>
      </trkpt>
      <trkpt lat="45.08549" lon="5.1822">
        <ele>156.20100402832</ele>
        <time>2010-11-03T14:39:30Z</time>
      </trkpt>
      <trkpt lat="45.08536" lon="5.1818">
        <ele>156.9640045166</ele>
        <time>2010-11-03T14:39:37Z</time>
      </trkpt>
      <trkpt lat="45.0852" lon="5.18135">
        <ele>157.7200012207</ele>
        <time>2010-11-03T14:39:45Z</time>
      </trkpt>
      <trkpt lat="45.08506" lon="5.18093">
        <ele>158.32899475098</ele>
        <time>2010-11-03T14:39:52Z</time>
      </trkpt>
      <trkpt lat="45.0849" lon="5.18044">
        <ele>159.33500671387</ele>
        <time>2010-11-03T14:40:00Z</time>
      </trkpt>
      <trkpt lat="45.0847" lon="5.17996">
        <ele>160.33200073242</ele>
        <time>2010-11-03T14:40:08Z</time>
      </trkpt>
      <trkpt lat="45.08447" lon="5.17952">
        <ele>161.31300354004</ele>
        <time>2010-11-03T14:40:15Z</time>
      </trkpt>
      <trkpt lat="45.08422" lon="5.17905">
        <ele>162.42500305176</ele>
        <time>2010-11-03T14:40:23Z</time>
      </trkpt>
      <trkpt lat="45.08406" lon="5.17876">
        <ele>163.02400207519</ele>
        <time>2010-11-03T14:40:28Z</time>
      </trkpt>
      <trkpt lat="45.08375" lon="5.17822">
        <ele>164.32699584961</ele>
        <time>2010-11-03T14:40:37Z</time>
      </trkpt>
      <trkpt lat="45.08337" lon="5.17773">
        <ele>165.17700195312</ele>
        <time>2010-11-03T14:40:46Z</time>
      </trkpt>
      <trkpt lat="45.08293" lon="5.17719">
        <ele>165.42500305176</ele>
        <time>2010-11-03T14:40:55Z</time>
      </trkpt>
      <trkpt lat="45.08239" lon="5.1765">
        <ele>166.16799926758</ele>
        <time>2010-11-03T14:41:06Z</time>
      </trkpt>
      <trkpt lat="45.08202" lon="5.17597">
        <ele>167.24000549316</ele>
        <time>2010-11-03T14:41:15Z</time>
      </trkpt>
      <trkpt lat="45.08163" lon="5.1754">
        <ele>168.15100097656</ele>
        <time>2010-11-03T14:41:25Z</time>
      </trkpt>
      <trkpt lat="45.08129" lon="5.17485">
        <ele>169.36099243164</ele>
        <time>2010-11-03T14:41:35Z</time>
      </trkpt>
      <trkpt lat="45.08092" lon="5.17425">
        <ele>170.88299560547</ele>
        <time>2010-11-03T14:41:46Z</time>
      </trkpt>
      <trkpt lat="45.08055" lon="5.1736">
        <ele>172.10299682617</ele>
        <time>2010-11-03T14:41:57Z</time>
      </trkpt>
      <trkpt lat="45.08025" lon="5.17317">
        <ele>173.33799743652</ele>
        <time>2010-11-03T14:42:05Z</time>
      </trkpt>
      <trkpt lat="45.08004" lon="5.17289">
        <ele>175.02699279785</ele>
        <time>2010-11-03T14:42:11Z</time>
      </trkpt>
      <trkpt lat="45.07981" lon="5.17256">
        <ele>176.57200622559</ele>
        <time>2010-11-03T14:42:18Z</time>
      </trkpt>
      <trkpt lat="45.07964" lon="5.1723">
        <ele>177.52799987793</ele>
        <time>2010-11-03T14:42:23Z</time>
      </trkpt>
      <trkpt lat="45.07943" lon="5.17194">
        <ele>179.33799743652</ele>
        <time>2010-11-03T14:42:30Z</time>
      </trkpt>
      <trkpt lat="45.07917" lon="5.17149">
        <ele>180.92500305176</ele>
        <time>2010-11-03T14:42:38Z</time>
      </trkpt>
      <trkpt lat="45.07892" lon="5.17104">
        <ele>181.36700439453</ele>
        <time>2010-11-03T14:42:46Z</time>
      </trkpt>
      <trkpt lat="45.07864" lon="5.17044">
        <ele>181.71600341797</ele>
        <time>2010-11-03T14:42:55Z</time>
      </trkpt>
      <trkpt lat="45.07841" lon="5.16986">
        <ele>181.85499572754</ele>
        <time>2010-11-03T14:43:03Z</time>
      </trkpt>
      <trkpt lat="45.07819" lon="5.16918">
        <ele>182.05400085449</ele>
        <time>2010-11-03T14:43:12Z</time>
      </trkpt>
      <trkpt lat="45.07802" lon="5.16857">
        <ele>182.50999450684</ele>
        <time>2010-11-03T14:43:20Z</time>
      </trkpt>
      <trkpt lat="45.07786" lon="5.1679">
        <ele>182.82000732422</ele>
        <time>2010-11-03T14:43:28Z</time>
      </trkpt>
      <trkpt lat="45.07767" lon="5.16707">
        <ele>183.46200561523</ele>
        <time>2010-11-03T14:43:38Z</time>
      </trkpt>
      <trkpt lat="45.07753" lon="5.16643">
        <ele>184.15100097656</ele>
        <time>2010-11-03T14:43:46Z</time>
      </trkpt>
      <trkpt lat="45.07738" lon="5.16579">
        <ele>184.77000427246</ele>
        <time>2010-11-03T14:43:54Z</time>
      </trkpt>
      <trkpt lat="45.07719" lon="5.16491">
        <ele>184.73100280762</ele>
        <time>2010-11-03T14:44:05Z</time>
      </trkpt>
      <trkpt lat="45.07702" lon="5.16418">
        <ele>184.64599609375</ele>
        <time>2010-11-03T14:44:14Z</time>
      </trkpt>
      <trkpt lat="45.07689" lon="5.16353">
        <ele>184.53199768066</ele>
        <time>2010-11-03T14:44:22Z</time>
      </trkpt>
      <trkpt lat="45.07673" lon="5.16285">
        <ele>183.96899414062</ele>
        <time>2010-11-03T14:44:31Z</time>
      </trkpt>
      <trkpt lat="45.07671" lon="5.16277">
        <ele>183.81500244141</ele>
        <time>2010-11-03T14:44:32Z</time>
      </trkpt>
      <trkpt lat="45.07673" lon="5.16249">
        <ele>183.84700012207</ele>
        <time>2010-11-03T14:44:36Z</time>
      </trkpt>
      <trkpt lat="45.07679" lon="5.16238">
        <ele>183.84800720215</ele>
        <time>2010-11-03T14:44:38Z</time>
      </trkpt>
      <trkpt lat="45.07708" lon="5.16194">
        <ele>184.08500671387</ele>
        <time>2010-11-03T14:44:47Z</time>
      </trkpt>
      <trkpt lat="45.07726" lon="5.16165">
        <ele>184.69599914551</ele>
        <time>2010-11-03T14:44:53Z</time>
      </trkpt>
      <trkpt lat="45.07738" lon="5.16145">
        <ele>185.46600341797</ele>
        <time>2010-11-03T14:44:57Z</time>
      </trkpt>
      <trkpt lat="45.07758" lon="5.16116">
        <ele>186.80999755859</ele>
        <time>2010-11-03T14:45:04Z</time>
      </trkpt>
      <trkpt lat="45.07772" lon="5.16091">
        <ele>188.15299987793</ele>
        <time>2010-11-03T14:45:10Z</time>
      </trkpt>
      <trkpt lat="45.07781" lon="5.16068">
        <ele>189.30099487305</ele>
        <time>2010-11-03T14:45:15Z</time>
      </trkpt>
      <trkpt lat="45.07787" lon="5.16052">
        <ele>189.90600585938</ele>
        <time>2010-11-03T14:45:18Z</time>
      </trkpt>
      <trkpt lat="45.0779" lon="5.16041">
        <ele>190.41299438477</ele>
        <time>2010-11-03T14:45:20Z</time>
      </trkpt>
      <trkpt lat="45.07801" lon="5.15991">
        <ele>192.18400573731</ele>
        <time>2010-11-03T14:45:28Z</time>
      </trkpt>
      <trkpt lat="45.07807" lon="5.15968">
        <ele>192.49800109863</ele>
        <time>2010-11-03T14:45:32Z</time>
      </trkpt>
      <trkpt lat="45.0782" lon="5.15925">
        <ele>193.08000183106</ele>
        <time>2010-11-03T14:45:39Z</time>
      </trkpt>
      <trkpt lat="45.0783" lon="5.15886">
        <ele>193.63400268555</ele>
        <time>2010-11-03T14:45:45Z</time>
      </trkpt>
      <trkpt lat="45.07844" lon="5.15834">
        <ele>193.71099853516</ele>
        <time>2010-11-03T14:45:52Z</time>
      </trkpt>
      <trkpt lat="45.07856" lon="5.15782">
        <ele>193.8809967041</ele>
        <time>2010-11-03T14:45:59Z</time>
      </trkpt>
      <trkpt lat="45.0787" lon="5.15725">
        <ele>194.82400512695</ele>
        <time>2010-11-03T14:46:07Z</time>
      </trkpt>
      <trkpt lat="45.07879" lon="5.15675">
        <ele>195.24200439453</ele>
        <time>2010-11-03T14:46:14Z</time>
      </trkpt>
      <trkpt lat="45.07888" lon="5.15618">
        <ele>195.96200561523</ele>
        <time>2010-11-03T14:46:22Z</time>
      </trkpt>
      <trkpt lat="45.07902" lon="5.15552">
        <ele>196.97999572754</ele>
        <time>2010-11-03T14:46:31Z</time>
      </trkpt>
      <trkpt lat="45.07915" lon="5.15493">
        <ele>197.96299743652</ele>
        <time>2010-11-03T14:46:39Z</time>
      </trkpt>
      <trkpt lat="45.07934" lon="5.15414">
        <ele>199.13000488281</ele>
        <time>2010-11-03T14:46:50Z</time>
      </trkpt>
      <trkpt lat="45.07949" lon="5.15358">
        <ele>198.35400390625</ele>
        <time>2010-11-03T14:46:57Z</time>
      </trkpt>
      <trkpt lat="45.0797" lon="5.15276">
        <ele>197.62100219727</ele>
        <time>2010-11-03T14:47:06Z</time>
      </trkpt>
      <trkpt lat="45.07981" lon="5.15213">
        <ele>197.49800109863</ele>
        <time>2010-11-03T14:47:13Z</time>
      </trkpt>
      <trkpt lat="45.07988" lon="5.15137">
        <ele>198.26899719238</ele>
        <time>2010-11-03T14:47:21Z</time>
      </trkpt>
      <trkpt lat="45.07997" lon="5.15084">
        <ele>199.28700256348</ele>
        <time>2010-11-03T14:47:27Z</time>
      </trkpt>
      <trkpt lat="45.08008" lon="5.15037">
        <ele>198.69700622559</ele>
        <time>2010-11-03T14:47:33Z</time>
      </trkpt>
      <trkpt lat="45.08022" lon="5.14982">
        <ele>197.73100280762</ele>
        <time>2010-11-03T14:47:39Z</time>
      </trkpt>
      <trkpt lat="45.08043" lon="5.14901">
        <ele>195.80200195312</ele>
        <time>2010-11-03T14:47:47Z</time>
      </trkpt>
      <trkpt lat="45.0807" lon="5.14801">
        <ele>195.06900024414</ele>
        <time>2010-11-03T14:47:57Z</time>
      </trkpt>
      <trkpt lat="45.08073" lon="5.14792">
        <ele>194.78900146484</ele>
        <time>2010-11-03T14:47:58Z</time>
      </trkpt>
      <trkpt lat="45.08097" lon="5.14731">
        <ele>194.68499755859</ele>
        <time>2010-11-03T14:48:05Z</time>
      </trkpt>
      <trkpt lat="45.0812" lon="5.14667">
        <ele>195.4940032959</ele>
        <time>2010-11-03T14:48:12Z</time>
      </trkpt>
      <trkpt lat="45.08145" lon="5.14598">
        <ele>196.36199951172</ele>
        <time>2010-11-03T14:48:20Z</time>
      </trkpt>
      <trkpt lat="45.08164" lon="5.14535">
        <ele>198.26899719238</ele>
        <time>2010-11-03T14:48:27Z</time>
      </trkpt>
      <trkpt lat="45.08176" lon="5.14482">
        <ele>199.50399780273</ele>
        <time>2010-11-03T14:48:33Z</time>
      </trkpt>
      <trkpt lat="45.08191" lon="5.14429">
        <ele>198.80700683594</ele>
        <time>2010-11-03T14:48:39Z</time>
      </trkpt>
      <trkpt lat="45.08202" lon="5.14397">
        <ele>198.69500732422</ele>
        <time>2010-11-03T14:48:43Z</time>
      </trkpt>
      <trkpt lat="45.0822" lon="5.14347">
        <ele>198.58299255371</ele>
        <time>2010-11-03T14:48:49Z</time>
      </trkpt>
      <trkpt lat="45.08242" lon="5.14286">
        <ele>198.07099914551</ele>
        <time>2010-11-03T14:48:57Z</time>
      </trkpt>
      <trkpt lat="45.08255" lon="5.14249">
        <ele>197.78799438477</ele>
        <time>2010-11-03T14:49:02Z</time>
      </trkpt>
      <trkpt lat="45.08268" lon="5.14202">
        <ele>197.14399719238</ele>
        <time>2010-11-03T14:49:08Z</time>
      </trkpt>
      <trkpt lat="45.08286" lon="5.14138">
        <ele>196.42399597168</ele>
        <time>2010-11-03T14:49:16Z</time>
      </trkpt>
      <trkpt lat="45.0829" lon="5.14122">
        <ele>196.43400573731</ele>
        <time>2010-11-03T14:49:18Z</time>
      </trkpt>
      <trkpt lat="45.08295" lon="5.14108">
        <ele>196.3450012207</ele>
        <time>2010-11-03T14:49:20Z</time>
      </trkpt>
      <trkpt lat="45.08311" lon="5.14057">
        <ele>195.85200500488</ele>
        <time>2010-11-03T14:49:27Z</time>
      </trkpt>
      <trkpt lat="45.08317" lon="5.14036">
        <ele>195.84399414062</ele>
        <time>2010-11-03T14:49:30Z</time>
      </trkpt>
      <trkpt lat="45.08321" lon="5.14022">
        <ele>195.40699768066</ele>
        <time>2010-11-03T14:49:32Z</time>
      </trkpt>
      <trkpt lat="45.08334" lon="5.13978">
        <ele>195.02099609375</ele>
        <time>2010-11-03T14:49:39Z</time>
      </trkpt>
      <trkpt lat="45.08348" lon="5.13933">
        <ele>194.68099975586</ele>
        <time>2010-11-03T14:49:47Z</time>
      </trkpt>
      <trkpt lat="45.08358" lon="5.13906">
        <ele>194.87699890137</ele>
        <time>2010-11-03T14:49:52Z</time>
      </trkpt>
      <trkpt lat="45.08366" lon="5.13885">
        <ele>195.04600524902</ele>
        <time>2010-11-03T14:49:55Z</time>
      </trkpt>
      <trkpt lat="45.08373" lon="5.13871">
        <ele>195.13900756836</ele>
        <time>2010-11-03T14:49:57Z</time>
      </trkpt>
      <trkpt lat="45.08385" lon="5.13853">
        <ele>196.12399291992</ele>
        <time>2010-11-03T14:50:00Z</time>
      </trkpt>
      <trkpt lat="45.08397" lon="5.13836">
        <ele>196.26899719238</ele>
        <time>2010-11-03T14:50:03Z</time>
      </trkpt>
      <trkpt lat="45.08435" lon="5.13786">
        <ele>196.2619934082</ele>
        <time>2010-11-03T14:50:11Z</time>
      </trkpt>
      <trkpt lat="45.08477" lon="5.13731">
        <ele>195.88400268555</ele>
        <time>2010-11-03T14:50:19Z</time>
      </trkpt>
      <trkpt lat="45.08518" lon="5.13676">
        <ele>195.99099731445</ele>
        <time>2010-11-03T14:50:27Z</time>
      </trkpt>
      <trkpt lat="45.08556" lon="5.13627">
        <ele>195.77099609375</ele>
        <time>2010-11-03T14:50:34Z</time>
      </trkpt>
      <trkpt lat="45.08595" lon="5.13566">
        <ele>195.95100402832</ele>
        <time>2010-11-03T14:50:42Z</time>
      </trkpt>
      <trkpt lat="45.08622" lon="5.13504">
        <ele>196.23500061035</ele>
        <time>2010-11-03T14:50:49Z</time>
      </trkpt>
      <trkpt lat="45.08631" lon="5.13487">
        <ele>196.08099365234</ele>
        <time>2010-11-03T14:50:51Z</time>
      </trkpt>
      <trkpt lat="45.08659" lon="5.13415">
        <ele>196.01300048828</ele>
        <time>2010-11-03T14:50:59Z</time>
      </trkpt>
      <trkpt lat="45.08673" lon="5.13376">
        <ele>195.63499450684</ele>
        <time>2010-11-03T14:51:04Z</time>
      </trkpt>
      <trkpt lat="45.08677" lon="5.13369">
        <ele>195.63600158691</ele>
        <time>2010-11-03T14:51:05Z</time>
      </trkpt>
      <trkpt lat="45.08701" lon="5.13311">
        <ele>195.52600097656</ele>
        <time>2010-11-03T14:51:13Z</time>
      </trkpt>
      <trkpt lat="45.08728" lon="5.13252">
        <ele>195.43699645996</ele>
        <time>2010-11-03T14:51:21Z</time>
      </trkpt>
      <trkpt lat="45.08752" lon="5.13198">
        <ele>194.96499633789</ele>
        <time>2010-11-03T14:51:28Z</time>
      </trkpt>
      <trkpt lat="45.08772" lon="5.13158">
        <ele>195.04200744629</ele>
        <time>2010-11-03T14:51:34Z</time>
      </trkpt>
      <trkpt lat="45.08778" lon="5.13148">
        <ele>194.96800231934</ele>
        <time>2010-11-03T14:51:36Z</time>
      </trkpt>
      <trkpt lat="45.0879" lon="5.13099">
        <ele>194.78900146484</ele>
        <time>2010-11-03T14:51:43Z</time>
      </trkpt>
      <trkpt lat="45.08797" lon="5.13054">
        <ele>194.63000488281</ele>
        <time>2010-11-03T14:51:49Z</time>
      </trkpt>
      <trkpt lat="45.08799" lon="5.13038">
        <ele>194.68699645996</ele>
        <time>2010-11-03T14:51:51Z</time>
      </trkpt>
      <trkpt lat="45.08799" lon="5.12992">
        <ele>194.76400756836</ele>
        <time>2010-11-03T14:51:57Z</time>
      </trkpt>
      <trkpt lat="45.08802" lon="5.12939">
        <ele>195.66000366211</ele>
        <time>2010-11-03T14:52:04Z</time>
      </trkpt>
      <trkpt lat="45.08809" lon="5.12881">
        <ele>196.80400085449</ele>
        <time>2010-11-03T14:52:12Z</time>
      </trkpt>
      <trkpt lat="45.08818" lon="5.12831">
        <ele>197.85899353027</ele>
        <time>2010-11-03T14:52:19Z</time>
      </trkpt>
      <trkpt lat="45.08826" lon="5.12797">
        <ele>198.09700012207</ele>
        <time>2010-11-03T14:52:24Z</time>
      </trkpt>
      <trkpt lat="45.0884" lon="5.12746">
        <ele>198.70399475098</ele>
        <time>2010-11-03T14:52:32Z</time>
      </trkpt>
      <trkpt lat="45.08857" lon="5.12684">
        <ele>199.36199951172</ele>
        <time>2010-11-03T14:52:41Z</time>
      </trkpt>
      <trkpt lat="45.08876" lon="5.12628">
        <ele>200.11099243164</ele>
        <time>2010-11-03T14:52:49Z</time>
      </trkpt>
      <trkpt lat="45.089" lon="5.12564">
        <ele>200.82099914551</ele>
        <time>2010-11-03T14:52:58Z</time>
      </trkpt>
      <trkpt lat="45.08913" lon="5.12513">
        <ele>201.37600708008</ele>
        <time>2010-11-03T14:53:05Z</time>
      </trkpt>
      <trkpt lat="45.08916" lon="5.12497">
        <ele>200.96200561523</ele>
        <time>2010-11-03T14:53:07Z</time>
      </trkpt>
      <trkpt lat="45.0892" lon="5.12432">
        <ele>199.74099731445</ele>
        <time>2010-11-03T14:53:15Z</time>
      </trkpt>
      <trkpt lat="45.08918" lon="5.12375">
        <ele>198.80200195312</ele>
        <time>2010-11-03T14:53:21Z</time>
      </trkpt>
      <trkpt lat="45.08916" lon="5.12312">
        <ele>197.72300720215</ele>
        <time>2010-11-03T14:53:27Z</time>
      </trkpt>
      <trkpt lat="45.08915" lon="5.12226">
        <ele>196.96800231934</ele>
        <time>2010-11-03T14:53:35Z</time>
      </trkpt>
      <trkpt lat="45.08912" lon="5.12167">
        <ele>196.23599243164</ele>
        <time>2010-11-03T14:53:40Z</time>
      </trkpt>
      <trkpt lat="45.08902" lon="5.12085">
        <ele>195.67300415039</ele>
        <time>2010-11-03T14:53:47Z</time>
      </trkpt>
      <trkpt lat="45.08896" lon="5.11993">
        <ele>194.27200317383</ele>
        <time>2010-11-03T14:53:55Z</time>
      </trkpt>
      <trkpt lat="45.08886" lon="5.11836">
        <ele>193.09899902344</ele>
        <time>2010-11-03T14:54:09Z</time>
      </trkpt>
      <trkpt lat="45.08878" lon="5.11711">
        <ele>192.60000610352</ele>
        <time>2010-11-03T14:54:20Z</time>
      </trkpt>
      <trkpt lat="45.08872" lon="5.11634">
        <ele>192.94799804688</ele>
        <time>2010-11-03T14:54:27Z</time>
      </trkpt>
      <trkpt lat="45.08864" lon="5.11534">
        <ele>192.99099731445</ele>
        <time>2010-11-03T14:54:36Z</time>
      </trkpt>
      <trkpt lat="45.08853" lon="5.11405">
        <ele>191.51899719238</ele>
        <time>2010-11-03T14:54:47Z</time>
      </trkpt>
      <trkpt lat="45.08843" lon="5.11282">
        <ele>190.64500427246</ele>
        <time>2010-11-03T14:54:57Z</time>
      </trkpt>
      <trkpt lat="45.08832" lon="5.11171">
        <ele>190.02400207519</ele>
        <time>2010-11-03T14:55:06Z</time>
      </trkpt>
      <trkpt lat="45.08815" lon="5.11073">
        <ele>189.27299499512</ele>
        <time>2010-11-03T14:55:14Z</time>
      </trkpt>
      <trkpt lat="45.08794" lon="5.10949">
        <ele>188.875</ele>
        <time>2010-11-03T14:55:24Z</time>
      </trkpt>
      <trkpt lat="45.08788" lon="5.10852">
        <ele>188.84399414062</ele>
        <time>2010-11-03T14:55:32Z</time>
      </trkpt>
      <trkpt lat="45.08784" lon="5.10735">
        <ele>188.77200317383</ele>
        <time>2010-11-03T14:55:42Z</time>
      </trkpt>
      <trkpt lat="45.08772" lon="5.10653">
        <ele>188.76699829102</ele>
        <time>2010-11-03T14:55:49Z</time>
      </trkpt>
      <trkpt lat="45.08751" lon="5.1057">
        <ele>189.34899902344</ele>
        <time>2010-11-03T14:55:56Z</time>
      </trkpt>
      <trkpt lat="45.08718" lon="5.10443">
        <ele>189.75799560547</ele>
        <time>2010-11-03T14:56:07Z</time>
      </trkpt>
      <trkpt lat="45.0868" lon="5.1031">
        <ele>190.11799621582</ele>
        <time>2010-11-03T14:56:19Z</time>
      </trkpt>
      <trkpt lat="45.08657" lon="5.10224">
        <ele>191.22200012207</ele>
        <time>2010-11-03T14:56:27Z</time>
      </trkpt>
      <trkpt lat="45.08635" lon="5.10116">
        <ele>191.64999389648</ele>
        <time>2010-11-03T14:56:37Z</time>
      </trkpt>
      <trkpt lat="45.0861" lon="5.10014">
        <ele>190.65899658203</ele>
        <time>2010-11-03T14:56:46Z</time>
      </trkpt>
      <trkpt lat="45.08574" lon="5.09883">
        <ele>188.86399841309</ele>
        <time>2010-11-03T14:56:57Z</time>
      </trkpt>
      <trkpt lat="45.08543" lon="5.0977">
        <ele>188.42999267578</ele>
        <time>2010-11-03T14:57:07Z</time>
      </trkpt>
      <trkpt lat="45.08514" lon="5.09692">
        <ele>187.91400146484</ele>
        <time>2010-11-03T14:57:14Z</time>
      </trkpt>
      <trkpt lat="45.08469" lon="5.09576">
        <ele>187.09199523926</ele>
        <time>2010-11-03T14:57:24Z</time>
      </trkpt>
      <trkpt lat="45.08462" lon="5.09514">
        <ele>186.6309967041</ele>
        <time>2010-11-03T14:57:29Z</time>
      </trkpt>
      <trkpt lat="45.0847" lon="5.09416">
        <ele>186.85800170898</ele>
        <time>2010-11-03T14:57:37Z</time>
      </trkpt>
      <trkpt lat="45.08482" lon="5.09336">
        <ele>186.85899353027</ele>
        <time>2010-11-03T14:57:44Z</time>
      </trkpt>
      <trkpt lat="45.08498" lon="5.09297">
        <ele>187.56199645996</ele>
        <time>2010-11-03T14:57:48Z</time>
      </trkpt>
      <trkpt lat="45.0854" lon="5.09236">
        <ele>189.47399902344</ele>
        <time>2010-11-03T14:57:56Z</time>
      </trkpt>
      <trkpt lat="45.08565" lon="5.09187">
        <ele>189.95500183106</ele>
        <time>2010-11-03T14:58:02Z</time>
      </trkpt>
      <trkpt lat="45.08577" lon="5.09136">
        <ele>190.39599609375</ele>
        <time>2010-11-03T14:58:07Z</time>
      </trkpt>
      <trkpt lat="45.08598" lon="5.09051">
        <ele>191.16400146484</ele>
        <time>2010-11-03T14:58:15Z</time>
      </trkpt>
      <trkpt lat="45.08618" lon="5.09003">
        <ele>191.67999267578</ele>
        <time>2010-11-03T14:58:20Z</time>
      </trkpt>
      <trkpt lat="45.08657" lon="5.08926">
        <ele>192.78900146484</ele>
        <time>2010-11-03T14:58:29Z</time>
      </trkpt>
      <trkpt lat="45.08676" lon="5.08883">
        <ele>193.29200744629</ele>
        <time>2010-11-03T14:58:34Z</time>
      </trkpt>
      <trkpt lat="45.08695" lon="5.08817">
        <ele>194.35000610352</ele>
        <time>2010-11-03T14:58:41Z</time>
      </trkpt>
      <trkpt lat="45.08724" lon="5.08709">
        <ele>195.64999389648</ele>
        <time>2010-11-03T14:58:53Z</time>
      </trkpt>
      <trkpt lat="45.08739" lon="5.08643">
        <ele>196.55000305176</ele>
        <time>2010-11-03T14:59:01Z</time>
      </trkpt>
      <trkpt lat="45.08742" lon="5.08628">
        <ele>196.45700073242</ele>
        <time>2010-11-03T14:59:03Z</time>
      </trkpt>
      <trkpt lat="45.08757" lon="5.08599">
        <ele>197.08599853516</ele>
        <time>2010-11-03T14:59:08Z</time>
      </trkpt>
      <trkpt lat="45.08762" lon="5.08581">
        <ele>197.64599609375</ele>
        <time>2010-11-03T14:59:12Z</time>
      </trkpt>
      <trkpt lat="45.08757" lon="5.08565">
        <ele>197.30900573731</ele>
        <time>2010-11-03T14:59:15Z</time>
      </trkpt>
      <trkpt lat="45.08754" lon="5.0852">
        <ele>198.15400695801</ele>
        <time>2010-11-03T14:59:22Z</time>
      </trkpt>
      <trkpt lat="45.08759" lon="5.08468">
        <ele>199.41700744629</ele>
        <time>2010-11-03T14:59:30Z</time>
      </trkpt>
      <trkpt lat="45.08763" lon="5.08432">
        <ele>200.83000183106</ele>
        <time>2010-11-03T14:59:36Z</time>
      </trkpt>
      <trkpt lat="45.08767" lon="5.08395">
        <ele>202.07499694824</ele>
        <time>2010-11-03T14:59:42Z</time>
      </trkpt>
      <trkpt lat="45.08773" lon="5.08345">
        <ele>203.86199951172</ele>
        <time>2010-11-03T14:59:50Z</time>
      </trkpt>
      <trkpt lat="45.08781" lon="5.0829">
        <ele>206.05700683594</ele>
        <time>2010-11-03T14:59:59Z</time>
      </trkpt>
      <trkpt lat="45.08789" lon="5.08235">
        <ele>207.99099731445</ele>
        <time>2010-11-03T15:00:08Z</time>
      </trkpt>
      <trkpt lat="45.08797" lon="5.08188">
        <ele>209.84300231934</ele>
        <time>2010-11-03T15:00:16Z</time>
      </trkpt>
      <trkpt lat="45.08805" lon="5.08145">
        <ele>211.32400512695</ele>
        <time>2010-11-03T15:00:23Z</time>
      </trkpt>
      <trkpt lat="45.08816" lon="5.08091">
        <ele>213.18400573731</ele>
        <time>2010-11-03T15:00:31Z</time>
      </trkpt>
      <trkpt lat="45.08827" lon="5.0803">
        <ele>214.95100402832</ele>
        <time>2010-11-03T15:00:40Z</time>
      </trkpt>
      <trkpt lat="45.0884" lon="5.07962">
        <ele>217.29899597168</ele>
        <time>2010-11-03T15:00:50Z</time>
      </trkpt>
      <trkpt lat="45.08853" lon="5.07909">
        <ele>219.33799743652</ele>
        <time>2010-11-03T15:00:58Z</time>
      </trkpt>
      <trkpt lat="45.08874" lon="5.0787">
        <ele>220.46899414062</ele>
        <time>2010-11-03T15:01:05Z</time>
      </trkpt>
      <trkpt lat="45.08885" lon="5.07855">
        <ele>221.40199279785</ele>
        <time>2010-11-03T15:01:08Z</time>
      </trkpt>
      <trkpt lat="45.0892" lon="5.07831">
        <ele>222.75500488281</ele>
        <time>2010-11-03T15:01:16Z</time>
      </trkpt>
      <trkpt lat="45.08961" lon="5.07807">
        <ele>223.95899963379</ele>
        <time>2010-11-03T15:01:25Z</time>
      </trkpt>
      <trkpt lat="45.09006" lon="5.07777">
        <ele>225.53199768066</ele>
        <time>2010-11-03T15:01:35Z</time>
      </trkpt>
      <trkpt lat="45.09039" lon="5.0775">
        <ele>226.41400146484</ele>
        <time>2010-11-03T15:01:43Z</time>
      </trkpt>
      <trkpt lat="45.09069" lon="5.07719">
        <ele>226.24600219727</ele>
        <time>2010-11-03T15:01:50Z</time>
      </trkpt>
      <trkpt lat="45.09114" lon="5.07673">
        <ele>224.42700195312</ele>
        <time>2010-11-03T15:02:00Z</time>
      </trkpt>
      <trkpt lat="45.09122" lon="5.07662">
        <ele>224.35600280762</ele>
        <time>2010-11-03T15:02:02Z</time>
      </trkpt>
      <trkpt lat="45.0915" lon="5.07615">
        <ele>222.75700378418</ele>
        <time>2010-11-03T15:02:09Z</time>
      </trkpt>
      <trkpt lat="45.09172" lon="5.07568">
        <ele>222.23399353027</ele>
        <time>2010-11-03T15:02:15Z</time>
      </trkpt>
      <trkpt lat="45.09205" lon="5.07499">
        <ele>221.42799377441</ele>
        <time>2010-11-03T15:02:23Z</time>
      </trkpt>
      <trkpt lat="45.09245" lon="5.07414">
        <ele>219.44400024414</ele>
        <time>2010-11-03T15:02:32Z</time>
      </trkpt>
      <trkpt lat="45.0925" lon="5.07405">
        <ele>219.31500244141</ele>
        <time>2010-11-03T15:02:33Z</time>
      </trkpt>
      <trkpt lat="45.09285" lon="5.0733">
        <ele>218.09300231934</ele>
        <time>2010-11-03T15:02:41Z</time>
      </trkpt>
      <trkpt lat="45.09322" lon="5.0725">
        <ele>218.32000732422</ele>
        <time>2010-11-03T15:02:50Z</time>
      </trkpt>
      <trkpt lat="45.09344" lon="5.07211">
        <ele>218.50900268555</ele>
        <time>2010-11-03T15:02:55Z</time>
      </trkpt>
      <trkpt lat="45.09369" lon="5.07193">
        <ele>218.86599731445</ele>
        <time>2010-11-03T15:02:59Z</time>
      </trkpt>
      <trkpt lat="45.09388" lon="5.07165">
        <ele>218.82099914551</ele>
        <time>2010-11-03T15:03:03Z</time>
      </trkpt>
      <trkpt lat="45.09392" lon="5.07132">
        <ele>218.44799804688</ele>
        <time>2010-11-03T15:03:06Z</time>
      </trkpt>
      <trkpt lat="45.09392" lon="5.07121">
        <ele>218.06599426269</ele>
        <time>2010-11-03T15:03:07Z</time>
      </trkpt>
      <trkpt lat="45.09379" lon="5.06967">
        <ele>214.96600341797</ele>
        <time>2010-11-03T15:03:19Z</time>
      </trkpt>
      <trkpt lat="45.09373" lon="5.06862">
        <ele>213.02299499512</ele>
        <time>2010-11-03T15:03:27Z</time>
      </trkpt>
      <trkpt lat="45.09368" lon="5.06758">
        <ele>212.36599731445</ele>
        <time>2010-11-03T15:03:35Z</time>
      </trkpt>
      <trkpt lat="45.09372" lon="5.0668">
        <ele>212.10899353027</ele>
        <time>2010-11-03T15:03:41Z</time>
      </trkpt>
      <trkpt lat="45.09382" lon="5.0659">
        <ele>211.05200195312</ele>
        <time>2010-11-03T15:03:48Z</time>
      </trkpt>
      <trkpt lat="45.09383" lon="5.06524">
        <ele>210.22099304199</ele>
        <time>2010-11-03T15:03:53Z</time>
      </trkpt>
      <trkpt lat="45.09377" lon="5.06403">
        <ele>209.13499450684</ele>
        <time>2010-11-03T15:04:02Z</time>
      </trkpt>
      <trkpt lat="45.09373" lon="5.06263">
        <ele>208.00799560547</ele>
        <time>2010-11-03T15:04:12Z</time>
      </trkpt>
      <trkpt lat="45.09371" lon="5.06157">
        <ele>206.58599853516</ele>
        <time>2010-11-03T15:04:19Z</time>
      </trkpt>
      <trkpt lat="45.09374" lon="5.06025">
        <ele>205.39300537109</ele>
        <time>2010-11-03T15:04:28Z</time>
      </trkpt>
      <trkpt lat="45.09388" lon="5.05886">
        <ele>204.64199829102</ele>
        <time>2010-11-03T15:04:38Z</time>
      </trkpt>
      <trkpt lat="45.09402" lon="5.05822">
        <ele>204.91999816894</ele>
        <time>2010-11-03T15:04:43Z</time>
      </trkpt>
      <trkpt lat="45.09426" lon="5.05723">
        <ele>206.71000671387</ele>
        <time>2010-11-03T15:04:51Z</time>
      </trkpt>
      <trkpt lat="45.09438" lon="5.05625">
        <ele>207.51800537109</ele>
        <time>2010-11-03T15:04:59Z</time>
      </trkpt>
      <trkpt lat="45.09439" lon="5.05564">
        <ele>209.03300476074</ele>
        <time>2010-11-03T15:05:04Z</time>
      </trkpt>
      <trkpt lat="45.09432" lon="5.05488">
        <ele>207.3450012207</ele>
        <time>2010-11-03T15:05:10Z</time>
      </trkpt>
      <trkpt lat="45.0942" lon="5.05401">
        <ele>206.89199829102</ele>
        <time>2010-11-03T15:05:17Z</time>
      </trkpt>
      <trkpt lat="45.09403" lon="5.05344">
        <ele>206.18699645996</ele>
        <time>2010-11-03T15:05:22Z</time>
      </trkpt>
      <trkpt lat="45.09378" lon="5.05294">
        <ele>205.97999572754</ele>
        <time>2010-11-03T15:05:27Z</time>
      </trkpt>
      <trkpt lat="45.09339" lon="5.05228">
        <ele>205.84800720215</ele>
        <time>2010-11-03T15:05:34Z</time>
      </trkpt>
      <trkpt lat="45.09296" lon="5.05156">
        <ele>206.30599975586</ele>
        <time>2010-11-03T15:05:42Z</time>
      </trkpt>
      <trkpt lat="45.09263" lon="5.05088">
        <ele>206.41499328613</ele>
        <time>2010-11-03T15:05:49Z</time>
      </trkpt>
      <trkpt lat="45.09244" lon="5.05031">
        <ele>204.88499450684</ele>
        <time>2010-11-03T15:05:54Z</time>
      </trkpt>
      <trkpt lat="45.09245" lon="5.0498">
        <ele>203.65800476074</ele>
        <time>2010-11-03T15:05:58Z</time>
      </trkpt>
      <trkpt lat="45.09261" lon="5.04948">
        <ele>202.81700134277</ele>
        <time>2010-11-03T15:06:01Z</time>
      </trkpt>
      <trkpt lat="45.09293" lon="5.04899">
        <ele>201.32499694824</ele>
        <time>2010-11-03T15:06:06Z</time>
      </trkpt>
      <trkpt lat="45.09305" lon="5.04851">
        <ele>200.34399414062</ele>
        <time>2010-11-03T15:06:10Z</time>
      </trkpt>
      <trkpt lat="45.09309" lon="5.04783">
        <ele>199.59399414062</ele>
        <time>2010-11-03T15:06:16Z</time>
      </trkpt>
      <trkpt lat="45.09311" lon="5.04767">
        <ele>199.03100585938</ele>
        <time>2010-11-03T15:06:19Z</time>
      </trkpt>
      <trkpt lat="45.09311" lon="5.04763">
        <ele>198.92199707031</ele>
        <time>2010-11-03T15:06:23Z</time>
      </trkpt>
      <trkpt lat="45.09309" lon="5.0476">
        <ele>198.93499755859</ele>
        <time>2010-11-03T15:06:31Z</time>
      </trkpt>
      <trkpt lat="45.0931" lon="5.04757">
        <ele>198.99699401856</ele>
        <time>2010-11-03T15:06:32Z</time>
      </trkpt>
      <trkpt lat="45.0932" lon="5.04742">
        <ele>199.32200622559</ele>
        <time>2010-11-03T15:06:36Z</time>
      </trkpt>
      <trkpt lat="45.09332" lon="5.04731">
        <ele>199.55900573731</ele>
        <time>2010-11-03T15:06:39Z</time>
      </trkpt>
      <trkpt lat="45.09354" lon="5.04713">
        <ele>200.11099243164</ele>
        <time>2010-11-03T15:06:44Z</time>
      </trkpt>
      <trkpt lat="45.09369" lon="5.04698">
        <ele>200.55799865723</ele>
        <time>2010-11-03T15:06:47Z</time>
      </trkpt>
      <trkpt lat="45.09391" lon="5.04688">
        <ele>201.06500244141</ele>
        <time>2010-11-03T15:06:51Z</time>
      </trkpt>
      <trkpt lat="45.09417" lon="5.04677">
        <ele>201.89199829102</ele>
        <time>2010-11-03T15:06:55Z</time>
      </trkpt>
      <trkpt lat="45.09449" lon="5.04665">
        <ele>202.74600219727</ele>
        <time>2010-11-03T15:07:01Z</time>
      </trkpt>
      <trkpt lat="45.09477" lon="5.04654">
        <ele>203.52099609375</ele>
        <time>2010-11-03T15:07:06Z</time>
      </trkpt>
      <trkpt lat="45.09521" lon="5.04634">
        <ele>204.29600524902</ele>
        <time>2010-11-03T15:07:14Z</time>
      </trkpt>
      <trkpt lat="45.0956" lon="5.04609">
        <ele>205.14599609375</ele>
        <time>2010-11-03T15:07:21Z</time>
      </trkpt>
      <trkpt lat="45.09576" lon="5.04595">
        <ele>205.60000610352</ele>
        <time>2010-11-03T15:07:24Z</time>
      </trkpt>
      <trkpt lat="45.09602" lon="5.04548">
        <ele>206.69000244141</ele>
        <time>2010-11-03T15:07:31Z</time>
      </trkpt>
      <trkpt lat="45.09606" lon="5.04541">
        <ele>206.90600585938</ele>
        <time>2010-11-03T15:07:32Z</time>
      </trkpt>
      <trkpt lat="45.09628" lon="5.04518">
        <ele>208.13000488281</ele>
        <time>2010-11-03T15:07:37Z</time>
      </trkpt>
      <trkpt lat="45.09629" lon="5.04496">
        <ele>208.29899597168</ele>
        <time>2010-11-03T15:07:40Z</time>
      </trkpt>
      <trkpt lat="45.09629" lon="5.04472">
        <ele>208.98199462891</ele>
        <time>2010-11-03T15:07:43Z</time>
      </trkpt>
      <trkpt lat="45.09631" lon="5.04465">
        <ele>209.11000061035</ele>
        <time>2010-11-03T15:07:44Z</time>
      </trkpt>
      <trkpt lat="45.09652" lon="5.04392">
        <ele>210.79699707031</ele>
        <time>2010-11-03T15:07:54Z</time>
      </trkpt>
      <trkpt lat="45.09674" lon="5.04345">
        <ele>210.85299682617</ele>
        <time>2010-11-03T15:08:01Z</time>
      </trkpt>
      <trkpt lat="45.09699" lon="5.04311">
        <ele>210.38299560547</ele>
        <time>2010-11-03T15:08:06Z</time>
      </trkpt>
      <trkpt lat="45.09741" lon="5.0427">
        <ele>209.58299255371</ele>
        <time>2010-11-03T15:08:13Z</time>
      </trkpt>
      <trkpt lat="45.09802" lon="5.04209">
        <ele>208.8690032959</ele>
        <time>2010-11-03T15:08:23Z</time>
      </trkpt>
      <trkpt lat="45.09851" lon="5.04158">
        <ele>208.8809967041</ele>
        <time>2010-11-03T15:08:31Z</time>
      </trkpt>
      <trkpt lat="45.09872" lon="5.04114">
        <ele>208.55999755859</ele>
        <time>2010-11-03T15:08:36Z</time>
      </trkpt>
      <trkpt lat="45.09891" lon="5.04032">
        <ele>208.2619934082</ele>
        <time>2010-11-03T15:08:44Z</time>
      </trkpt>
      <trkpt lat="45.0989" lon="5.0398">
        <ele>208.07299804688</ele>
        <time>2010-11-03T15:08:49Z</time>
      </trkpt>
      <trkpt lat="45.09883" lon="5.03961">
        <ele>208.07499694824</ele>
        <time>2010-11-03T15:08:51Z</time>
      </trkpt>
      <trkpt lat="45.09838" lon="5.03847">
        <ele>208.68200683594</ele>
        <time>2010-11-03T15:09:03Z</time>
      </trkpt>
      <trkpt lat="45.09813" lon="5.03767">
        <ele>208.76400756836</ele>
        <time>2010-11-03T15:09:11Z</time>
      </trkpt>
      <trkpt lat="45.098" lon="5.03689">
        <ele>210.56100463867</ele>
        <time>2010-11-03T15:09:19Z</time>
      </trkpt>
      <trkpt lat="45.09792" lon="5.03622">
        <ele>212.42599487305</ele>
        <time>2010-11-03T15:09:26Z</time>
      </trkpt>
      <trkpt lat="45.09802" lon="5.03574">
        <ele>212.46299743652</ele>
        <time>2010-11-03T15:09:31Z</time>
      </trkpt>
      <trkpt lat="45.09811" lon="5.03556">
        <ele>212.125</ele>
        <time>2010-11-03T15:09:33Z</time>
      </trkpt>
      <trkpt lat="45.09863" lon="5.03479">
        <ele>211.21299743652</ele>
        <time>2010-11-03T15:09:42Z</time>
      </trkpt>
      <trkpt lat="45.09903" lon="5.03407">
        <ele>210.85000610352</ele>
        <time>2010-11-03T15:09:50Z</time>
      </trkpt>
      <trkpt lat="45.0992" lon="5.03349">
        <ele>212.50199890137</ele>
        <time>2010-11-03T15:09:56Z</time>
      </trkpt>
      <trkpt lat="45.09939" lon="5.03282">
        <ele>214.44999694824</ele>
        <time>2010-11-03T15:10:04Z</time>
      </trkpt>
      <trkpt lat="45.09956" lon="5.0322">
        <ele>216.42900085449</ele>
        <time>2010-11-03T15:10:12Z</time>
      </trkpt>
      <trkpt lat="45.09976" lon="5.03149">
        <ele>218.44599914551</ele>
        <time>2010-11-03T15:10:21Z</time>
      </trkpt>
      <trkpt lat="45.0999" lon="5.03101">
        <ele>219.3390045166</ele>
        <time>2010-11-03T15:10:27Z</time>
      </trkpt>
      <trkpt lat="45.1001" lon="5.03029">
        <ele>221.06599426269</ele>
        <time>2010-11-03T15:10:36Z</time>
      </trkpt>
      <trkpt lat="45.1003" lon="5.02956">
        <ele>224.07299804688</ele>
        <time>2010-11-03T15:10:46Z</time>
      </trkpt>
      <trkpt lat="45.10049" lon="5.02887">
        <ele>226.79400634766</ele>
        <time>2010-11-03T15:10:56Z</time>
      </trkpt>
      <trkpt lat="45.10057" lon="5.0286">
        <ele>228.44500732422</ele>
        <time>2010-11-03T15:11:00Z</time>
      </trkpt>
      <trkpt lat="45.10061" lon="5.02847">
        <ele>229.20100402832</ele>
        <time>2010-11-03T15:11:02Z</time>
      </trkpt>
      <trkpt lat="45.10064" lon="5.02828">
        <ele>230.20399475098</ele>
        <time>2010-11-03T15:11:05Z</time>
      </trkpt>
      <trkpt lat="45.10071" lon="5.02801">
        <ele>230.92500305176</ele>
        <time>2010-11-03T15:11:09Z</time>
      </trkpt>
      <trkpt lat="45.10073" lon="5.02765">
        <ele>232.33700561523</ele>
        <time>2010-11-03T15:11:14Z</time>
      </trkpt>
      <trkpt lat="45.10064" lon="5.02739">
        <ele>233.80900573731</ele>
        <time>2010-11-03T15:11:18Z</time>
      </trkpt>
      <trkpt lat="45.1004" lon="5.02705">
        <ele>236.28700256348</ele>
        <time>2010-11-03T15:11:25Z</time>
      </trkpt>
      <trkpt lat="45.10036" lon="5.02699">
        <ele>236.64100646973</ele>
        <time>2010-11-03T15:11:26Z</time>
      </trkpt>
      <trkpt lat="45.10023" lon="5.02685">
        <ele>237.56300354004</ele>
        <time>2010-11-03T15:11:29Z</time>
      </trkpt>
      <trkpt lat="45.10011" lon="5.02669">
        <ele>238.49699401856</ele>
        <time>2010-11-03T15:11:32Z</time>
      </trkpt>
      <trkpt lat="45.09995" lon="5.0264">
        <ele>240.16900634766</ele>
        <time>2010-11-03T15:11:37Z</time>
      </trkpt>
      <trkpt lat="45.09982" lon="5.02601">
        <ele>242.19200134277</ele>
        <time>2010-11-03T15:11:43Z</time>
      </trkpt>
      <trkpt lat="45.09969" lon="5.0257">
        <ele>244.0059967041</ele>
        <time>2010-11-03T15:11:47Z</time>
      </trkpt>
      <trkpt lat="45.09944" lon="5.02535">
        <ele>245.99800109863</ele>
        <time>2010-11-03T15:11:52Z</time>
      </trkpt>
      <trkpt lat="45.09926" lon="5.02512">
        <ele>247.24499511719</ele>
        <time>2010-11-03T15:11:55Z</time>
      </trkpt>
      <trkpt lat="45.09904" lon="5.02463">
        <ele>249.97799682617</ele>
        <time>2010-11-03T15:12:00Z</time>
      </trkpt>
      <trkpt lat="45.09885" lon="5.02414">
        <ele>252.59399414062</ele>
        <time>2010-11-03T15:12:05Z</time>
      </trkpt>
      <trkpt lat="45.0987" lon="5.02357">
        <ele>253.36599731445</ele>
        <time>2010-11-03T15:12:11Z</time>
      </trkpt>
      <trkpt lat="45.09855" lon="5.02299">
        <ele>251.55700683594</ele>
        <time>2010-11-03T15:12:17Z</time>
      </trkpt>
      <trkpt lat="45.09851" lon="5.02276">
        <ele>250.77299499512</ele>
        <time>2010-11-03T15:12:19Z</time>
      </trkpt>
      <trkpt lat="45.09855" lon="5.02224">
        <ele>248.46200561523</ele>
        <time>2010-11-03T15:12:23Z</time>
      </trkpt>
      <trkpt lat="45.09859" lon="5.02211">
        <ele>248.11599731445</ele>
        <time>2010-11-03T15:12:24Z</time>
      </trkpt>
      <trkpt lat="45.0989" lon="5.02124">
        <ele>243.83500671387</ele>
        <time>2010-11-03T15:12:31Z</time>
      </trkpt>
      <trkpt lat="45.09904" lon="5.02084">
        <ele>242.4940032959</ele>
        <time>2010-11-03T15:12:34Z</time>
      </trkpt>
      <trkpt lat="45.09941" lon="5.01978">
        <ele>237.84899902344</ele>
        <time>2010-11-03T15:12:42Z</time>
      </trkpt>
      <trkpt lat="45.09973" lon="5.0189">
        <ele>235.39700317383</ele>
        <time>2010-11-03T15:12:49Z</time>
      </trkpt>
      <trkpt lat="45.10007" lon="5.01793">
        <ele>233.375</ele>
        <time>2010-11-03T15:12:56Z</time>
      </trkpt>
      <trkpt lat="45.10046" lon="5.01677">
        <ele>230.78199768066</ele>
        <time>2010-11-03T15:13:04Z</time>
      </trkpt>
      <trkpt lat="45.1006" lon="5.01607">
        <ele>231.03700256348</ele>
        <time>2010-11-03T15:13:09Z</time>
      </trkpt>
      <trkpt lat="45.10069" lon="5.01518">
        <ele>231.22200012207</ele>
        <time>2010-11-03T15:13:16Z</time>
      </trkpt>
      <trkpt lat="45.10078" lon="5.0141">
        <ele>231.4880065918</ele>
        <time>2010-11-03T15:13:25Z</time>
      </trkpt>
      <trkpt lat="45.10088" lon="5.01308">
        <ele>232.19200134277</ele>
        <time>2010-11-03T15:13:34Z</time>
      </trkpt>
      <trkpt lat="45.10096" lon="5.01218">
        <ele>231.97599792481</ele>
        <time>2010-11-03T15:13:42Z</time>
      </trkpt>
      <trkpt lat="45.10109" lon="5.01162">
        <ele>231.60200500488</ele>
        <time>2010-11-03T15:13:47Z</time>
      </trkpt>
      <trkpt lat="45.10129" lon="5.01112">
        <ele>231.25399780273</ele>
        <time>2010-11-03T15:13:52Z</time>
      </trkpt>
      <trkpt lat="45.10162" lon="5.01059">
        <ele>230.37100219727</ele>
        <time>2010-11-03T15:13:58Z</time>
      </trkpt>
      <trkpt lat="45.1021" lon="5.00986">
        <ele>229.19000244141</ele>
        <time>2010-11-03T15:14:06Z</time>
      </trkpt>
      <trkpt lat="45.10253" lon="5.00938">
        <ele>227.77200317383</ele>
        <time>2010-11-03T15:14:12Z</time>
      </trkpt>
      <trkpt lat="45.10315" lon="5.00884">
        <ele>227.15699768066</ele>
        <time>2010-11-03T15:14:20Z</time>
      </trkpt>
      <trkpt lat="45.10389" lon="5.00827">
        <ele>225.75100708008</ele>
        <time>2010-11-03T15:14:29Z</time>
      </trkpt>
      <trkpt lat="45.1046" lon="5.00769">
        <ele>225.33999633789</ele>
        <time>2010-11-03T15:14:38Z</time>
      </trkpt>
      <trkpt lat="45.10527" lon="5.00714">
        <ele>227.09199523926</ele>
        <time>2010-11-03T15:14:47Z</time>
      </trkpt>
      <trkpt lat="45.10572" lon="5.00679">
        <ele>229.45300292969</ele>
        <time>2010-11-03T15:14:54Z</time>
      </trkpt>
      <trkpt lat="45.10584" lon="5.00669">
        <ele>230.11500549316</ele>
        <time>2010-11-03T15:14:56Z</time>
      </trkpt>
      <trkpt lat="45.10629" lon="5.00634">
        <ele>232.62199401856</ele>
        <time>2010-11-03T15:15:04Z</time>
      </trkpt>
      <trkpt lat="45.1068" lon="5.00606">
        <ele>235.29299926758</ele>
        <time>2010-11-03T15:15:13Z</time>
      </trkpt>
      <trkpt lat="45.10734" lon="5.00591">
        <ele>238.22999572754</ele>
        <time>2010-11-03T15:15:22Z</time>
      </trkpt>
      <trkpt lat="45.1077" lon="5.00587">
        <ele>240.69799804688</ele>
        <time>2010-11-03T15:15:28Z</time>
      </trkpt>
      <trkpt lat="45.10836" lon="5.00581">
        <ele>245.04299926758</ele>
        <time>2010-11-03T15:15:38Z</time>
      </trkpt>
      <trkpt lat="45.10896" lon="5.00567">
        <ele>248.82600402832</ele>
        <time>2010-11-03T15:15:47Z</time>
      </trkpt>
      <trkpt lat="45.1094" lon="5.00546">
        <ele>249.87699890137</ele>
        <time>2010-11-03T15:15:54Z</time>
      </trkpt>
      <trkpt lat="45.10978" lon="5.00519">
        <ele>249.15600585938</ele>
        <time>2010-11-03T15:16:01Z</time>
      </trkpt>
      <trkpt lat="45.10975" lon="5.00507">
        <ele>248.88400268555</ele>
        <time>2010-11-03T15:16:04Z</time>
      </trkpt>
      <trkpt lat="45.10963" lon="5.00515">
        <ele>248.82099914551</ele>
        <time>2010-11-03T15:16:07Z</time>
      </trkpt>
      <trkpt lat="45.1093" lon="5.00538">
        <ele>249.49299621582</ele>
        <time>2010-11-03T15:16:16Z</time>
      </trkpt>
      <trkpt lat="45.10896" lon="5.00555">
        <ele>248.94099426269</ele>
        <time>2010-11-03T15:16:24Z</time>
      </trkpt>
      <trkpt lat="45.10856" lon="5.00568">
        <ele>247.42799377441</ele>
        <time>2010-11-03T15:16:31Z</time>
      </trkpt>
      <trkpt lat="45.1081" lon="5.00575">
        <ele>245.16600036621</ele>
        <time>2010-11-03T15:16:37Z</time>
      </trkpt>
      <trkpt lat="45.10793" lon="5.00578">
        <ele>244.3450012207</ele>
        <time>2010-11-03T15:16:39Z</time>
      </trkpt>
      <trkpt lat="45.10735" lon="5.00587">
        <ele>240.79499816894</ele>
        <time>2010-11-03T15:16:45Z</time>
      </trkpt>
      <trkpt lat="45.10676" lon="5.00604">
        <ele>237.10299682617</ele>
        <time>2010-11-03T15:16:51Z</time>
      </trkpt>
      <trkpt lat="45.10662" lon="5.00609">
        <ele>236.25999450684</ele>
        <time>2010-11-03T15:16:53Z</time>
      </trkpt>
      <trkpt lat="45.1065" lon="5.00616">
        <ele>234.87300109863</ele>
        <time>2010-11-03T15:16:56Z</time>
      </trkpt>
      <trkpt lat="45.10653" lon="5.00626">
        <ele>234.16200256348</ele>
        <time>2010-11-03T15:17:00Z</time>
      </trkpt>
      <trkpt lat="45.10658" lon="5.00624">
        <ele>234.03900146484</ele>
        <time>2010-11-03T15:17:02Z</time>
      </trkpt>
      <trkpt lat="45.10666" lon="5.00617">
        <ele>234.89700317383</ele>
        <time>2010-11-03T15:17:08Z</time>
      </trkpt>
      <trkpt lat="45.1068" lon="5.00609">
        <ele>235.75900268555</ele>
        <time>2010-11-03T15:17:15Z</time>
      </trkpt>
      <trkpt lat="45.10701" lon="5.00601">
        <ele>236.72500610352</ele>
        <time>2010-11-03T15:17:23Z</time>
      </trkpt>
      <trkpt lat="45.1072" lon="5.00597">
        <ele>237.88600158691</ele>
        <time>2010-11-03T15:17:30Z</time>
      </trkpt>
      <trkpt lat="45.10741" lon="5.00594">
        <ele>239.13499450684</ele>
        <time>2010-11-03T15:17:37Z</time>
      </trkpt>
      <trkpt lat="45.1077" lon="5.0059">
        <ele>241.06799316406</ele>
        <time>2010-11-03T15:17:46Z</time>
      </trkpt>
      <trkpt lat="45.10796" lon="5.00588">
        <ele>242.875</ele>
        <time>2010-11-03T15:17:54Z</time>
      </trkpt>
      <trkpt lat="45.10818" lon="5.00586">
        <ele>244.35099792481</ele>
        <time>2010-11-03T15:18:01Z</time>
      </trkpt>
      <trkpt lat="45.10839" lon="5.00583">
        <ele>245.72799682617</ele>
        <time>2010-11-03T15:18:08Z</time>
      </trkpt>
      <trkpt lat="45.10862" lon="5.00579">
        <ele>247.17399597168</ele>
        <time>2010-11-03T15:18:16Z</time>
      </trkpt>
      <trkpt lat="45.10884" lon="5.00574">
        <ele>248.63200378418</ele>
        <time>2010-11-03T15:18:24Z</time>
      </trkpt>
      <trkpt lat="45.109" lon="5.00567">
        <ele>249.2799987793</ele>
        <time>2010-11-03T15:18:30Z</time>
      </trkpt>
      <trkpt lat="45.10913" lon="5.00562">
        <ele>249.6549987793</ele>
        <time>2010-11-03T15:18:36Z</time>
      </trkpt>
      <trkpt lat="45.10932" lon="5.00553">
        <ele>250.29400634766</ele>
        <time>2010-11-03T15:18:44Z</time>
      </trkpt>
      <trkpt lat="45.10949" lon="5.00541">
        <ele>250.12300109863</ele>
        <time>2010-11-03T15:18:49Z</time>
      </trkpt>
      <trkpt lat="45.10957" lon="5.00536">
        <ele>250.0359954834</ele>
        <time>2010-11-03T15:18:51Z</time>
      </trkpt>
      <trkpt lat="45.10989" lon="5.0051">
        <ele>249.13000488281</ele>
        <time>2010-11-03T15:18:58Z</time>
      </trkpt>
      <trkpt lat="45.10994" lon="5.00507">
        <ele>248.88000488281</ele>
        <time>2010-11-03T15:18:59Z</time>
      </trkpt>
      <trkpt lat="45.11031" lon="5.0048">
        <ele>246.99699401856</ele>
        <time>2010-11-03T15:19:05Z</time>
      </trkpt>
      <trkpt lat="45.11051" lon="5.00465">
        <ele>245.70599365234</ele>
        <time>2010-11-03T15:19:08Z</time>
      </trkpt>
      <trkpt lat="45.11105" lon="5.00431">
        <ele>242.64399719238</ele>
        <time>2010-11-03T15:19:15Z</time>
      </trkpt>
      <trkpt lat="45.11174" lon="5.00394">
        <ele>239.94500732422</ele>
        <time>2010-11-03T15:19:23Z</time>
      </trkpt>
      <trkpt lat="45.1121" lon="5.00375">
        <ele>238.19599914551</ele>
        <time>2010-11-03T15:19:27Z</time>
      </trkpt>
      <trkpt lat="45.1128" lon="5.00336">
        <ele>235.50700378418</ele>
        <time>2010-11-03T15:19:35Z</time>
      </trkpt>
      <trkpt lat="45.11319" lon="5.00308">
        <ele>232.8630065918</ele>
        <time>2010-11-03T15:19:40Z</time>
      </trkpt>
      <trkpt lat="45.11378" lon="5.00259">
        <ele>232.42799377441</ele>
        <time>2010-11-03T15:19:48Z</time>
      </trkpt>
      <trkpt lat="45.11438" lon="5.00204">
        <ele>232</ele>
        <time>2010-11-03T15:19:57Z</time>
      </trkpt>
      <trkpt lat="45.11495" lon="5.0015">
        <ele>231.12600708008</ele>
        <time>2010-11-03T15:20:06Z</time>
      </trkpt>
      <trkpt lat="45.11565" lon="5.00081">
        <ele>230.55999755859</ele>
        <time>2010-11-03T15:20:17Z</time>
      </trkpt>
      <trkpt lat="45.11608" lon="5.00027">
        <ele>229.78799438477</ele>
        <time>2010-11-03T15:20:24Z</time>
      </trkpt>
      <trkpt lat="45.11633" lon="4.99992">
        <ele>228.50799560547</ele>
        <time>2010-11-03T15:20:28Z</time>
      </trkpt>
      <trkpt lat="45.11667" lon="4.99951">
        <ele>226.88900756836</ele>
        <time>2010-11-03T15:20:33Z</time>
      </trkpt>
      <trkpt lat="45.11703" lon="4.99924">
        <ele>224.54600524902</ele>
        <time>2010-11-03T15:20:37Z</time>
      </trkpt>
      <trkpt lat="45.11756" lon="4.99901">
        <ele>221.17700195312</ele>
        <time>2010-11-03T15:20:42Z</time>
      </trkpt>
      <trkpt lat="45.11849" lon="4.99862">
        <ele>215.33399963379</ele>
        <time>2010-11-03T15:20:50Z</time>
      </trkpt>
      <trkpt lat="45.11892" lon="4.99833">
        <ele>212.35299682617</ele>
        <time>2010-11-03T15:20:54Z</time>
      </trkpt>
      <trkpt lat="45.11939" lon="4.99783">
        <ele>209.14599609375</ele>
        <time>2010-11-03T15:20:59Z</time>
      </trkpt>
      <trkpt lat="45.11974" lon="4.99726">
        <ele>208.08999633789</ele>
        <time>2010-11-03T15:21:04Z</time>
      </trkpt>
      <trkpt lat="45.12008" lon="4.99664">
        <ele>207.2619934082</ele>
        <time>2010-11-03T15:21:10Z</time>
      </trkpt>
      <trkpt lat="45.12059" lon="4.9957">
        <ele>207.72099304199</ele>
        <time>2010-11-03T15:21:20Z</time>
      </trkpt>
      <trkpt lat="45.12101" lon="4.99493">
        <ele>207.10699462891</ele>
        <time>2010-11-03T15:21:28Z</time>
      </trkpt>
      <trkpt lat="45.12136" lon="4.99419">
        <ele>205.86000061035</ele>
        <time>2010-11-03T15:21:35Z</time>
      </trkpt>
      <trkpt lat="45.12155" lon="4.99352">
        <ele>205.53300476074</ele>
        <time>2010-11-03T15:21:41Z</time>
      </trkpt>
      <trkpt lat="45.12181" lon="4.99254">
        <ele>205.47900390625</ele>
        <time>2010-11-03T15:21:50Z</time>
      </trkpt>
      <trkpt lat="45.12201" lon="4.99178">
        <ele>206.07000732422</ele>
        <time>2010-11-03T15:21:58Z</time>
      </trkpt>
      <trkpt lat="45.1222" lon="4.9911">
        <ele>206.68099975586</ele>
        <time>2010-11-03T15:22:06Z</time>
      </trkpt>
      <trkpt lat="45.12222" lon="4.99102">
        <ele>206.84700012207</ele>
        <time>2010-11-03T15:22:07Z</time>
      </trkpt>
      <trkpt lat="45.12231" lon="4.99084">
        <ele>207.73100280762</ele>
        <time>2010-11-03T15:22:11Z</time>
      </trkpt>
      <trkpt lat="45.12235" lon="4.9908">
        <ele>208.11000061035</ele>
        <time>2010-11-03T15:22:13Z</time>
      </trkpt>
      <trkpt lat="45.12244" lon="4.99072">
        <ele>209.00100708008</ele>
        <time>2010-11-03T15:22:17Z</time>
      </trkpt>
      <trkpt lat="45.12246" lon="4.9905">
        <ele>209.53300476074</ele>
        <time>2010-11-03T15:22:22Z</time>
      </trkpt>
      <trkpt lat="45.12237" lon="4.99038">
        <ele>209.12399291992</ele>
        <time>2010-11-03T15:22:25Z</time>
      </trkpt>
      <trkpt lat="45.12215" lon="4.99037">
        <ele>208.48899841309</ele>
        <time>2010-11-03T15:22:29Z</time>
      </trkpt>
      <trkpt lat="45.12199" lon="4.99023">
        <ele>207.49000549316</ele>
        <time>2010-11-03T15:22:32Z</time>
      </trkpt>
      <trkpt lat="45.12169" lon="4.98993">
        <ele>205.71099853516</ele>
        <time>2010-11-03T15:22:37Z</time>
      </trkpt>
      <trkpt lat="45.12133" lon="4.98945">
        <ele>203.69700622559</ele>
        <time>2010-11-03T15:22:43Z</time>
      </trkpt>
      <trkpt lat="45.12096" lon="4.98882">
        <ele>202.25100708008</ele>
        <time>2010-11-03T15:22:50Z</time>
      </trkpt>
      <trkpt lat="45.12075" lon="4.98838">
        <ele>201.95199584961</ele>
        <time>2010-11-03T15:22:55Z</time>
      </trkpt>
      <trkpt lat="45.12051" lon="4.98768">
        <ele>201.02900695801</ele>
        <time>2010-11-03T15:23:03Z</time>
      </trkpt>
      <trkpt lat="45.12035" lon="4.98701">
        <ele>200.85400390625</ele>
        <time>2010-11-03T15:23:11Z</time>
      </trkpt>
      <trkpt lat="45.12025" lon="4.98634">
        <ele>201.05000305176</ele>
        <time>2010-11-03T15:23:19Z</time>
      </trkpt>
      <trkpt lat="45.12022" lon="4.98564">
        <ele>200.96099853516</ele>
        <time>2010-11-03T15:23:27Z</time>
      </trkpt>
      <trkpt lat="45.12024" lon="4.98504">
        <ele>200.88900756836</ele>
        <time>2010-11-03T15:23:34Z</time>
      </trkpt>
      <trkpt lat="45.12032" lon="4.98462">
        <ele>201.1190032959</ele>
        <time>2010-11-03T15:23:39Z</time>
      </trkpt>
      <trkpt lat="45.12051" lon="4.98422">
        <ele>201.37199401856</ele>
        <time>2010-11-03T15:23:45Z</time>
      </trkpt>
      <trkpt lat="45.12053" lon="4.98395">
        <ele>201.2559967041</ele>
        <time>2010-11-03T15:23:49Z</time>
      </trkpt>
      <trkpt lat="45.12043" lon="4.98391">
        <ele>201.1609954834</ele>
        <time>2010-11-03T15:23:51Z</time>
      </trkpt>
      <trkpt lat="45.12027" lon="4.98397">
        <ele>201.12199401856</ele>
        <time>2010-11-03T15:23:54Z</time>
      </trkpt>
      <trkpt lat="45.12015" lon="4.98394">
        <ele>200.6609954834</ele>
        <time>2010-11-03T15:23:56Z</time>
      </trkpt>
      <trkpt lat="45.11994" lon="4.98389">
        <ele>199.88200378418</ele>
        <time>2010-11-03T15:23:59Z</time>
      </trkpt>
      <trkpt lat="45.11978" lon="4.98406">
        <ele>199.73599243164</ele>
        <time>2010-11-03T15:24:02Z</time>
      </trkpt>
      <trkpt lat="45.11964" lon="4.98422">
        <ele>199.84300231934</ele>
        <time>2010-11-03T15:24:05Z</time>
      </trkpt>
      <trkpt lat="45.11961" lon="4.98437">
        <ele>199.89599609375</ele>
        <time>2010-11-03T15:24:07Z</time>
      </trkpt>
      <trkpt lat="45.11968" lon="4.9844">
        <ele>199.96699523926</ele>
        <time>2010-11-03T15:24:09Z</time>
      </trkpt>
      <trkpt lat="45.11973" lon="4.98442">
        <ele>199.92399597168</ele>
        <time>2010-11-03T15:24:13Z</time>
      </trkpt>
      <trkpt lat="45.11973" lon="4.98442">
        <ele>199.91499328613</ele>
        <time>2010-11-03T15:24:14Z</time>
      </trkpt>
      <trkpt lat="45.11974" lon="4.98442">
        <ele>199.86500549316</ele>
        <time>2010-11-03T15:24:20Z</time>
      </trkpt>
      <trkpt lat="45.11977" lon="4.98441">
        <ele>199.82699584961</ele>
        <time>2010-11-03T15:24:47Z</time>
      </trkpt>
      <trkpt lat="45.11981" lon="4.98438">
        <ele>200.46000671387</ele>
        <time>2010-11-03T15:26:32Z</time>
      </trkpt>
      <trkpt lat="45.1198" lon="4.98432">
        <ele>200.51699829102</ele>
        <time>2010-11-03T15:26:36Z</time>
      </trkpt>
      <trkpt lat="45.11977" lon="4.98428">
        <ele>200.37300109863</ele>
        <time>2010-11-03T15:26:38Z</time>
      </trkpt>
      <trkpt lat="45.11979" lon="4.98408">
        <ele>200.45899963379</ele>
        <time>2010-11-03T15:26:43Z</time>
      </trkpt>
      <trkpt lat="45.11986" lon="4.98391">
        <ele>200.35800170898</ele>
        <time>2010-11-03T15:26:47Z</time>
      </trkpt>
      <trkpt lat="45.11998" lon="4.98394">
        <ele>200.12399291992</ele>
        <time>2010-11-03T15:26:50Z</time>
      </trkpt>
      <trkpt lat="45.12016" lon="4.98402">
        <ele>200.56100463867</ele>
        <time>2010-11-03T15:26:54Z</time>
      </trkpt>
      <trkpt lat="45.12033" lon="4.98421">
        <ele>201.7380065918</ele>
        <time>2010-11-03T15:26:59Z</time>
      </trkpt>
      <trkpt lat="45.12051" lon="4.98426">
        <ele>201.79400634766</ele>
        <time>2010-11-03T15:27:03Z</time>
      </trkpt>
      <trkpt lat="45.12057" lon="4.98401">
        <ele>202.14700317383</ele>
        <time>2010-11-03T15:27:06Z</time>
      </trkpt>
      <trkpt lat="45.12056" lon="4.98391">
        <ele>202.21299743652</ele>
        <time>2010-11-03T15:27:07Z</time>
      </trkpt>
      <trkpt lat="45.12064" lon="4.98323">
        <ele>201.58799743652</ele>
        <time>2010-11-03T15:27:14Z</time>
      </trkpt>
      <trkpt lat="45.12074" lon="4.98248">
        <ele>200.74499511719</ele>
        <time>2010-11-03T15:27:21Z</time>
      </trkpt>
      <trkpt lat="45.12074" lon="4.98174">
        <ele>200.49899291992</ele>
        <time>2010-11-03T15:27:28Z</time>
      </trkpt>
      <trkpt lat="45.12065" lon="4.98109">
        <ele>200.0299987793</ele>
        <time>2010-11-03T15:27:34Z</time>
      </trkpt>
      <trkpt lat="45.12043" lon="4.98021">
        <ele>198.95599365234</ele>
        <time>2010-11-03T15:27:42Z</time>
      </trkpt>
      <trkpt lat="45.12015" lon="4.97912">
        <ele>198.28999328613</ele>
        <time>2010-11-03T15:27:52Z</time>
      </trkpt>
      <trkpt lat="45.11995" lon="4.97799">
        <ele>197.25</ele>
        <time>2010-11-03T15:28:02Z</time>
      </trkpt>
      <trkpt lat="45.11975" lon="4.97686">
        <ele>196.67399597168</ele>
        <time>2010-11-03T15:28:12Z</time>
      </trkpt>
      <trkpt lat="45.11959" lon="4.97591">
        <ele>196.58799743652</ele>
        <time>2010-11-03T15:28:21Z</time>
      </trkpt>
      <trkpt lat="45.11948" lon="4.97528">
        <ele>195.95500183106</ele>
        <time>2010-11-03T15:28:27Z</time>
      </trkpt>
      <trkpt lat="45.11928" lon="4.97414">
        <ele>194.6369934082</ele>
        <time>2010-11-03T15:28:38Z</time>
      </trkpt>
      <trkpt lat="45.11932" lon="4.97387">
        <ele>194.36799621582</ele>
        <time>2010-11-03T15:28:41Z</time>
      </trkpt>
      <trkpt lat="45.1195" lon="4.97377">
        <ele>194.5</ele>
        <time>2010-11-03T15:28:44Z</time>
      </trkpt>
      <trkpt lat="45.11956" lon="4.97376">
        <ele>194.69000244141</ele>
        <time>2010-11-03T15:28:45Z</time>
      </trkpt>
      <trkpt lat="45.11969" lon="4.97371">
        <ele>195.05799865723</ele>
        <time>2010-11-03T15:28:47Z</time>
      </trkpt>
      <trkpt lat="45.12002" lon="4.97357">
        <ele>195.80599975586</ele>
        <time>2010-11-03T15:28:53Z</time>
      </trkpt>
      <trkpt lat="45.12024" lon="4.97348">
        <ele>196.67100524902</ele>
        <time>2010-11-03T15:28:57Z</time>
      </trkpt>
      <trkpt lat="45.12035" lon="4.97345">
        <ele>197.07699584961</ele>
        <time>2010-11-03T15:28:59Z</time>
      </trkpt>
      <trkpt lat="45.12052" lon="4.97339">
        <ele>198.34700012207</ele>
        <time>2010-11-03T15:29:03Z</time>
      </trkpt>
      <trkpt lat="45.12056" lon="4.97318">
        <ele>199.12199401856</ele>
        <time>2010-11-03T15:29:08Z</time>
      </trkpt>
      <trkpt lat="45.12054" lon="4.97312">
        <ele>199.15600585938</ele>
        <time>2010-11-03T15:29:09Z</time>
      </trkpt>
      <trkpt lat="45.12035" lon="4.9727">
        <ele>198.8630065918</ele>
        <time>2010-11-03T15:29:15Z</time>
      </trkpt>
      <trkpt lat="45.12008" lon="4.97218">
        <ele>198.33799743652</ele>
        <time>2010-11-03T15:29:22Z</time>
      </trkpt>
      <trkpt lat="45.11974" lon="4.97169">
        <ele>197.46800231934</ele>
        <time>2010-11-03T15:29:29Z</time>
      </trkpt>
      <trkpt lat="45.1194" lon="4.97124">
        <ele>197.13299560547</ele>
        <time>2010-11-03T15:29:36Z</time>
      </trkpt>
      <trkpt lat="45.11917" lon="4.97093">
        <ele>196.88400268555</ele>
        <time>2010-11-03T15:29:41Z</time>
      </trkpt>
      <trkpt lat="45.11902" lon="4.97062">
        <ele>196.43899536133</ele>
        <time>2010-11-03T15:29:45Z</time>
      </trkpt>
      <trkpt lat="45.11884" lon="4.97048">
        <ele>196.24899291992</ele>
        <time>2010-11-03T15:29:48Z</time>
      </trkpt>
      <trkpt lat="45.11879" lon="4.97042">
        <ele>196.24299621582</ele>
        <time>2010-11-03T15:29:49Z</time>
      </trkpt>
      <trkpt lat="45.11826" lon="4.96973">
        <ele>195.90800476074</ele>
        <time>2010-11-03T15:29:59Z</time>
      </trkpt>
      <trkpt lat="45.11777" lon="4.96897">
        <ele>195.52400207519</ele>
        <time>2010-11-03T15:30:09Z</time>
      </trkpt>
      <trkpt lat="45.11772" lon="4.96889">
        <ele>195.45100402832</ele>
        <time>2010-11-03T15:30:10Z</time>
      </trkpt>
      <trkpt lat="45.11764" lon="4.96851">
        <ele>195.91200256348</ele>
        <time>2010-11-03T15:30:14Z</time>
      </trkpt>
      <trkpt lat="45.11755" lon="4.96826">
        <ele>195.66200256348</ele>
        <time>2010-11-03T15:30:17Z</time>
      </trkpt>
      <trkpt lat="45.11737" lon="4.96816">
        <ele>195.17300415039</ele>
        <time>2010-11-03T15:30:20Z</time>
      </trkpt>
      <trkpt lat="45.11725" lon="4.96806">
        <ele>195.14199829102</ele>
        <time>2010-11-03T15:30:22Z</time>
      </trkpt>
      <trkpt lat="45.11713" lon="4.96794">
        <ele>195.05200195312</ele>
        <time>2010-11-03T15:30:24Z</time>
      </trkpt>
      <trkpt lat="45.11666" lon="4.96713">
        <ele>194.20799255371</ele>
        <time>2010-11-03T15:30:34Z</time>
      </trkpt>
      <trkpt lat="45.11639" lon="4.96643">
        <ele>193.80000305176</ele>
        <time>2010-11-03T15:30:42Z</time>
      </trkpt>
      <trkpt lat="45.11608" lon="4.96564">
        <ele>193.58500671387</ele>
        <time>2010-11-03T15:30:51Z</time>
      </trkpt>
      <trkpt lat="45.11589" lon="4.96517">
        <ele>193.69400024414</ele>
        <time>2010-11-03T15:30:57Z</time>
      </trkpt>
      <trkpt lat="45.11584" lon="4.96502">
        <ele>193.62300109863</ele>
        <time>2010-11-03T15:30:59Z</time>
      </trkpt>
      <trkpt lat="45.11581" lon="4.96469">
        <ele>193.72900390625</ele>
        <time>2010-11-03T15:31:04Z</time>
      </trkpt>
      <trkpt lat="45.11578" lon="4.96449">
        <ele>194.38000488281</ele>
        <time>2010-11-03T15:31:09Z</time>
      </trkpt>
      <trkpt lat="45.11576" lon="4.96446">
        <ele>194.45399475098</ele>
        <time>2010-11-03T15:31:11Z</time>
      </trkpt>
      <trkpt lat="45.11571" lon="4.96451">
        <ele>194.32200622559</ele>
        <time>2010-11-03T15:31:16Z</time>
      </trkpt>
      <trkpt lat="45.11564" lon="4.96444">
        <ele>194.25300598144</ele>
        <time>2010-11-03T15:31:20Z</time>
      </trkpt>
      <trkpt lat="45.11562" lon="4.96429">
        <ele>194.31900024414</ele>
        <time>2010-11-03T15:31:24Z</time>
      </trkpt>
      <trkpt lat="45.11567" lon="4.96425">
        <ele>195.0950012207</ele>
        <time>2010-11-03T15:31:28Z</time>
      </trkpt>
      <trkpt lat="45.11568" lon="4.96426">
        <ele>195.02000427246</ele>
        <time>2010-11-03T15:31:31Z</time>
      </trkpt>
      <trkpt lat="45.1157" lon="4.96429">
        <ele>194.97900390625</ele>
        <time>2010-11-03T15:31:36Z</time>
      </trkpt>
      <trkpt lat="45.11571" lon="4.9643">
        <ele>195.08599853516</ele>
        <time>2010-11-03T15:31:40Z</time>
      </trkpt>
    </trkseg>
  </trk>
</gpx>